[[{"header":{"parameterUnit":"m.s-1","parameterCategory":1,"la1":30.6,"la2":29.2853,"lo1":-89.7004,"lo2":-87.6739,"dy":0.0162,"dx":0.0183,"nx":112,"ny":82,"refTime":"2026-02-25T12:00:00:Z","depth":0,"parameterNumber":2,"parameterNumberName":"U-component_of_WINDS"},"data":[0.0,0.0,0.0,0.0,0.0,0.0,0.0,0.0,0.0,0.0,0.0,0.0,0.0,0.0,0.0,0.0,0.0,0.0,0.0,0.0,0.0,0.0,0.0,0.0,0.0,0.0,0.0,0.0,0.0,0.0,0.0,0.0,0.0,0.0,0.0,0.0,0.0,0.0,0.0,0.0,0.0,0.0,0.0,0.0,0.0,0.0,0.0,0.0,0.0,0.0,0.0,0.0,0.0,0.0,0.0,0.0,0.0,0.0,0.0,0.0,0.0,0.0,0.0,0.0,0.0,0.0,0.0,0.0,0.0,0.0,0.0,0.0,0.0,0.0,0.0,0.0,0.0,0.0,0.0,0.0,0.0,0.0,0.0,0.0,0.0,0.0,0.0,0.0,0.0,0.0,-5.1756,-5.5317,-6.1337,-6.5191,-6.5301,-6.4971,-6.1447,-5.368,0.0,0.0,0.0,0.0,0.0,0.0,0.0,0.0,0.0,0.0,0.0,0.0,0.0,0.0,0.0,0.0,0.0,0.0,0.0,0.0,0.0,0.0,0.0,0.0,0.0,0.0,0.0,0.0,0.0,0.0,0.0,0.0,0.0,0.0,0.0,0.0,0.0,0.0,0.0,0.0,0.0,0.0,0.0,0.0,0.0,0.0,0.0,0.0,0.0,0.0,0.0,0.0,0.0,0.0,0.0,0.0,0.0,0.0,0.0,0.0,0.0,0.0,0.0,0.0,0.0,0.0,0.0,0.0,0.0,0.0,0.0,0.0,0.0,0.0,0.0,0.0,0.0,0.0,0.0,0.0,0.0,0.0,0.0,0.0,0.0,0.0,0.0,0.0,0.0,0.0,0.0,0.0,0.0,0.0,0.0,0.0,0.0,0.0,0.0,0.0,0.0,0.0,0.0,0.0,-5.1977,-6.0603,-6.3172,-6.4567,-6.5264,-6.3356,-5.9612,-5.357,0.0,0.0,0.0,0.0,0.0,0.0,0.0,0.0,0.0,0.0,0.0,0.0,0.0,0.0,0.0,0.0,0.0,0.0,0.0,0.0,0.0,0.0,0.0,0.0,0.0,0.0,0.0,0.0,0.0,0.0,0.0,0.0,0.0,0.0,0.0,0.0,0.0,0.0,0.0,0.0,0.0,0.0,0.0,0.0,0.0,0.0,0.0,0.0,0.0,0.0,0.0,0.0,0.0,0.0,0.0,0.0,0.0,0.0,0.0,0.0,0.0,0.0,0.0,0.0,0.0,0.0,0.0,0.0,0.0,0.0,0.0,0.0,0.0,0.0,0.0,0.0,0.0,0.0,0.0,0.0,0.0,0.0,0.0,0.0,0.0,0.0,0.0,0.0,0.0,0.0,0.0,0.0,0.0,0.0,0.0,0.0,0.0,0.0,0.0,0.0,0.0,0.0,0.0,-4.9571,-5.3849,-6.1337,-6.3319,-6.4053,-6.3943,-6.2511,-5.8988,-5.2931,-5.0215,0.0,0.0,0.0,0.0,0.0,0.0,0.0,0.0,0.0,0.0,0.0,0.0,0.0,0.0,0.0,0.0,0.0,0.0,0.0,0.0,0.0,0.0,0.0,0.0,0.0,0.0,0.0,0.0,0.0,0.0,0.0,0.0,0.0,0.0,0.0,0.0,0.0,0.0,0.0,0.0,0.0,0.0,0.0,0.0,0.0,0.0,0.0,0.0,0.0,0.0,0.0,0.0,0.0,0.0,0.0,0.0,0.0,0.0,0.0,0.0,0.0,0.0,0.0,0.0,0.0,0.0,0.0,0.0,0.0,0.0,0.0,0.0,0.0,0.0,0.0,0.0,0.0,0.0,0.0,0.0,0.0,0.0,0.0,0.0,0.0,0.0,0.0,0.0,0.0,0.0,0.0,0.0,0.0,0.0,0.0,0.0,0.0,0.0,0.0,0.0,0.0,0.0,-5.3408,-5.6198,-6.108,-6.2915,-6.3503,-6.2853,-6.119,-5.785,-5.2344,-4.8049,0.0,0.0,0.0,0.0,0.0,0.0,0.0,0.0,0.0,0.0,0.0,0.0,0.0,0.0,0.0,0.0,0.0,0.0,0.0,0.0,0.0,0.0,0.0,0.0,0.0,0.0,0.0,0.0,0.0,0.0,0.0,0.0,0.0,0.0,0.0,0.0,0.0,0.0,0.0,0.0,0.0,0.0,0.0,0.0,0.0,0.0,0.0,0.0,0.0,0.0,0.0,0.0,0.0,0.0,0.0,0.0,0.0,0.0,0.0,0.0,0.0,0.0,0.0,0.0,0.0,0.0,0.0,0.0,0.0,0.0,0.0,0.0,0.0,0.0,0.0,0.0,0.0,0.0,0.0,0.0,0.0,0.0,0.0,0.0,0.0,0.0,0.0,0.0,0.0,0.0,0.0,0.0,0.0,0.0,0.0,0.0,0.0,0.0,0.0,0.0,0.0,0.0,-5.3922,-5.8657,-6.13,-6.2365,-6.2879,-6.278,-5.8621,-5.4876,-5.216,-4.5406,0.0,0.0,0.0,0.0,0.0,0.0,0.0,0.0,0.0,0.0,0.0,0.0,0.0,0.0,0.0,0.0,0.0,0.0,0.0,0.0,0.0,0.0,0.0,0.0,0.0,0.0,0.0,0.0,0.0,0.0,0.0,0.0,0.0,0.0,0.0,0.0,0.0,0.0,0.0,0.0,0.0,0.0,0.0,0.0,0.0,0.0,0.0,0.0,0.0,0.0,0.0,0.0,0.0,0.0,0.0,0.0,0.0,0.0,0.0,0.0,0.0,0.0,0.0,0.0,0.0,0.0,0.0,0.0,0.0,0.0,0.0,0.0,0.0,0.0,0.0,0.0,0.0,0.0,0.0,0.0,0.0,0.0,0.0,0.0,0.0,0.0,0.0,0.0,0.0,0.0,0.0,0.0,0.0,0.0,0.0,0.0,0.0,0.0,0.0,0.0,0.0,0.0,-5.3115,-5.7629,-6.0529,-6.1557,-6.1851,-6.1374,-5.8731,-5.517,-5.0729,0.0,0.0,0.0,0.0,0.0,0.0,0.0,0.0,0.0,0.0,0.0,0.0,0.0,0.0,0.0,0.0,0.0,0.0,0.0,0.0,0.0,0.0,0.0,0.0,0.0,0.0,0.0,0.0,0.0,0.0,0.0,0.0,0.0,0.0,0.0,0.0,0.0,0.0,0.0,0.0,0.0,0.0,0.0,0.0,0.0,0.0,0.0,0.0,0.0,0.0,0.0,0.0,0.0,0.0,0.0,0.0,0.0,0.0,0.0,0.0,0.0,0.0,0.0,0.0,0.0,0.0,0.0,0.0,0.0,0.0,0.0,0.0,0.0,0.0,0.0,0.0,0.0,0.0,0.0,0.0,0.0,0.0,0.0,0.0,0.0,0.0,0.0,0.0,0.0,0.0,0.0,0.0,0.0,0.0,0.0,0.0,0.0,0.0,0.0,0.0,0.0,0.0,-4.7719,-5.3004,-5.7409,-6.0126,-6.1337,-6.1557,-6.0493,-5.8217,-5.462,-4.9444,0.0,0.0,0.0,0.0,0.0,0.0,0.0,0.0,0.0,0.0,0.0,0.0,0.0,0.0,0.0,0.0,0.0,0.0,0.0,0.0,0.0,0.0,0.0,0.0,0.0,0.0,0.0,0.0,0.0,0.0,0.0,0.0,0.0,0.0,0.0,0.0,0.0,0.0,0.0,0.0,0.0,0.0,0.0,0.0,0.0,0.0,0.0,0.0,0.0,0.0,0.0,0.0,0.0,0.0,0.0,0.0,0.0,0.0,0.0,0.0,0.0,0.0,0.0,0.0,0.0,0.0,0.0,0.0,0.0,0.0,0.0,0.0,0.0,0.0,0.0,0.0,0.0,0.0,0.0,0.0,0.0,0.0,0.0,0.0,0.0,0.0,0.0,0.0,0.0,0.0,0.0,0.0,0.0,0.0,0.0,0.0,0.0,0.0,0.0,0.0,0.0,0.0,-4.7792,-5.3995,-5.8621,-6.0236,-6.1851,-6.2144,-6.0529,-5.6748,-5.2674,0.0,0.0,0.0,0.0,0.0,0.0,0.0,0.0,0.0,0.0,0.0,0.0,0.0,0.0,0.0,0.0,0.0,0.0,0.0,0.0,0.0,0.0,0.0,0.0,0.0,0.0,0.0,0.0,0.0,0.0,0.0,0.0,0.0,0.0,0.0,0.0,0.0,0.0,0.0,0.0,0.0,0.0,0.0,0.0,0.0,0.0,0.0,0.0,0.0,0.0,0.0,0.0,0.0,0.0,0.0,0.0,0.0,0.0,0.0,0.0,0.0,0.0,0.0,0.0,0.0,0.0,0.0,0.0,0.0,0.0,0.0,0.0,0.0,0.0,0.0,0.0,0.0,0.0,0.0,0.0,0.0,0.0,0.0,0.0,0.0,0.0,0.0,0.0,0.0,0.0,0.0,0.0,0.0,0.0,0.0,0.0,0.0,0.0,0.0,0.0,0.0,0.0,0.0,-4.8692,-5.484,-5.9465,-6.108,-6.1667,-6.152,-6.0493,-5.774,-5.3628,-4.781,0.0,0.0,0.0,0.0,0.0,0.0,0.0,0.0,0.0,0.0,0.0,0.0,0.0,0.0,0.0,0.0,0.0,0.0,0.0,0.0,0.0,0.0,0.0,0.0,0.0,0.0,0.0,0.0,0.0,0.0,0.0,0.0,0.0,0.0,0.0,0.0,0.0,0.0,0.0,0.0,0.0,0.0,0.0,0.0,0.0,0.0,0.0,0.0,0.0,0.0,0.0,0.0,0.0,0.0,0.0,0.0,0.0,0.0,0.0,0.0,0.0,0.0,0.0,0.0,0.0,0.0,0.0,0.0,0.0,0.0,0.0,0.0,0.0,0.0,0.0,0.0,0.0,0.0,0.0,0.0,0.0,0.0,0.0,0.0,0.0,0.0,0.0,0.0,0.0,0.0,0.0,0.0,0.0,0.0,0.0,0.0,0.0,0.0,0.0,0.0,0.0,0.0,-4.8949,-5.4913,-5.9465,-6.1374,-6.1887,-6.163,-6.0493,-5.8474,-5.4509,-4.7993,0.0,0.0,0.0,0.0,0.0,0.0,0.0,0.0,0.0,0.0,0.0,0.0,0.0,0.0,0.0,0.0,0.0,0.0,0.0,0.0,0.0,0.0,0.0,0.0,0.0,0.0,0.0,0.0,0.0,0.0,0.0,0.0,0.0,0.0,0.0,0.0,0.0,0.0,0.0,0.0,0.0,0.0,0.0,0.0,0.0,0.0,0.0,0.0,0.0,0.0,0.0,0.0,0.0,0.0,0.0,0.0,0.0,0.0,0.0,0.0,0.0,0.0,0.0,0.0,0.0,0.0,0.0,0.0,0.0,0.0,0.0,0.0,0.0,0.0,0.0,0.0,0.0,0.0,0.0,0.0,0.0,0.0,0.0,0.0,0.0,0.0,0.0,0.0,0.0,0.0,0.0,0.0,0.0,0.0,0.0,0.0,0.0,0.0,0.0,0.0,0.0,0.0,-4.8783,-5.4473,-5.8914,-6.1337,-6.2254,-6.2071,-6.0529,-5.8841,-5.517,-4.882,0.0,0.0,0.0,0.0,0.0,0.0,0.0,0.0,0.0,0.0,0.0,0.0,0.0,0.0,0.0,0.0,0.0,0.0,0.0,0.0,0.0,0.0,0.0,0.0,0.0,0.0,0.0,0.0,0.0,0.0,0.0,0.0,0.0,0.0,0.0,0.0,0.0,0.0,0.0,0.0,0.0,0.0,0.0,0.0,0.0,0.0,0.0,0.0,0.0,0.0,0.0,0.0,0.0,0.0,0.0,0.0,0.0,0.0,0.0,0.0,-5.7516,-5.538,0.0,0.0,0.0,0.0,0.0,0.0,0.0,0.0,0.0,0.0,0.0,0.0,0.0,0.0,0.0,0.0,0.0,0.0,0.0,0.0,0.0,0.0,0.0,0.0,0.0,0.0,0.0,0.0,0.0,0.0,0.0,0.0,0.0,0.0,0.0,0.0,0.0,0.0,0.0,0.0,-4.8839,-5.4509,-5.8914,-6.1337,-6.1741,-6.1447,-6.0493,-5.8327,-5.484,-4.9647,-4.4745,0.0,0.0,0.0,0.0,0.0,0.0,0.0,0.0,0.0,0.0,0.0,0.0,0.0,0.0,0.0,0.0,0.0,0.0,0.0,0.0,0.0,0.0,0.0,0.0,0.0,0.0,0.0,0.0,0.0,0.0,0.0,0.0,0.0,0.0,0.0,0.0,0.0,0.0,0.0,0.0,0.0,0.0,0.0,0.0,0.0,0.0,0.0,0.0,0.0,0.0,0.0,0.0,0.0,0.0,0.0,0.0,0.0,0.0,0.0,-6.163,-5.9465,0.0,0.0,0.0,0.0,0.0,0.0,0.0,0.0,0.0,0.0,0.0,0.0,0.0,0.0,0.0,0.0,0.0,0.0,0.0,0.0,0.0,0.0,0.0,0.0,0.0,0.0,0.0,0.0,0.0,0.0,0.0,0.0,0.0,0.0,0.0,0.0,0.0,0.0,0.0,0.0,-4.937,-5.4399,-5.8364,-6.075,-6.1006,-6.0713,-5.9905,-5.7997,-5.506,-5.1006,-4.6507,0.0,0.0,0.0,0.0,0.0,0.0,0.0,0.0,0.0,0.0,0.0,0.0,0.0,0.0,0.0,0.0,0.0,0.0,0.0,0.0,0.0,0.0,0.0,0.0,0.0,0.0,0.0,0.0,0.0,0.0,0.0,0.0,0.0,0.0,0.0,0.0,0.0,0.0,0.0,0.0,0.0,0.0,0.0,0.0,0.0,0.0,0.0,0.0,0.0,0.0,0.0,0.0,0.0,-6.8482,-6.9547,-7.0367,-7.0367,-7.0477,-7.0403,-6.7026,-6.5228,-6.4494,-6.152,0.0,0.0,0.0,0.0,0.0,0.0,0.0,0.0,0.0,0.0,0.0,0.0,0.0,0.0,0.0,0.0,0.0,0.0,0.0,0.0,0.0,0.0,-5.2601,-5.3115,-5.4252,-5.3702,-4.8049,0.0,0.0,0.0,0.0,0.0,0.0,0.0,0.0,0.0,0.0,0.0,-4.9994,-5.4326,-5.7666,-5.9942,-6.0199,-5.9942,-5.9258,-5.7593,-5.539,-5.2601,-4.8563,-4.4709,0.0,0.0,0.0,0.0,0.0,0.0,0.0,0.0,0.0,0.0,0.0,0.0,0.0,0.0,0.0,0.0,0.0,0.0,0.0,0.0,0.0,0.0,0.0,0.0,0.0,0.0,0.0,0.0,0.0,0.0,0.0,0.0,-6.3012,-6.1908,0.0,0.0,0.0,0.0,0.0,0.0,0.0,0.0,0.0,0.0,0.0,0.0,0.0,-6.6973,-6.9411,-7.2121,-7.3219,-7.2684,-7.5662,-7.6778,-7.6173,-7.6173,-7.6607,-7.7304,-7.6754,0.0,-6.7063,-6.5264,0.0,0.0,0.0,0.0,0.0,0.0,0.0,0.0,0.0,0.0,0.0,0.0,0.0,0.0,0.0,0.0,0.0,0.0,0.0,0.0,0.0,0.0,-5.8988,-5.8377,-5.8414,-5.7937,-5.5684,-5.0215,-4.5112,-4.2964,-4.0944,-3.8689,0.0,0.0,0.0,0.0,0.0,0.0,-5.0141,-5.4326,-5.7483,-5.9148,-5.9368,-5.9294,-5.9184,-5.7079,-5.528,-5.4142,-5.0251,-4.7131,-4.5186,-4.0781,0.0,0.0,0.0,0.0,0.0,0.0,0.0,0.0,0.0,0.0,0.0,0.0,0.0,0.0,0.0,0.0,0.0,0.0,0.0,0.0,0.0,0.0,0.0,0.0,0.0,0.0,0.0,0.0,0.0,-6.0935,-6.3974,-6.2293,-6.3666,-6.3051,0.0,0.0,0.0,0.0,0.0,0.0,0.0,0.0,0.0,-7.0744,-7.1332,-7.2585,-7.4649,-7.5708,-7.6313,-7.646,-7.7892,-7.8626,-7.8699,-7.8699,-7.8919,-7.9286,-7.9764,-7.7341,-7.2863,-6.9889,-6.5815,-6.108,0.0,0.0,0.0,0.0,-5.5537,-5.5978,-5.9061,-5.9318,-5.8107,-5.6946,0.0,0.0,0.0,0.0,0.0,0.0,0.0,-5.1389,-5.4032,-5.6859,-5.9318,-6.0309,-6.0566,-6.0236,-5.9061,-5.5611,-5.1389,-4.7021,-4.5333,-4.2983,-3.786,-3.7404,0.0,0.0,0.0,-4.6434,-5.0912,-5.3812,-5.6088,-5.768,-5.7446,-5.7189,-5.7189,-5.5794,-5.4583,-5.3775,-5.1206,-4.8967,-4.7315,-4.3938,-4.0508,0.0,0.0,0.0,0.0,0.0,0.0,0.0,0.0,0.0,0.0,0.0,0.0,0.0,0.0,0.0,0.0,0.0,0.0,0.0,0.0,0.0,0.0,0.0,0.0,0.0,0.0,0.0,0.0,-6.2666,-6.5743,-6.364,-6.6397,-6.632,0.0,0.0,0.0,0.0,0.0,0.0,-6.9206,-7.0821,-7.3168,-7.6553,-7.667,-7.747,-7.9137,-7.8553,-7.8479,-7.8919,-7.8919,-7.9213,-7.98,-7.98,-7.98,-7.98,-8.0424,-7.9543,-7.7347,-7.3964,-6.9816,-6.5338,-6.2511,-6.0382,-5.9134,-6.0322,-6.0762,-6.1312,-6.5191,-6.5448,-6.3796,-6.1961,-5.9318,-5.5904,-5.1039,0.0,0.0,0.0,0.0,-5.3188,-5.6785,-5.8327,-5.9428,-6.141,-6.1924,-6.163,-6.0639,-5.9318,-5.6675,-5.1242,-4.9664,-4.7388,-4.1568,-4.1054,0.0,-4.1185,-4.4195,-4.7902,-5.1793,-5.3518,-5.495,-5.6345,-5.5941,-5.5596,-5.5596,-5.484,-5.4069,-5.324,-5.1683,-5.0141,-4.8673,-4.6507,-4.3644,-4.001,0.0,0.0,0.0,0.0,0.0,0.0,0.0,0.0,0.0,0.0,0.0,0.0,0.0,0.0,0.0,0.0,0.0,0.0,0.0,0.0,0.0,0.0,0.0,0.0,0.0,0.0,0.0,0.0,0.0,-6.7244,-7.1975,0.0,0.0,0.0,0.0,-6.7898,-7.0283,-7.2822,-7.5399,-7.6399,-7.8438,-8.1823,-8.0794,-8.0962,-8.2618,-8.1437,-8.0461,-7.9727,-7.9727,-7.9764,-7.98,-7.98,-7.98,-7.98,-7.9837,-7.936,-7.8405,-7.6607,-7.345,-6.9633,-6.7907,-6.6292,-6.4897,-6.4971,-6.5007,-6.5154,-6.6145,-6.5448,-6.4457,-6.6586,-6.4053,-5.9685,-5.7116,-5.4708,0.0,0.0,-5.5868,-5.7079,-5.9575,-6.0823,-6.163,-6.2548,-6.2768,-6.2328,-6.075,-5.9758,-5.834,-5.5721,-5.3371,-5.1169,-4.9224,0.0,-4.6104,-4.7609,-4.8012,-4.937,-5.269,-5.3885,-5.473,-5.5596,-5.5611,-5.5596,-5.5596,-5.484,-5.4069,-5.324,-5.1683,-5.0398,-4.9574,-4.7902,-4.581,-4.3331,-3.9328,0.0,0.0,0.0,0.0,0.0,0.0,0.0,0.0,0.0,0.0,0.0,0.0,0.0,0.0,0.0,0.0,0.0,0.0,0.0,0.0,0.0,0.0,0.0,0.0,0.0,0.0,0.0,0.0,-7.0514,-7.5168,0.0,-7.2014,-7.1822,-7.2591,-7.4014,-7.5438,-7.7592,-8.0708,-8.0631,-8.1593,-8.3901,-8.2184,-8.1514,-8.2104,-8.0361,-7.9323,-7.9029,-7.8479,-7.8185,-7.8185,-7.8185,-7.8185,-7.8222,-7.8772,-7.8259,-7.6974,-7.69,-7.5102,-7.2312,-7.1211,-6.9816,-6.8385,-6.8385,-6.8715,-6.9201,-6.9486,-6.8862,-6.7687,-6.5925,-6.3466,-6.0823,-5.8914,-5.8107,-5.796,-5.8547,-5.9281,-6.0199,-6.1594,-6.2181,-6.2438,-6.2732,-6.278,-6.2365,-6.075,-6.0162,-5.9428,-5.7519,-5.5611,-5.3298,-5.0124,-5.0141,-4.9921,-4.7846,-4.9334,-5.1279,-5.2983,-5.3445,-5.3959,-5.473,-5.4363,-5.3849,-5.3335,-5.3004,-5.2527,-5.172,-5.0618,-4.9904,-4.961,-4.8489,-4.6764,-4.4305,-4.1846,-3.7955,0.0,0.0,0.0,0.0,0.0,0.0,0.0,0.0,0.0,0.0,0.0,0.0,0.0,0.0,0.0,0.0,0.0,0.0,0.0,0.0,0.0,0.0,0.0,0.0,0.0,-6.8475,-7.3476,-7.3476,-7.7977,-7.9862,-7.6707,-7.6707,-7.7438,-7.8861,-7.9477,-8.09,-8.3439,-8.2747,-8.2978,-8.4439,-8.2561,-8.1574,-8.1596,-7.9799,-7.8765,-7.847,-7.7684,-7.7163,-7.69,-7.69,-7.6754,-7.6503,-7.7121,-7.6717,-7.5726,-7.6276,-7.5395,-7.3634,-7.312,-7.2092,-7.0917,-7.0917,-7.1248,-7.1651,-7.1101,-7.055,-6.9522,-6.6035,-6.4163,-6.2989,-6.1667,-6.1606,-6.1998,-6.1704,-6.2034,-6.2511,-6.2768,-6.278,-6.278,-6.278,-6.278,-6.2365,-6.075,-6.0419,-5.9905,-5.8327,-5.6932,-5.517,-5.2491,-5.2674,-5.236,-4.9938,-5.0949,-5.227,-5.3093,-5.3203,-5.3387,-5.3959,-5.3518,-5.2858,-5.205,-5.1756,-5.1242,-5.0435,-4.937,-4.8636,-4.8362,-4.7535,-4.6104,-4.3938,-4.1772,-3.8138,-3.2999,0.0,0.0,0.0,0.0,0.0,0.0,0.0,0.0,0.0,0.0,0.0,0.0,0.0,0.0,0.0,0.0,0.0,0.0,0.0,0.0,0.0,0.0,0.0,-6.582,-7.1822,-7.613,-7.6245,-8.0669,-8.2708,-8.0323,-8.0785,-8.1554,-8.2324,-8.2324,-8.267,-8.3555,-8.2747,-8.267,-8.3516,-8.2052,-8.1267,-8.1325,-8.0067,-7.9027,-7.8218,-7.7555,-7.6864,-7.6056,-7.6056,-7.5652,-7.4918,-7.4918,-7.4918,-7.4882,-7.4882,-7.4404,-7.367,-7.367,-7.3193,-7.2496,-7.2496,-7.2496,-7.2275,-7.066,-7.011,-6.9706,-6.732,-6.6549,-6.6402,-6.5595,-6.5338,-6.5191,-6.4347,-6.4127,-6.3906,-6.3062,-6.2817,-6.278,-6.278,-6.278,-6.2365,-6.075,-6.0419,-5.9905,-5.8327,-5.7373,-5.6822,-5.6785,-5.484,-5.3518,-5.4252,-5.3041,0.0,-5.3093,-5.3203,-5.3203,-5.3203,-5.3203,-5.2858,-5.2013,-5.1242,-5.0435,-4.9554,-4.7957,-4.6709,-4.5938,-4.5131,-4.3975,-4.2359,-3.9145,-3.6303,-3.3867,0.0,0.0,0.0,0.0,0.0,0.0,0.0,0.0,0.0,0.0,0.0,0.0,0.0,0.0,0.0,0.0,0.0,0.0,0.0,0.0,0.0,-6.4051,-6.8321,-6.9398,-7.4322,-7.8977,-8.2093,-8.4209,-8.5632,-8.6209,-8.4786,-8.3939,-8.417,-8.3016,-8.267,-8.3555,-8.2208,-8.1823,-8.2631,-8.1228,-8.0231,-7.981,-7.9016,-7.7961,-7.6715,-7.6514,-7.6019,-7.5249,-7.5249,-7.5139,-7.4918,-7.4918,-7.4588,-7.4037,-7.4037,-7.356,-7.2899,-7.345,-7.3193,-7.2496,-7.2496,-7.2496,-7.2275,-7.066,-7.011,-6.9779,-6.7944,-6.7357,-6.721,-6.6402,-6.6182,-6.5999,-6.5191,-6.453,-6.4016,-6.3796,-6.3282,-6.278,-6.278,-6.278,-6.2365,-6.075,-6.0419,-5.9905,-5.8327,-5.7813,-5.7299,-5.6124,-5.539,-5.462,-5.3665,-5.3151,-5.2968,-5.3167,-5.3203,-5.3203,-5.3203,-5.3203,-5.2637,-5.1242,-5.0949,-4.9781,-4.7373,-4.6576,-4.6211,-4.619,-4.5223,-4.4232,-4.3167,-3.9439,-3.6683,0.0,0.0,0.0,0.0,0.0,0.0,0.0,0.0,0.0,0.0,0.0,0.0,0.0,0.0,0.0,0.0,0.0,0.0,0.0,0.0,0.0,0.0,-6.8975,-7.3553,-7.5399,-7.8207,-8.14,-8.4978,-8.5824,-8.6517,-8.7517,-8.5632,-8.4209,-8.3824,-8.2554,-8.2016,-8.2516,-8.1631,-8.1323,-8.1785,-8.0693,-7.9929,-7.9578,-7.8391,-7.7375,-7.6519,-7.5875,-7.5175,-7.4404,-7.4404,-7.4221,-7.3891,-7.3891,-7.3634,-7.3193,-7.3193,-7.2936,-7.2569,0.0,0.0,0.0,0.0,-7.2312,-7.1835,-7.055,-6.9889,-6.9376,-6.8091,-6.7687,-6.7614,-6.7136,-6.699,-6.6843,-6.6035,-6.5228,-6.453,-6.42,-6.3466,-6.278,-6.278,-6.278,-6.2365,-6.075,-6.0419,-5.9905,-5.8327,-5.7997,0.0,-5.6308,-5.5794,-5.528,-5.4363,-5.3628,-5.3203,-5.3203,-5.3203,-5.3203,-5.3203,-5.3203,-5.2674,-5.1426,-5.0692,0.0,0.0,0.0,-4.5663,-4.5161,-4.387,0.0,0.0,0.0,0.0,0.0,-3.7229,0.0,0.0,-3.5097,-3.4185,0.0,0.0,0.0,0.0,0.0,0.0,0.0,0.0,0.0,0.0,0.0,0.0,0.0,0.0,0.0,0.0,-7.3707,-7.8707,-8.1977,-8.2516,-8.3516,-8.5978,-8.6094,-8.6017,-8.6094,-8.4478,-8.3131,-8.2362,-8.1554,-8.1093,-8.1093,-8.1093,0.0,0.0,0.0,-7.999,-7.9756,-7.8014,-7.6968,-7.6675,-7.5416,-7.4331,-7.356,-7.356,-7.3193,-7.2496,-7.2496,-7.2496,-7.2496,-7.2496,-7.2496,-7.2496,-7.2496,-7.2496,-7.2496,-7.2496,-7.1982,-7.1211,-7.0367,0.0,0.0,-6.7944,-6.7687,-6.7687,-6.7687,-6.7687,-6.7504,-6.6733,-6.5925,-6.5118,-6.431,-6.3466,-6.278,-6.278,-6.278,-6.2365,-6.075,-6.0419,-5.9905,-5.8327,-5.7997,-5.7753,-5.6951,-5.6153,-5.5596,-5.5464,-5.4078,-5.3103,-5.3203,-5.306,-5.3039,-5.3203,-5.3124,0.0,-5.205,-5.0602,-4.9627,-4.9385,-4.7203,-4.5242,-4.3681,-4.2433,-4.1996,-4.2458,-4.1959,-4.2269,-4.3463,-4.2299,-4.2031,-4.2514,-3.7878,-3.6331,0.0,0.0,0.0,0.0,0.0,0.0,0.0,0.0,0.0,0.0,0.0,0.0,0.0,0.0,0.0,-6.9937,-7.5438,-8.0246,-8.2978,-8.3939,-8.5093,-8.694,-8.5978,-8.5401,-8.6055,-8.3939,-8.2477,-8.2324,-8.1554,-8.1093,-8.1093,-8.1093,-8.0855,-8.0315,-8.0163,-7.9318,-7.7704,-7.7274,-7.6179,-7.4343,-7.4088,0.0,-7.2716,-7.2716,-7.2642,-7.2496,-7.2496,-7.2496,-7.2496,-7.2496,-7.2496,-7.2496,-7.2496,-7.2496,-7.2496,-7.2496,-7.1982,-7.1211,-7.0367,-6.9559,-6.8788,-6.7944,-6.7687,-6.7687,-6.7687,-6.7687,0.0,-6.6733,-6.5925,-6.5118,-6.431,-6.3466,-6.278,-6.278,-6.278,-6.2365,-6.075,-6.0419,-5.9905,-5.8327,-5.7997,-5.776,-5.701,-5.6148,-5.5354,-5.473,-5.3308,-5.2531,-5.3124,-5.2196,-5.1922,-5.3082,-5.268,-5.2227,-5.2029,-5.1132,-4.9797,-4.8021,-4.6855,-4.5707,-4.4507,-4.5425,-4.5168,-4.3512,-4.3415,-4.2715,-4.144,-4.2233,-4.2195,-4.1485,-4.0683,-4.0236,0.0,0.0,0.0,0.0,0.0,0.0,0.0,0.0,0.0,0.0,0.0,-5.9665,-6.2243,0.0,-7.0744,-7.413,-7.8284,-8.1516,-8.2747,-8.4093,-8.5209,-8.6055,-8.5401,-8.4709,-8.4247,-8.3054,-8.2131,-8.1747,-8.1323,-8.1093,-8.1093,-8.0708,-8.0169,-7.9515,-7.8762,-7.7787,-7.6536,-7.579,-7.4809,-7.3707,-7.3303,-7.2899,-7.2496,-7.2496,-7.2496,-7.2496,-7.2496,-7.2496,-7.2496,-7.2496,-7.2496,-7.2496,-7.2496,-7.2496,-7.2459,-7.2055,-7.1394,-7.0587,-6.9779,-6.8972,-6.8238,-6.7834,-6.7687,-6.7687,-6.7687,-6.7687,-6.7504,-6.6733,-6.5925,-6.5118,-6.431,-6.3466,-6.278,-6.278,-6.278,-6.2365,-6.075,-6.0419,-5.9905,-5.8327,-5.7703,-5.7327,-5.6964,-5.5877,-5.4893,-5.4504,-5.2834,-5.1874,-5.2554,-5.2018,-5.1874,-5.2576,-5.2335,-5.2259,-5.2595,-5.1499,-4.9968,-4.8008,-4.713,-4.6462,-4.5938,-4.5988,-4.5735,-4.4998,-4.4369,-4.3758,-4.3192,-4.3548,-4.3426,-4.2922,-4.3023,-4.2771,0.0,0.0,0.0,0.0,0.0,0.0,0.0,0.0,-5.7203,-5.9742,-6.1743,-6.4282,-6.8398,-7.136,-7.4361,-7.79,-8.0631,-8.2285,-8.2285,-8.3632,-8.4593,-8.4401,-8.4401,-8.3824,-8.2439,-8.2016,-8.1554,-8.09,-8.0669,-8.0561,-8.0443,-7.9774,-7.9041,-7.8364,-7.7137,-7.6204,-7.5469,-7.4282,-7.3523,-7.323,-7.2569,-7.2202,-7.2018,-7.2018,-7.2129,-7.2275,-7.2422,-7.2496,-7.2496,-7.2496,-7.2496,-7.2496,-7.2496,-7.2422,-7.2202,-7.1541,-7.0697,-6.9779,-6.9119,-6.8385,-6.7687,-6.7687,-6.7687,-6.7687,-6.7687,-6.7687,-6.7504,-6.6549,-6.5815,-6.5081,-6.409,-6.3319,-6.278,-6.278,-6.278,-6.2315,-6.0542,-6.0188,-5.9652,-5.7923,-5.7091,-5.6616,-5.6483,-5.5289,-5.428,-5.4312,-5.2491,-5.1315,-5.185,-5.1765,-5.1741,-5.1862,-5.1922,-5.21,-5.2506,-5.1344,-4.9944,-4.8424,-4.7716,-4.7333,-4.7333,-4.6154,-4.5735,-4.6219,-4.5102,-4.4777,-4.532,-4.4824,-4.4615,-4.4615,-4.4615,-4.4248,-5.3703,-5.2856,-5.3549,-5.4934,-5.5357,-5.7203,0.0,0.0,-6.4205,-6.6744,-6.9206,-7.1091,-7.1668,-7.4476,-7.713,-7.8284,-8.0631,-8.2285,-8.2285,-8.3131,-8.3439,-8.267,-8.2593,-8.2516,-8.2324,-8.0939,-8.0054,-7.9939,-7.9246,-7.859,-7.8119,-7.7986,-7.7427,-7.6269,-7.6068,-7.5331,-7.3963,-7.3802,-7.2973,-7.1578,-7.1505,-7.1064,-7.0367,-7.0367,-7.077,-7.1439,-7.2202,-7.2496,-7.2496,-7.2496,-7.2496,-7.2496,-7.2496,-7.2055,-7.1403,-7.1329,-7.0367,-6.9009,-6.8935,-6.8385,-6.7687,-6.7687,-6.7687,-6.7687,-6.7687,-6.7687,-6.7357,-6.5852,-6.5375,-6.4934,-6.3356,-6.2879,-6.278,-6.278,-6.278,-6.2178,-5.9911,-5.9417,-5.8726,-5.6399,-5.5893,-5.5638,-5.4969,-5.4161,-5.3602,-5.3529,-5.2194,-5.1193,-5.1218,-5.0635,-5.05,-5.1138,-5.1215,-5.0957,-5.0307,-5.0018,-4.9436,-4.8525,-4.8267,-4.8196,-4.8196,-4.7497,-4.6895,-4.64,-4.5711,-4.5146,-4.4692,-4.4643,-4.4615,-4.4615,-4.4615,-4.4547,-5.8858,-5.7627,0.0,0.0,-6.1243,-6.3281,-6.7013,-6.7705,-6.8167,-7.0206,-7.186,-7.3245,-7.4245,-7.6361,-7.8246,-7.9131,-8.0977,-8.2131,-8.167,-8.19,-8.1823,-8.0939,-8.04,-8.0285,-8.0785,-8.0208,-7.9592,-7.9092,-7.8707,-7.8267,-7.774,-7.7207,-7.6373,-7.5182,-7.4684,-7.3972,-7.301,-7.2532,-7.1982,-7.1293,-7.0844,-7.044,-7.011,-7.011,-7.0293,-7.066,-7.1468,-7.1798,-7.1798,-7.1798,-7.2092,-7.2459,-7.1982,-7.1321,-7.0587,-7.0587,-6.9889,-6.8825,-6.8348,-6.7981,-6.7687,-6.7687,-6.7687,-6.7687,-6.7687,-6.7687,-6.7467,-6.6329,-6.5668,-6.5044,-6.387,-6.3172,-6.278,-6.278,-6.278,-6.2274,-6.0358,-5.961,-5.8736,-5.6787,-5.5666,-5.4969,-5.4634,-5.3992,-5.3323,-5.2808,-5.1493,-5.0695,-5.113,-5.048,-5.0118,-5.0417,-5.085,-5.0585,-4.9361,-4.9958,-4.9866,-4.8582,-4.8481,-4.825,-4.7813,-4.6819,-4.6161,-4.5865,-4.5267,-4.4852,-4.4615,-4.4615,-4.4615,-4.4615,-4.4615,-4.4615,-6.0523,0.0,0.0,-6.3128,-6.5936,-6.8436,-6.9552,-7.0475,-7.1475,-7.2937,-7.3553,-7.4284,-7.5745,-7.6976,-7.8169,-7.9246,-8.0669,-8.1477,-8.1131,-8.09,-8.0439,-7.9554,-7.8669,-7.8323,-7.8707,-7.8977,-7.8861,-7.8207,-7.7808,-7.7318,-7.6808,-7.6022,-7.5117,-7.4052,-7.3469,-7.2832,-7.2165,-7.1615,-7.1073,-7.066,-7.0036,-6.9633,-6.9449,-6.9669,-6.9889,-7.0146,-7.0954,-7.1431,-7.1651,-7.1651,-7.1835,-7.2129,-7.1513,-7.0697,-6.9779,-6.9779,-6.9265,-6.8495,-6.7907,-6.7687,-6.7687,-6.7687,-6.7687,-6.7687,-6.7687,-6.7687,-6.7504,-6.6733,-6.6072,-6.5411,-6.4347,-6.3613,-6.3099,-6.2853,-6.2618,-6.2026,-6.0456,-5.9501,-5.8416,-5.6601,-5.5362,-5.4537,-5.433,-5.3848,-5.3315,-5.2706,-5.1522,-5.0762,-5.0867,-5.0204,-4.9809,-4.9976,-5.0307,-5.007,-4.8931,-4.9957,-5.0044,-4.8687,-4.8569,-4.8257,-4.7505,-4.6228,-4.5494,-4.5494,-4.4906,-4.4615,-4.4615,-4.4615,-4.4615,-4.4615,-4.4615,-4.4615,0.0,0.0,-6.3397,-6.432,-6.7705,-7.1245,-7.2937,-7.3976,-7.4822,-7.5707,-7.5245,-7.4938,-7.5822,-7.6053,-7.663,-7.8246,-7.9285,-8.0169,-8.0977,-8.0362,-7.9515,-7.8631,-7.7823,-7.7015,-7.6207,-7.6861,-7.7361,-7.7323,-7.5999,-7.4981,-7.4433,-7.3808,-7.3209,-7.259,-7.2524,-7.2157,-7.1329,-7.1293,-7.055,-6.8972,-6.8972,-6.8531,-6.7797,-6.8568,-6.9376,-7.0146,-7.0954,-7.1762,-7.2459,-7.2459,-7.2018,-7.1329,-7.1293,-7.033,-6.8935,-6.8935,-6.8421,-6.7724,-6.7714,-6.7687,-6.7687,-6.7687,-6.7687,-6.7687,-6.7687,-6.7687,-6.7504,-6.6733,-6.6476,-6.6109,-6.4494,-6.4053,-6.3833,-6.3025,-6.2182,-6.1184,-5.9675,-5.8675,-5.7387,-5.5111,-5.4635,-5.4364,-5.3653,-5.3484,-5.3484,-5.3484,-5.2773,-5.1725,-5.0302,-4.9489,-4.9286,-4.9919,-4.9432,-4.9046,-4.8981,-4.959,-4.9609,-4.8848,-4.8674,-4.8308,-4.7641,-4.6234,-4.5494,-4.5494,-4.4906,-4.4615,-4.4615,-4.4615,-4.4615,-4.4615,-4.4615,-4.4615,0.0,0.0,-6.6436,-6.9013,-7.1552,-7.3745,-7.4899,-7.5361,-7.5476,-7.5207,-7.4014,-7.2937,-7.2668,-7.3091,-7.386,-7.5014,-7.7284,-7.9246,-8.0131,-7.9977,-7.9285,-7.7861,-7.6938,-7.5899,-7.4476,-7.563,-7.6438,-7.6438,-7.5599,-7.4886,-7.4336,-7.3723,-7.2897,-7.1725,-7.1725,-7.1321,-7.0513,-6.9963,-6.9449,-6.8898,-6.8348,-6.7944,-6.7724,-6.8531,-6.8752,-6.8531,-6.9376,-6.9853,-7.011,-7.011,-7.0257,-7.044,-6.9926,-6.9376,-6.8862,-6.8311,-6.7907,-6.7687,-6.7687,-6.7687,-6.7687,-6.7687,-6.7687,-6.7687,-6.7687,-6.7687,-6.7614,-6.7357,-6.6916,-6.6256,-6.5191,-6.4494,-6.3768,-6.2348,-6.1797,-6.1157,-5.9513,-5.8546,-5.746,-5.5687,-5.4938,-5.4363,-5.3619,-5.3518,-5.3518,-5.3518,-5.2401,-5.1217,-5.0236,-4.9458,-4.9077,-4.9316,-4.9138,-4.9018,-4.9018,-4.9597,-4.9632,-4.8868,-4.8802,-4.8469,-4.7692,-4.6357,-4.5629,-4.5629,-4.4964,-4.4615,-4.4615,-4.4615,-4.4615,-4.4615,-4.4615,-4.4615,-6.4359,-6.7167,-6.9667,-7.2783,-7.4591,-7.5784,-7.6322,-7.5976,-7.5207,-7.4053,-7.2245,-7.0475,-6.9321,-6.9321,-7.0167,-7.2245,-7.4899,-7.7438,-7.9515,-7.9515,-7.8823,-7.7438,-7.6245,-7.513,-7.4053,-7.463,-7.5148,-7.5241,-7.4994,-7.4437,-7.3613,-7.3007,-7.2113,-7.0917,-7.0881,-7.0477,-6.9669,-6.9155,-6.8752,-6.8458,-6.7944,-6.7687,-6.7724,-6.8238,-6.8348,-6.8164,-6.8678,-6.9082,-6.9339,-6.9339,-6.9449,-6.9633,-6.9119,-6.8715,-6.8421,-6.7871,-6.7687,-6.7687,-6.7687,-6.7687,-6.7687,-6.7687,-6.7687,-6.7687,-6.7687,-6.7687,-6.7687,-6.7687,-6.732,-6.6733,-6.5925,-6.5118,-6.4119,-6.2449,-6.1587,-6.082,-5.941,-5.8495,-5.7569,-5.633,-5.5513,-5.4769,-5.4025,-5.3687,-5.3518,-5.3518,-5.2435,-5.1352,-5.0574,-4.9864,-4.9289,-4.9052,-4.9018,-4.9018,-4.9018,-4.9605,-4.9683,-4.8918,-4.8894,-4.8571,-4.7786,-4.6708,-4.6075,-4.6075,-4.5635,-4.5393,-4.5393,-4.5393,-4.5393,-4.5393,-4.5393,-4.5393,-6.6628,-6.9821,-7.3014,-7.5515,-7.6707,-7.7284,-7.7246,-7.5861,-7.4091,-7.236,-6.9898,-6.7513,0.0,0.0,-6.5782,-6.9975,-7.2283,-7.5014,-7.9092,-7.9015,-7.8207,-7.7323,-7.5784,-7.4745,-7.4668,-7.4014,-7.3645,-7.3832,-7.4058,-7.3598,-7.2298,-7.1589,-7.0881,-7.0073,-7.0036,-6.9633,-6.8862,-6.8862,-6.8458,-6.7687,-6.7687,-6.7687,-6.7687,-6.7687,-6.8128,-6.8862,-6.8862,-6.9265,-6.9963,-6.9963,-6.9522,-6.8862,-6.8862,-6.8385,-6.7687,-6.7687,-6.7687,-6.7687,-6.7687,-6.7687,-6.7687,-6.7687,-6.7687,-6.7687,-6.7687,-6.7687,-6.7687,-6.7687,-6.7687,-6.7504,-6.6643,-6.5836,-6.4809,-6.3096,-6.145,-6.0086,-5.9211,-5.8458,-5.7679,-5.6934,-5.619,-5.5446,-5.4702,-5.3991,-5.3518,-5.3518,-5.2841,-5.2097,-5.1352,-5.0608,-4.9864,-4.9154,-4.9052,-4.9052,-4.9018,-4.9576,-4.9664,-4.9015,-4.8953,-4.8627,-4.797,-4.7259,-4.6853,-4.6853,-4.6819,-4.6786,-4.6786,-4.6786,-4.6786,-4.6786,-4.6786,-4.6786,-6.9706,-7.2899,-7.5476,-7.74,-7.7592,-7.713,-7.6476,-7.4514,-7.2168,-6.986,-6.582,-6.2397,0.0,0.0,0.0,-6.659,-7.1245,0.0,-7.7592,-7.8823,0.0,-7.6592,-7.5938,-7.5168,-7.3937,-7.4168,-7.4057,-7.3318,-7.2755,-7.2531,-7.2777,-7.1287,-7.0036,-6.9229,-6.9229,-6.8825,-6.8017,-6.8017,-6.7907,-6.7687,-6.7687,-6.7687,-6.7687,-6.7687,-6.7797,-6.8017,-6.8017,-6.8128,-6.8311,-6.8311,-6.8164,-6.8017,-6.8017,-6.7871,-6.7687,-6.7687,-6.7687,-6.7687,-6.7687,-6.7687,-6.7687,-6.7687,-6.7687,-6.7687,-6.7687,-6.7687,-6.7687,-6.7687,-6.7687,-6.7359,-6.5828,-6.4916,-6.374,-6.1488,-6.0165,-5.9211,-5.8388,-5.8029,-5.7679,-5.6934,-5.575,-5.4803,-5.4634,-5.3991,-5.3518,-5.3518,-5.3348,-5.2909,-5.2131,-5.1386,-5.0642,-4.9898,-4.983,-4.9593,-4.9052,-4.9168,-4.9165,-4.9018,-4.8965,-4.8893,-4.8714,-4.8003,-4.7631,-4.7631,-4.709,-4.6786,-4.6786,-4.6786,-4.6786,-4.6786,-4.6786,-4.6786,-7.2668,-7.5438,-7.7323,-7.8246,-7.79,-7.6669,-7.4284,-7.1783,-6.8821,-6.482,-6.1089,0.0,-5.6472,-5.7473,-5.9819,0.0,0.0,0.0,-7.6322,-7.7861,-7.8169,0.0,-7.6245,-7.563,-7.4707,-7.4668,-7.4472,-7.3951,-7.2931,-7.2153,-7.1736,-7.0349,-6.9192,-6.8385,-6.8385,-6.8164,-6.7687,-6.7687,-6.7687,-6.7687,-6.7687,-6.7687,-6.7687,-6.7687,-6.7687,-6.7687,-6.7687,-6.7687,-6.7687,-6.7687,-6.7687,-6.7687,-6.7687,-6.7687,-6.7687,-6.7687,-6.7687,-6.7687,-6.7687,-6.7687,-6.7687,-6.7687,-6.7687,-6.7687,-6.7687,-6.7687,-6.7687,-6.7687,-6.7687,-6.7378,-6.6033,-6.4845,-6.3454,-6.1321,-5.9942,-5.8875,-5.8065,-5.7881,-5.7679,-5.6934,-5.6122,-5.5344,-5.4702,-5.4262,-5.3856,-5.3551,-5.3518,-5.3348,-5.2875,-5.2164,-5.142,-5.0676,-5.0574,-5.027,-4.956,-4.9492,-4.9357,-4.9018,-4.9018,-4.9018,-4.9018,-4.8612,-4.8376,-4.8376,-4.797,-4.7767,-4.7767,-4.7767,-4.7767,-4.7767,-4.7767,-4.7767,-7.5284,-7.74,-7.8669,-7.8669,-7.79,-7.6015,-7.1706,-6.8513,-6.482,-5.9127,0.0,-5.4203,-5.2125,-5.3741,-5.6857,-6.137,0.0,-7.1014,-7.5245,-7.6592,-7.713,-7.713,-7.6476,-7.6015,-7.6015,-7.5322,-7.4896,-7.4998,-7.3641,-7.2056,-7.0293,-6.9284,-6.8421,-6.7724,-6.7687,-6.7687,-6.7687,-6.7687,-6.7687,-6.7687,-6.7687,-6.7687,-6.7687,-6.7687,-6.7687,-6.7687,-6.7687,-6.7687,-6.7687,-6.7687,-6.7687,-6.7687,-6.7687,-6.7687,-6.7687,-6.7687,-6.7687,-6.7687,-6.7687,-6.7687,-6.7687,-6.7687,-6.7687,-6.7687,-6.7687,-6.7687,-6.7687,-6.7542,-6.7515,-6.7286,-6.6277,-6.495,-6.3438,-6.1848,-6.0255,-5.8909,-5.8199,-5.7949,-5.7712,-5.707,-5.6867,-5.6393,-5.5108,-5.4803,-5.4499,-5.3754,-5.3653,-5.3619,-5.3518,-5.2875,-5.2164,-5.1454,-5.1352,-5.1048,-5.0304,-5.0236,-4.9965,-4.9323,-4.9187,-4.9154,-4.9154,-4.9052,-4.9018,-4.9018,-4.9018,-4.9018,-4.9018,-4.9018,-4.9018,-4.9018,-4.9018,-4.9018,-7.6515,-7.8284,-7.9592,-7.9592,-7.79,-7.513,-7.086,-6.632,0.0,0.0,-5.3126,-5.0587,-5.0856,-5.2395,-5.5472,-6.1177,0.0,-7.009,-7.4322,-7.5668,-7.6245,0.0,-7.6092,-7.6015,-7.6015,-7.5861,-7.5398,-7.4527,-7.2906,-7.1658,-7.0909,-6.8989,-6.7834,-6.7687,-6.7687,-6.7687,-6.7687,-6.7687,-6.7687,-6.7687,-6.7687,-6.7687,-6.7687,-6.7687,-6.7687,-6.7687,-6.7687,-6.7687,-6.7687,-6.7687,-6.7687,-6.7687,-6.7687,-6.7687,-6.7687,-6.7687,-6.7687,-6.7687,-6.7687,-6.7687,-6.7687,-6.7687,-6.7687,-6.7687,-6.7687,-6.7687,-6.7542,-6.6823,-6.6612,-6.6247,-6.4599,-6.352,-6.2614,-6.1596,-6.0174,-5.8979,-5.8866,-5.8321,-5.7848,-5.7712,-5.7205,-5.6731,-5.6461,-5.5919,-5.5277,-5.4499,-5.4397,-5.4194,-5.3585,-5.3382,-5.2976,-5.2198,-5.2131,-5.1826,-5.1082,-5.1014,-5.098,-5.0845,-5.0236,-4.9898,-4.9898,-4.9323,-4.9018,-4.9018,-4.9018,-4.9018,-4.9018,-4.9018,-4.9018,-4.9018,-4.9018,-4.9018,-7.7323,-7.8823,-7.9708,-7.9246,-7.6899,-7.3129,-6.709,0.0,0.0,0.0,0.0,-4.8086,-4.8057,0.0,0.0,0.0,0.0,0.0,0.0,-7.2168,0.0,-7.5745,-7.6015,-7.6015,-7.6015,-7.5718,-7.5183,-7.4358,-7.2485,-7.1149,-7.0565,-6.8746,-6.7687,-6.7687,-6.7687,-6.7687,-6.7687,-6.7687,-6.7687,-6.7687,-6.7687,-6.7687,-6.7687,-6.7687,-6.7687,-6.7724,-6.8128,-6.8091,-6.7724,-6.8128,-6.8091,-6.7687,-6.7687,-6.7687,-6.7687,-6.7687,-6.7687,-6.7687,-6.7687,-6.7687,-6.7687,-6.7687,-6.7687,-6.7687,-6.7687,-6.7687,-6.7515,-6.6641,-6.6404,-6.6002,-6.4183,-6.313,-6.2361,-6.1495,-6.0419,-5.9471,-5.9099,-5.8727,-5.8355,-5.7949,-5.7611,-5.7239,-5.6867,-5.6528,-5.6021,-5.5277,-5.5175,-5.4905,-5.416,-5.4059,-5.3788,-5.301,-5.2909,-5.2604,-5.186,-5.1792,-5.1623,-5.1219,-5.0879,-5.0676,-5.0676,-5.0338,-5.0168,-5.0168,-5.0168,-5.0168,-5.0168,-5.0168,-5.0168,-5.0135,-4.9763,-4.956,-7.7861,-7.9285,-7.9823,-7.8746,-7.5822,-7.1283,-6.3794,-5.9177,0.0,0.0,-4.674,-4.6471,-4.597,0.0,0.0,0.0,0.0,0.0,0.0,0.0,-7.1206,0.0,-7.5899,0.0,-7.5818,-7.5396,-7.4809,-7.4072,-7.1986,-7.0399,-6.9651,-6.8385,-6.7687,-6.7687,-6.7687,-6.7687,-6.7687,-6.7687,-6.7687,-6.7687,-6.7687,-6.7687,-6.7687,-6.7687,-6.7797,-6.7981,-6.8458,-6.8385,-6.7981,-6.8458,-6.8274,-6.7687,-6.7687,-6.7687,-6.7687,-6.7687,-6.7687,-6.7687,-6.7687,-6.7687,-6.7687,-6.7687,-6.7687,-6.7687,-6.7687,-6.7542,-6.723,-6.6338,-6.5971,-6.5462,-6.3863,-6.3013,-6.2348,-6.149,-6.0825,-6.0148,-5.9404,-5.9268,-5.9066,-5.849,-5.822,-5.7949,-5.7374,-5.7137,-5.6799,-5.6055,-5.5953,-5.5683,-5.4938,-5.4837,-5.46,-5.4025,-5.3687,-5.3247,-5.2604,-5.257,-5.2334,-5.1758,-5.1555,-5.1454,-5.1454,-5.1252,-5.1185,-5.1185,-5.1185,-5.1185,-5.1185,-5.1185,-5.1185,-5.1217,-5.0608,-5.0338,-7.8015,-7.9708,-8.0592,-7.89,-7.5361,-7.0514,-6.3678,0.0,0.0,-4.7971,-4.6278,-4.5932,-4.6663,0.0,0.0,0.0,0.0,0.0,0.0,0.0,0.0,-7.4399,0.0,0.0,-7.5254,-7.5127,-7.4543,-7.322,-7.1064,-6.9261,-6.7998,-6.776,-6.7687,-6.7687,-6.7687,-6.7687,-6.7687,-6.7687,-6.7687,-6.7687,-6.7687,-6.7687,-6.7687,-6.7687,-6.8091,-6.8752,-6.8091,-6.8164,-6.8752,-6.8091,-6.776,-6.7687,-6.7687,-6.7687,-6.7687,-6.7687,-6.7687,-6.7687,-6.7687,-6.7687,-6.7687,-6.7687,-6.7687,-6.7687,-6.7687,-6.7146,-6.6307,-6.5394,-6.4564,-6.3719,-6.274,-6.2469,-6.2227,-6.1506,-6.1231,-6.096,-6.0182,-6.0013,-5.9979,-5.9911,-5.937,-5.8896,-5.8829,-5.8254,-5.7543,-5.6799,-5.6697,-5.6427,-5.5716,-5.5615,-5.5581,-5.5513,-5.4296,-5.3484,-5.3416,-5.3382,-5.3382,-5.3281,-5.2604,-5.2198,-5.2198,-5.1555,-5.1185,-5.1185,-5.1185,-5.1185,-5.1185,-5.1185,-5.1185,-5.1185,-5.1117,-5.1083,-7.6899,-7.9015,-8.0015,-7.8784,-7.4938,-6.9629,-6.2858,0.0,-5.2279,-4.7163,-4.5825,-4.571,-4.6047,-4.6394,0.0,0.0,0.0,0.0,0.0,0.0,0.0,-7.047,-7.1909,-7.3025,-7.45,-7.4299,-7.3489,-7.2098,-7.0258,-6.8973,-6.8448,-6.7944,-6.7687,-6.7687,-6.7687,-6.7687,-6.7687,-6.8164,-6.8164,-6.7714,-6.8201,-6.8421,-6.8421,-6.8421,-6.8862,-6.9596,-6.9265,-6.9339,-6.9559,-6.8752,-6.8421,-6.8385,-6.7871,-6.7687,-6.7687,-6.7687,-6.7687,-6.7687,-6.7687,-6.7687,-6.7596,-6.7089,-6.691,-6.691,-6.691,-6.6277,-6.5361,-6.4461,-6.3971,-6.3535,-6.262,-6.2381,-6.2313,-6.2009,-6.1941,-6.1738,-6.0994,-6.0825,-6.0689,-6.0182,-5.9877,-5.9674,-5.9674,-5.9066,-5.8457,-5.8186,-5.7746,-5.7205,-5.6461,-5.6359,-5.619,-5.5749,-5.5175,-5.4837,-5.4837,-5.4431,-5.416,-5.416,-5.345,-5.301,-5.301,-5.2739,-5.2604,-5.2604,-5.2604,-5.2604,-5.2604,-5.2604,-5.2604,-5.257,-5.2097,-5.186,-7.5284,-7.7784,-7.8861,-7.7977,-7.413,-6.8783,0.0,0.0,-5.1741,-4.6672,-4.5594,-4.5594,-4.5594,-4.5594,-4.6056,0.0,0.0,0.0,0.0,0.0,0.0,0.0,0.0,-7.0053,-7.2768,-7.2989,-7.2559,-7.1608,-7.0042,-6.9231,-6.9489,-6.8787,-6.8274,-6.8054,-6.8054,-6.8164,-6.8385,-6.8972,-6.8862,-6.8054,-6.8641,-6.8898,-6.8898,-6.8898,-6.9339,-7.0073,-6.9853,-6.9889,-7.0,-6.8972,-6.8678,-6.8825,-6.8017,-6.7687,-6.7687,-6.7687,-6.7687,-6.7687,-6.7687,-6.7515,-6.7202,-6.6582,-6.6033,-6.559,-6.559,-6.5133,-6.4495,-6.3864,-6.3501,-6.3199,-6.2542,-6.2381,-6.2381,-6.2381,-6.2381,-6.2245,-6.1738,-6.1637,-6.1467,-6.0892,-6.0588,-6.0452,-6.0452,-5.9844,-5.9336,-5.9336,-5.8693,-5.8051,-5.7509,-5.7273,-5.6934,-5.6427,-5.6359,-5.619,-5.575,-5.5243,-5.4938,-5.4938,-5.4431,-5.416,-5.416,-5.416,-5.416,-5.416,-5.3957,-5.3822,-5.3822,-5.3619,-5.3518,-5.3484,-5.2909,-5.2672,-7.336,-7.6015,-7.713,-7.6245,-7.2822,-6.7936,0.0,-5.6242,-5.1741,-4.6672,-4.5594,-4.5594,-4.5594,-4.5594,-4.5893,0.0,0.0,0.0,0.0,0.0,0.0,0.0,-6.5714,-6.742,-6.9891,-7.1141,-7.1883,-7.2087,-7.061,-7.0052,-7.0846,-7.0381,-6.9706,-6.8898,-6.8898,-6.9265,-7.0073,-7.0073,-6.9669,-6.8898,-6.8898,-6.8898,-6.8898,-6.8898,-6.9339,-7.0073,-6.9265,-6.9376,-6.9963,-6.8348,-6.8164,-6.8825,-6.8017,-6.7687,-6.7687,-6.7687,-6.7687,-6.7687,-6.7687,-6.7146,-6.6404,-6.6404,-6.5202,-6.3719,-6.3719,-6.3719,-6.3719,-6.3719,-6.3087,-6.242,-6.2381,-6.2381,-6.2381,-6.2381,-6.2381,-6.2381,-6.2381,-6.2381,-6.2381,-6.2381,-6.1772,-6.1298,-6.1298,-6.0622,-6.008,-6.008,-5.9471,-5.8998,-5.8998,-5.8355,-5.7881,-5.7881,-5.7881,-5.7273,-5.5817,-5.5681,-5.5716,-5.5716,-5.5647,-5.5647,-5.5647,-5.5647,-5.5647,-5.5647,-5.4972,-5.4566,-5.4566,-5.3856,-5.3518,-5.3518,-5.3484,-5.3484,-6.6013,-6.859,-6.9975,-6.8552,-6.632,-6.3012,-5.7357,-5.4126,-5.1048,-4.6518,-4.5594,-4.5594,-4.5594,-4.5594,-4.6479,-4.9048,0.0,0.0,0.0,0.0,0.0,-6.2806,-6.7392,-7.0833,-7.2245,-7.1827,-7.1884,-7.2919,-7.1135,-7.0327,-7.1138,-7.0478,-6.9963,-6.9743,-6.9706,-6.9853,-7.011,-7.066,-7.0513,-6.9743,-7.0293,-7.0522,-7.0522,-7.0522,-7.0991,-7.1651,-7.0293,-7.0183,-7.077,-6.8568,-6.8164,-6.8825,-6.8017,-6.7687,-6.7687,-6.7687,-6.7687,-6.7596,-6.6996,-6.6612,-6.6186,-6.497,-6.4183,-6.3574,-6.2973,-6.2817,-6.2817,-6.2817,-6.262,-6.2381,-6.2381,-6.2381,-6.2381,-6.2381,-6.2381,-6.2381,-6.2381,-6.2381,-6.2381,-6.2381,-6.2212,-6.2042,-6.2042,-6.1434,-6.0926,-6.0926,-6.025,-5.9742,-5.9742,-5.9539,-5.9404,-5.9404,-5.8964,-5.8254,-5.7273,-5.6731,-5.6461,-5.6461,-5.5987,-5.5681,-5.5681,-5.5681,-5.5681,-5.5681,-5.548,-5.5344,-5.5344,-5.5141,-5.5006,-5.5006,-5.5006,-5.4735,-6.0742,-6.3512,-6.4936,-6.3935,-6.2166,-5.9511,-5.5011,-5.2433,-4.9933,-4.6326,-4.5594,-4.5594,-4.5594,-4.5514,-4.6139,-4.8423,0.0,0.0,0.0,0.0,0.0,-6.2004,-6.7616,-7.1335,-7.1661,-7.1858,-7.2255,-7.3003,-7.1526,-7.0917,-7.1725,-7.1284,-7.0991,-7.0991,-7.0697,-7.0697,-7.0991,-7.1505,-7.1358,-7.055,-7.1064,-7.1293,-7.1293,-7.1293,-7.1578,-7.1982,-7.066,-7.0367,0.0,-6.8568,-6.8164,-6.8825,-6.8017,-6.7687,-6.7687,-6.7687,-6.7488,-6.7146,-6.6582,-6.5971,-6.5202,-6.4042,-6.3498,-6.3124,-6.2542,-6.2381,-6.2381,-6.2381,-6.2381,-6.2381,-6.2381,-6.2381,-6.2381,-6.2381,-6.2381,-6.2381,-6.2381,-6.2381,-6.2381,-6.2381,-6.2381,-6.2381,-6.2381,-6.2009,-6.1704,-6.1704,-6.1061,-6.0554,-6.0554,-6.0283,-6.0114,-6.0114,-5.9708,-5.9235,-5.8761,-5.778,-5.7205,-5.7205,-5.6799,-5.6528,-5.6528,-5.6528,-5.6528,-5.6528,-5.6258,-5.6122,-5.6122,-5.5852,-5.5681,-5.5681,-5.5681,-5.5446,0.0,-5.9935,-6.1254,-6.1139,-5.9358,-5.6819,-5.351,-5.0971,0.0,-4.6095,-4.5594,-4.5633,-4.5748,-4.5418,-4.5326,-4.5935,0.0,0.0,0.0,-5.4179,-5.7504,-6.2379,-6.7089,-6.9763,-6.9336,-7.1536,-7.2838,-7.2556,-7.1827,-7.1725,-7.2459,-7.2459,-7.2422,-7.2422,-7.1651,-7.1651,-7.2496,-7.2496,-7.2129,-7.1366,-7.1366,-7.1366,-7.1366,-7.1366,-7.1366,-7.1329,-7.055,-7.0146,-6.9963,-6.8421,-6.8201,-6.8752,-6.7981,-6.7687,-6.7687,-6.7633,-6.7117,-6.6374,-6.6247,-6.5136,-6.3683,-6.361,-6.3049,-6.2381,-6.2381,-6.2381,-6.2381,-6.2381,-6.2381,-6.2381,-6.2381,-6.2381,-6.2381,-6.2381,-6.2381,-6.2381,-6.2381,-6.2381,-6.2381,-6.2381,-6.2381,-6.2381,-6.2381,-6.2381,-6.2381,-6.2381,-6.1806,-6.1366,-6.1366,-6.0723,-6.025,-6.025,-6.0216,-6.0182,-6.0182,-5.8863,-5.8051,-5.8051,-5.8017,-5.7983,-5.7983,-5.7915,-5.7881,-5.7881,-5.7239,-5.6867,-5.6867,-5.619,-5.5886,-5.5886,-5.5886,-5.5852,-4.9433,0.0,-5.3059,-5.1702,-5.1433,-5.0933,0.0,-4.8394,0.0,0.0,0.0,0.0,0.0,0.0,0.0,-4.9855,0.0,-5.1393,-5.3926,-5.9192,-6.4388,-6.8657,-7.0991,-7.2439,-7.2996,-7.2806,-7.2775,-7.3135,-7.2614,-7.2312,-7.2496,-7.1945,-7.1578,-7.1578,-7.0807,-7.1064,-7.2496,-7.2496,-7.2422,-7.2239,-7.2239,-7.2239,-7.2239,-7.2239,-7.2239,-7.2165,-7.1394,-7.066,-7.0,-6.9045,-6.8385,-6.7944,-6.776,-6.7687,-6.7633,-6.6939,-6.6582,-6.6186,-6.4836,-6.4042,-6.3574,-6.2931,-6.2542,-6.2381,-6.2381,-6.2381,-6.2381,-6.2381,-6.2381,-6.2381,-6.2381,-6.2381,-6.2381,-6.2381,-6.2381,-6.2381,-6.2381,-6.2381,-6.2381,-6.2381,-6.2381,-6.2381,-6.2381,-6.2381,-6.2381,-6.2381,-6.2245,-6.2144,-6.2144,-6.1975,-6.1839,-6.1839,-6.1366,-6.1028,-6.1028,-6.0148,-5.9573,-5.9573,-5.9066,-5.8761,-5.8761,-5.8186,-5.7881,-5.7881,-5.7712,-5.7645,-5.7645,-5.7476,-5.7374,-5.7374,-5.7374,-5.707,-4.6317,-4.8471,-5.0481,-4.951,-4.9356,-4.9163,0.0,0.0,0.0,0.0,0.0,0.0,0.0,0.0,0.0,0.0,-5.0557,-5.2494,-5.6602,-6.1902,-6.6688,-7.0206,-7.2029,-7.322,-7.3836,-7.3327,-7.2916,-7.2997,-7.2686,-7.2349,-7.1982,-7.1541,-7.1138,-7.077,-7.033,-7.0513,-7.1394,-7.1394,-7.1394,-7.1394,-7.1762,-7.1945,-7.1982,-7.2349,-7.2312,-7.1908,-7.1101,-7.0293,-6.9486,-6.8678,-6.8091,-6.7687,-6.7687,-6.746,-6.7061,-6.6553,-6.5842,-6.5037,-6.4042,-6.3462,-6.3011,-6.2542,-6.2381,-6.2381,-6.2381,-6.2381,-6.2381,-6.2381,-6.2381,-6.2381,-6.2381,-6.2381,-6.2381,-6.2381,-6.2381,-6.2381,-6.2381,-6.2381,-6.2381,-6.2381,-6.2381,-6.2381,-6.2381,-6.2381,-6.2381,-6.2381,-6.2381,-6.2381,-6.2381,-6.2381,-6.2381,-6.2381,-6.2042,-6.1806,-6.1806,-6.14,-6.0858,-6.0148,-5.9742,-5.9505,-5.9505,-5.9133,-5.8896,-5.8896,-5.8592,-5.8389,-5.8389,-5.8051,-5.7881,-5.7881,-5.7881,-5.7679,-4.6056,-4.848,-5.075,-5.0096,-4.9548,-4.9125,0.0,0.0,0.0,0.0,0.0,0.0,0.0,0.0,0.0,0.0,-5.0523,-5.4079,-5.9976,-6.3831,-6.7146,-7.0076,-7.1967,-7.3146,-7.3392,-7.3315,-7.3003,-7.2369,-7.2312,-7.1982,-7.1174,-7.1027,-7.0624,-6.9926,-6.9779,-6.9706,-6.9706,-6.9963,-7.011,-7.011,-7.0807,-7.1138,-7.1138,-7.1835,-7.1762,-7.1101,-7.0403,-6.9633,-6.8862,-6.8164,-6.7797,-6.7687,-6.7687,-6.7174,-6.6404,-6.6217,-6.5101,-6.3683,-6.3537,-6.3011,-6.2381,-6.2381,-6.2381,-6.2381,-6.2381,-6.2381,-6.2381,-6.2381,-6.2381,-6.2381,-6.2381,-6.2381,-6.2381,-6.2381,-6.2381,-6.2381,-6.2381,-6.2381,-6.2381,-6.2381,-6.2381,-6.2381,-6.2381,-6.2381,-6.2381,-6.2381,-6.2381,-6.2381,-6.2381,-6.2381,-6.2415,-6.255,-6.2448,-6.2448,-6.255,-6.2448,-6.1839,-6.052,-6.0351,-6.0216,-6.0114,-6.0114,-6.0114,-6.0114,-5.9505,-5.9167,-5.9167,-5.8524,-5.822,-5.822,-5.822,-5.822,-4.824,-5.024,-5.0856,-4.7287,-4.7355,-4.7932,0.0,0.0,0.0,0.0,0.0,0.0,0.0,0.0,-4.958,0.0,-5.5993,-5.9726,-6.4702,-6.6927,-6.9332,-7.2852,-7.3304,-7.3367,-7.3417,-7.2943,-7.2316,-7.1541,-7.1505,-7.1138,-7.033,-6.9633,-6.9229,-6.9082,-6.8421,-6.8054,-6.8054,-6.9412,-7.011,-7.011,-7.022,-7.0293,-7.0293,-7.0403,-7.0403,-7.0293,-7.0146,-6.9633,-6.8898,-6.8788,-6.8311,-6.7687,-6.7687,-6.7174,-6.6277,-6.5522,-6.4564,-6.3574,-6.2855,-6.2537,-6.2381,-6.2381,-6.2381,-6.2381,-6.2381,-6.2381,-6.2381,-6.2381,-6.2381,-6.2381,-6.2381,-6.2381,-6.2381,-6.2381,-6.2381,-6.2381,-6.2381,-6.2381,-6.2381,-6.2381,-6.2381,-6.2381,-6.2381,-6.2381,-6.2381,-6.2381,-6.2381,-6.2381,-6.2381,-6.2381,-6.2618,-6.326,-6.2753,-6.2651,-6.3294,-6.2753,-6.2279,-6.2042,-6.1467,-6.0825,-6.0148,-6.0114,-6.0114,-6.0114,-5.9979,-5.9945,-5.9945,-5.981,-5.9742,-5.9742,-5.9742,-5.9742,-4.7018,-4.8586,-4.951,-4.8009,-4.9625,-5.1241,0.0,0.0,0.0,0.0,0.0,0.0,0.0,0.0,-5.2908,-5.713,-5.9722,-6.2411,-6.5945,-6.7773,-6.9781,-7.2633,-7.292,-7.3013,-7.3366,-7.2465,-7.1725,-7.1329,-7.0917,-7.0293,-6.9486,-6.9119,-6.8715,-6.8274,-6.7871,-6.7687,-6.7687,-6.8421,-6.8788,-6.8788,-6.9229,-6.9449,-6.9486,-6.9889,-6.9853,-6.9486,-6.9926,-6.9633,-6.8898,-6.8898,-6.8678,-6.8311,-6.7871,-6.6845,-6.5458,-6.4113,-6.3351,-6.2969,-6.2537,-6.2381,-6.2381,-6.2381,-6.2381,-6.2381,-6.2381,-6.2381,-6.2381,-6.2381,-6.2381,-6.2381,-6.2381,-6.2381,-6.2381,-6.2381,-6.2381,-6.2381,-6.2381,-6.2381,-6.2381,-6.2381,-6.2381,-6.2381,-6.2381,-6.2381,-6.2381,-6.2381,-6.2381,-6.2381,-6.2381,-6.2381,-6.2685,-6.3429,-6.3193,-6.3125,-6.3497,-6.3193,-6.2821,-6.2415,-6.2076,-6.1738,-6.1366,-6.1332,-6.1332,-6.1332,-6.096,-6.0757,-6.0757,-6.0317,-6.0114,-6.0114,-6.0114,-6.0114,-4.6672,-4.7586,-4.8663,0.0,0.0,0.0,0.0,0.0,0.0,0.0,0.0,0.0,0.0,-5.3366,-5.6829,-6.066,-6.2954,-6.5066,-6.7241,-6.8676,-7.02,-7.2261,-7.2465,-7.2613,-7.2886,-7.195,-7.1109,-7.077,-7.0183,-6.9486,-6.8678,-6.8605,-6.8348,-6.7724,-6.7687,-6.7687,-6.7687,-6.7687,-6.7687,-6.7714,-6.8311,-6.8605,-6.8641,-6.9265,-6.9192,-6.8678,-6.9486,-6.9486,-6.8898,-6.8898,-6.8898,-6.8825,-6.8017,-6.6605,-6.4799,-6.3049,-6.2381,-6.2381,-6.2381,-6.2381,-6.2381,-6.2381,-6.2381,-6.2415,-6.2618,-6.2651,-6.2685,-6.2854,-6.2922,-6.2821,-6.2482,-6.2381,-6.2381,-6.2381,-6.2381,-6.2381,-6.2381,-6.2381,-6.2381,-6.2381,-6.2381,-6.2381,-6.2381,-6.2381,-6.2381,-6.2381,-6.2381,-6.2381,-6.2381,-6.2381,-6.2685,-6.3429,-6.3362,-6.326,-6.326,-6.326,-6.299,-6.2415,-6.2381,-6.2381,-6.2381,-6.2381,-6.2381,-6.2381,-6.1839,-6.1569,-6.1569,-6.0926,-6.0622,-6.0622,-6.0622,-6.0622,-4.9904,-4.9817,-4.9702,-5.1308,0.0,0.0,0.0,0.0,0.0,0.0,0.0,0.0,0.0,-5.8016,-6.1386,-6.3035,-6.6373,-6.9203,-7.0472,-7.0951,-7.1674,-7.3129,-7.2834,-7.2231,-7.1524,-7.1386,-7.0669,-6.9192,-6.9009,-6.8641,-6.7834,-6.7797,-6.7787,-6.7687,-6.7687,-6.7687,-6.7687,-6.7687,-6.7687,-6.7687,-6.7787,-6.7797,-6.7797,-6.7834,-6.7834,-6.7834,-6.8641,-6.8972,-6.8898,-6.8898,-6.8898,-6.8825,-6.8017,-6.6605,-6.4799,-6.3049,-6.2381,-6.2381,-6.2381,-6.2381,-6.2381,-6.2381,-6.2381,-6.2516,-6.3226,-6.3429,-6.3565,-6.4241,-6.4444,-6.414,-6.2753,-6.2381,-6.2381,-6.2381,-6.2381,-6.2381,-6.2381,-6.2381,-6.2381,-6.2381,-6.2381,-6.2381,-6.2381,-6.2381,-6.2381,-6.2381,-6.2381,-6.2381,-6.2381,-6.2381,-6.2685,-6.3429,-6.2888,-6.2482,-6.2482,-6.2482,-6.2448,-6.2381,-6.2381,-6.2381,-6.2381,-6.2381,-6.2381,-6.2381,-6.2347,-6.2313,-6.2313,-6.2245,-6.2212,-6.2212,-6.2212,-6.2212,-4.8163,-4.8856,-4.9817,0.0,0.0,0.0,0.0,0.0,0.0,0.0,-6.0187,0.0,0.0,0.0,-6.213,-6.4018,-6.7378,-6.9927,-7.0386,-7.1379,-7.2242,-7.2779,-7.2188,-7.1651,-7.1329,-7.0403,-6.9559,-6.8972,-6.8458,-6.8017,-6.7724,-6.7687,-6.7687,-6.7687,-6.7687,-6.7687,-6.7687,-6.7687,-6.7687,-6.7687,-6.7687,-6.7687,-6.7687,-6.7687,-6.7687,-6.776,-6.9082,-6.9633,-6.9633,-6.9633,-6.9926,-7.0144,-6.7716,-6.5723,-6.4042,-6.2855,-6.2381,-6.2381,-6.2381,-6.2381,-6.2482,-6.2922,-6.3091,-6.3226,-6.3971,-6.4174,-6.4241,-6.4512,-6.4613,-6.4478,-6.3903,-6.3768,-6.3768,-6.3768,-6.3768,-6.3768,-6.3768,-6.3768,-6.3768,-6.3768,-6.3768,-6.3768,-6.3768,-6.3768,-6.3599,-6.3159,-6.3091,-6.2922,-6.2448,-6.2381,-6.2685,-6.3429,-6.3666,-6.3565,-6.3125,-6.3091,-6.2888,-6.2415,-6.2381,-6.2381,-6.2381,-6.2381,-6.2381,-6.2381,-6.2381,-6.2381,-6.2381,-6.2381,-6.2381,-6.2381,-6.2381,-6.2381,-4.7405,-4.7828,-4.8882,0.0,0.0,0.0,0.0,0.0,0.0,0.0,-6.4436,-6.3139,-6.2834,0.0,-6.296,-6.4999,-6.8158,-7.0467,-7.0798,-7.1798,-7.2422,-7.2165,-7.1651,-7.1073,-7.0587,-6.9559,-6.8788,-6.8531,-6.8017,-6.7687,-6.7687,-6.7687,-6.7687,-6.7687,-6.7687,-6.7687,-6.7687,-6.7687,-6.7687,-6.7687,-6.7687,-6.7687,-6.7687,-6.7687,-6.7687,-6.7787,-6.9376,-7.011,-7.011,-7.0367,-7.0482,-7.0178,-6.7296,-6.5268,-6.3919,-6.3076,-6.2584,-6.2381,-6.2381,-6.255,-6.2821,-6.3362,-6.3666,-6.4005,-6.4715,-6.4952,-6.4986,-6.5222,-6.529,-6.529,-6.529,-6.4952,-6.4613,-6.4613,-6.4613,-6.4613,-6.4613,-6.4613,-6.4613,-6.4613,-6.4613,-6.4613,-6.4613,-6.4613,-6.4444,-6.3937,-6.3869,-6.3666,-6.3159,-6.2888,-6.2854,-6.3125,-6.3599,-6.37,-6.3193,-6.3159,-6.2956,-6.2415,-6.2381,-6.2381,-6.2381,-6.2381,-6.2516,-6.2753,-6.2753,-6.2854,-6.3091,-6.2854,-6.2753,-6.2753,-6.2753,-6.2753,-4.8433,-4.7228,0.0,0.0,0.0,0.0,0.0,0.0,0.0,0.0,0.0,-6.4519,-6.4444,-6.4056,-6.4353,-6.6202,-6.8962,-7.1253,-7.2324,-7.2459,-7.2202,-7.1366,-7.1256,-7.0632,-6.9045,-6.8898,-6.8568,-6.7787,-6.7687,-6.7687,-6.7687,-6.7687,-6.7687,-6.7687,-6.7687,-6.7687,-6.7687,-6.7687,-6.7687,-6.7687,-6.7687,-6.7687,-6.7687,-6.7687,-6.7687,-6.7787,-6.9376,-7.011,-7.0146,-7.0991,-7.0281,-6.8553,-6.6787,-6.5584,-6.468,-6.3786,-6.3024,-6.2381,-6.2415,-6.2888,-6.3531,-6.3531,-6.4038,-6.4749,-6.5493,-6.5696,-6.5865,-6.6609,-6.6812,-6.6812,-6.6812,-6.573,-6.4613,-6.4613,-6.4613,-6.4613,-6.4613,-6.4613,-6.4613,-6.4613,-6.4613,-6.4613,-6.4613,-6.4613,-6.4613,-6.4613,-6.4613,-6.4613,-6.4613,-6.3971,-6.3226,-6.2482,-6.2415,-6.2381,-6.2381,-6.2381,-6.2381,-6.2381,-6.2381,-6.2381,-6.2381,-6.2381,-6.2753,-6.3497,-6.3531,-6.3869,-6.458,-6.3869,-6.3531,-6.3531,-6.3531,-6.3531,-4.7674,0.0,0.0,0.0,0.0,0.0,0.0,0.0,0.0,0.0,-7.0776,-6.8953,-6.7354,-6.6608,-6.61,-6.5724,-6.781,-6.962,-6.9917,-7.044,-7.0734,-7.0477,-6.9963,-6.9412,-6.8972,-6.8385,-6.7944,-6.7724,-6.7687,-6.7687,-6.7687,-6.7687,-6.7687,-6.7687,-6.7687,-6.7687,-6.7687,-6.7687,-6.7687,-6.7687,-6.7687,-6.7687,-6.7687,-6.7687,-6.7687,-6.7787,-6.9376,-7.011,-7.022,-7.1578,-7.0784,-6.8651,-6.7458,-6.6145,-6.4719,-6.3246,-6.2584,-6.2448,-6.299,-6.3328,-6.3666,-6.4715,-6.5189,-6.5493,-6.6271,-6.6474,-6.6542,-6.6745,-6.6812,-6.6812,-6.6812,-6.6508,-6.617,-6.617,-6.617,-6.617,-6.617,-6.617,-6.617,-6.617,-6.617,-6.617,-6.617,-6.617,-6.5967,-6.5425,-6.5358,-6.5189,-6.4681,-6.3971,-6.3429,-6.3193,-6.3193,-6.2956,-6.2415,-6.2888,-6.2956,-6.2415,-6.2381,-6.2381,-6.2381,-6.2888,-6.3024,-6.2719,-6.3768,-6.414,-6.3835,-6.414,-6.4275,-6.4275,-6.4275,-6.4275,-4.8618,0.0,0.0,0.0,0.0,0.0,0.0,0.0,0.0,0.0,-7.2718,-7.0743,-6.9396,-6.8147,-6.708,-6.6386,-6.7926,-6.9258,-6.9366,-6.9779,-6.9963,-6.9669,-6.9192,-6.8788,-6.8458,-6.7981,-6.7687,-6.7687,-6.7687,-6.7687,-6.7687,-6.7687,-6.7687,-6.7687,-6.7687,-6.7687,-6.7687,-6.7687,-6.7687,-6.7687,-6.7687,-6.7687,-6.7687,-6.7687,-6.7871,-6.8274,-6.9889,-7.077,-7.1101,-7.1762,-7.0896,-6.9069,-6.8177,-6.6563,-6.4671,-6.3634,-6.3091,-6.2888,-6.3362,-6.3903,-6.4512,-6.5392,-6.5899,-6.6203,-6.6677,-6.6812,-6.6812,-6.6812,-6.6812,-6.6812,-6.6812,-6.6812,-6.6812,-6.6812,-6.6812,-6.6812,-6.6812,-6.6812,-6.6812,-6.6812,-6.6812,-6.6812,-6.6812,-6.6812,-6.6643,-6.6203,-6.6136,-6.5865,-6.5121,-6.4647,-6.4275,-6.3971,-6.3937,-6.3632,-6.2888,-6.326,-6.3193,-6.2448,-6.2381,-6.2381,-6.2381,-6.2821,-6.3125,-6.326,-6.414,-6.4681,-6.4816,-6.4952,-6.5019,-6.5019,-6.5019,-6.5019,0.0,0.0,0.0,0.0,0.0,0.0,0.0,-7.2339,-7.3803,-7.5571,0.0,-7.0889,-7.0776,-6.9096,-6.7682,-6.7778,-6.879,-6.9645,-6.9853,-6.9889,-6.9596,-6.8898,-6.8788,-6.8495,-6.776,-6.7687,-6.7687,-6.7687,-6.7687,-6.7687,-6.7687,-6.7687,-6.7687,-6.7687,-6.7687,-6.7687,-6.7687,-6.7687,-6.7687,-6.7687,-6.7687,-6.7687,-6.7687,-6.7687,-6.8164,-6.9082,-7.066,-7.1762,-7.2459,-7.1602,-7.0703,-6.9707,-6.8752,-6.6893,-6.4701,-6.4553,-6.4072,-6.3531,-6.3599,-6.4512,-6.5696,-6.5764,-6.6237,-6.6812,-6.6812,-6.6812,-6.6812,-6.6812,-6.6812,-6.6812,-6.6812,-6.6812,-6.6812,-6.6812,-6.6812,-6.6812,-6.6812,-6.6812,-6.6812,-6.6812,-6.6812,-6.6812,-6.6812,-6.6812,-6.6812,-6.6812,-6.6812,-6.6576,-6.5865,-6.573,-6.5425,-6.4783,-6.4647,-6.4343,-6.3666,-6.3599,-6.3328,-6.2618,-6.2584,-6.255,-6.2482,-6.2482,-6.3091,-6.4377,-6.4613,-6.5324,-6.6609,-6.6068,-6.5797,-6.5797,-6.5797,-6.5797,0.0,0.0,0.0,0.0,0.0,0.0,0.0,0.0,-7.2499,-7.483,-7.4175,-7.2963,-7.2296,-7.1254,-7.0039,-6.8562,-6.8565,-6.863,-6.8272,-6.8201,-6.8128,-6.7981,-6.7944,-6.7871,-6.7724,-6.7687,-6.7687,-6.7687,-6.7687,-6.7687,-6.7687,-6.7687,-6.7687,-6.7687,-6.7687,-6.7687,-6.7687,-6.7687,-6.7687,-6.7687,-6.7687,-6.7687,-6.7687,-6.7687,-6.8458,-6.9889,-7.0881,-7.1762,-7.2438,-7.152,-7.1015,-7.0596,-6.8288,-6.6705,-6.5524,-6.4223,-6.3666,-6.3599,-6.4174,-6.4952,-6.5797,-6.6373,-6.6677,-6.6812,-6.6812,-6.6812,-6.6812,-6.6812,-6.6812,-6.6812,-6.6812,-6.6812,-6.6812,-6.6812,-6.6812,-6.6812,-6.6812,-6.6812,-6.6812,-6.6812,-6.6812,-6.6812,-6.6812,-6.6812,-6.6812,-6.6812,-6.6812,-6.6745,-6.6576,-6.6068,-6.5628,-6.5459,-6.4952,-6.4546,-6.4377,-6.4377,-6.4309,-6.414,-6.414,-6.3869,-6.3294,-6.326,-6.3159,-6.2854,-6.458,-6.5324,-6.5087,-6.6102,-6.6576,-6.6576,-6.6576,-6.6576,0.0,0.0,0.0,0.0,0.0,0.0,0.0,0.0,-7.1522,-7.3511,-7.3565,-7.3031,-7.2172,-7.1658,-7.0725,-6.8832,-6.8728,-6.859,-6.781,-6.7687,-6.7687,-6.7687,-6.7687,-6.7687,-6.7687,-6.7687,-6.7687,-6.7687,-6.7687,-6.7687,-6.7687,-6.7687,-6.7687,-6.7687,-6.7687,-6.7687,-6.7687,-6.7687,-6.7687,-6.7687,-6.7687,-6.7687,-6.7724,-6.8495,-6.9302,-7.0183,-7.1358,-7.1889,-7.1757,-7.092,-7.0243,-6.9531,-6.7773,-6.6363,-6.5275,-6.4748,-6.4343,-6.414,-6.4884,-6.5595,-6.6305,-6.6677,-6.6812,-6.6812,-6.6812,-6.6812,-6.6812,-6.6812,-6.6812,-6.688,-6.7252,-6.7354,-6.7421,-6.7827,-6.7354,-6.6812,-6.6812,-6.6812,-6.6812,-6.6812,-6.6812,-6.6812,-6.6812,-6.6812,-6.6812,-6.6812,-6.6812,-6.6812,-6.6812,-6.6474,-6.6237,-6.6237,-6.5899,-6.5527,-6.5155,-6.5121,-6.4986,-6.4613,-6.4613,-6.4444,-6.4038,-6.4038,-6.37,-6.2956,-6.441,-6.4986,-6.4613,-6.573,-6.6102,-6.5764,-6.5764,-6.5933,0.0,0.0,0.0,0.0,0.0,0.0,0.0,0.0,-7.0761,-7.1934,-7.2289,-7.2175,-7.1506,-7.1222,-7.0517,-6.8794,-6.8847,-6.884,-6.7836,-6.7687,-6.7687,-6.7687,-6.7577,-6.7467,-6.7467,-6.7357,-6.732,-6.7467,-6.7467,-6.754,-6.7687,-6.7687,-6.7687,-6.7687,-6.7687,-6.7687,-6.7687,-6.7687,-6.7687,-6.7687,-6.7687,-6.7687,-6.7724,-6.9229,-6.9963,-7.0183,-7.1651,-7.1932,-7.1282,-7.031,-6.9384,-6.835,-6.7415,-6.6063,-6.4681,-6.5425,-6.5222,-6.4715,-6.5425,-6.617,-6.6812,-6.6812,-6.6812,-6.6812,-6.6812,-6.6812,-6.6846,-6.6948,-6.7015,-6.7184,-6.7895,-6.8098,-6.8267,-6.8944,-6.8132,-6.7218,-6.7218,-6.7218,-6.7218,-6.7218,-6.7083,-6.6948,-6.6846,-6.6812,-6.6812,-6.6812,-6.6812,-6.6812,-6.6812,-6.6812,-6.6812,-6.6812,-6.6812,-6.6542,-6.5933,-6.5865,-6.5628,-6.5019,-6.4986,-6.4918,-6.4783,-6.4783,-6.4444,-6.37,-6.441,-6.4715,-6.4613,-6.5324,-6.5324,-6.4613,-6.4613,-6.4918,0.0,0.0,0.0,0.0,0.0,0.0,0.0,0.0,-7.0217,0.0,-7.0993,-7.1471,-7.1391,-7.0781,-6.9871,-6.8682,-6.8544,-6.8392,-6.7784,-6.7687,-6.7687,-6.7687,-6.7063,-6.6659,-6.6659,-6.6035,-6.5925,-6.6623,-6.6659,-6.6953,-6.765,-6.7687,-6.7687,-6.7687,-6.7687,-6.7687,-6.7687,-6.7687,-6.7687,-6.7687,-6.7687,-6.7687,-6.7724,-6.8641,-6.9449,-7.0146,-7.1064,-7.1778,-7.216,-7.0461,-6.9637,-6.9314,-6.7519,-6.5921,-6.4681,-6.5425,-6.5222,-6.4715,-6.5425,-6.617,-6.6812,-6.6812,-6.6812,-6.6812,-6.6812,-6.6812,-6.6948,-6.7557,-6.776,-6.7929,-6.8741,-6.8944,-6.8977,-6.9079,-6.8944,-6.8808,-6.8808,-6.8808,-6.8808,-6.8808,-6.8233,-6.7557,-6.6914,-6.6812,-6.6812,-6.6812,-6.6812,-6.6812,-6.6812,-6.6812,-6.6812,-6.6812,-6.6812,-6.6779,-6.6677,-6.6677,-6.6609,-6.6508,-6.6508,-6.6237,-6.5561,-6.5527,-6.5189,-6.4478,-6.5155,-6.5222,-6.4613,-6.5324,-6.5324,-6.4613,-6.4613,-6.4647,0.0,0.0,0.0,0.0,0.0,0.0,0.0,0.0,-6.8634,-6.8352,-6.8583,-6.9225,-7.0442,-7.0114,-6.9413,-6.8614,-6.8511,-6.8333,-6.7757,-6.7687,-6.7504,-6.7063,-6.6733,-6.6329,-6.5888,-6.5521,-6.5448,-6.5815,-6.5852,-6.5999,-6.6329,-6.6366,-6.6366,-6.6366,-6.6366,-6.6366,-6.6366,-6.6806,-6.7247,-6.7687,-6.7687,-6.7687,-6.7714,-6.8054,-6.8898,-7.0146,-7.0954,-7.1465,-7.1531,-6.9299,-6.8575,-6.8618,-6.5966,-6.5053,-6.5256,-6.5561,-6.5493,-6.5324,-6.6068,-6.6542,-6.6812,-6.6812,-6.6812,-6.688,-6.7286,-6.7421,-6.759,-6.8368,-6.8571,-6.8741,-6.9519,-6.9722,-6.9823,-7.0229,-7.0331,-7.0331,-7.0331,-6.9688,-6.9113,-6.9113,-6.8808,-6.847,-6.8132,-6.7726,-6.7421,-6.7421,-6.7083,-6.6812,-6.6812,-6.6812,-6.6812,-6.6812,-6.6812,-6.6812,-6.6812,-6.6812,-6.6812,-6.6812,-6.6812,-6.6677,-6.6339,-6.6305,-6.617,-6.5831,-6.573,-6.5324,-6.4613,-6.5324,-6.5324,-6.4613,-6.4613,-6.4816,0.0,0.0,0.0,0.0,0.0,0.0,0.0,0.0,-6.7212,-6.6938,-6.6801,-6.7198,-6.8792,-6.8751,-6.8313,-6.7773,-6.7677,-6.7543,-6.7143,-6.71,-6.688,-6.6256,-6.5999,-6.5632,-6.5044,-6.4787,-6.4787,-6.4971,-6.5007,-6.5081,-6.5301,-6.5301,-6.5301,-6.5301,-6.5301,-6.5301,-6.5301,-6.6109,-6.6806,-6.7393,-6.7577,-6.7687,-6.7687,-6.7687,-6.8568,-7.011,-7.0734,-7.1158,-7.1308,-6.9176,-6.8329,-6.8044,-6.5417,-6.4822,-6.5425,-6.5628,-6.5696,-6.5797,-6.6542,-6.6812,-6.6812,-6.6812,-6.6948,-6.7184,-6.7726,-6.803,-6.8368,-6.9147,-6.9383,-6.9553,-7.0297,-7.0466,-7.0635,-7.1176,-7.1312,-7.1312,-7.1312,-7.0466,-6.962,-6.9417,-6.9383,-6.9316,-6.9147,-6.8605,-6.8199,-6.8199,-6.776,-6.7387,-6.7387,-6.7218,-6.7083,-6.7083,-6.6914,-6.6812,-6.6812,-6.6812,-6.6812,-6.6812,-6.6812,-6.6812,-6.6812,-6.6812,-6.6812,-6.6812,-6.6271,-6.5628,-6.4884,-6.5425,-6.5324,-6.4613,-6.4613,-6.4884,0.0,0.0,0.0,0.0,0.0,0.0,0.0,0.0,-6.6548,-6.6825,-6.6495,-6.618,-6.6299,-6.6277,-6.6086,-6.5529,-6.5463,-6.5437,-6.5448,-6.5411,-6.5411,-6.5375,-6.4677,-6.42,-6.4163,-6.3429,-6.3282,-6.409,-6.4163,-6.4494,-6.5264,-6.5301,-6.5301,-6.5301,-6.5301,-6.5301,-6.5301,-6.6109,-6.6512,-6.6549,-6.732,-6.7687,-6.7687,-6.7687,-6.8568,-7.011,-7.0146,-7.0999,-7.2343,-7.134,-6.9964,-6.847,-6.735,-6.6009,-6.4749,-6.5425,-6.5696,-6.5797,-6.6542,-6.6812,-6.6812,-6.6812,-6.7286,-6.7861,-6.7895,-6.8436,-6.918,-6.9925,-7.0128,-7.0297,-7.1075,-7.1244,-7.1278,-7.1312,-7.1312,-7.1312,-7.1312,-7.1244,-7.0973,-7.0263,-7.0128,-6.9925,-6.9214,-6.9079,-6.9045,-6.9045,-6.9011,-6.8977,-6.8977,-6.8301,-6.7827,-6.7827,-6.7218,-6.6812,-6.6812,-6.6812,-6.6812,-6.6812,-6.6812,-6.6812,-6.6812,-6.6812,-6.6812,-6.6812,-6.6779,-6.6373,-6.5628,-6.5662,-6.5324,-6.4613,-6.4613,-6.4613,0.0,0.0,0.0,0.0,0.0,0.0,0.0,-6.2727,-6.4235,-6.3978,-6.3959,-6.3983,-6.3983,-6.4869,-6.5508,-6.5327,-6.5301,-6.5301,-6.5301,-6.5301,-6.5118,-6.4604,-6.4273,-6.387,-6.3319,-6.2989,-6.2952,-6.3246,-6.3282,-6.3392,-6.3661,-6.3723,-6.3723,-6.3723,-6.3723,-6.398,-6.453,-6.5338,-6.5999,-6.6512,-6.732,-6.7687,-6.7724,-6.8238,-6.9082,-7.011,-7.066,-7.1505,-7.2365,-7.0422,-6.9239,-6.8468,-6.706,-6.6038,-6.5406,-6.6302,-6.6513,-6.644,-6.6711,-6.6812,-6.688,-6.7354,-6.7692,-6.8064,-6.9079,-6.9586,-6.9958,-7.0703,-7.0906,-7.0973,-7.1244,-7.1312,-7.1312,-7.1312,-7.1312,-7.1312,-7.1312,-7.1312,-7.1244,-7.0973,-7.0906,-7.0838,-7.0567,-7.0128,-6.9789,-6.9789,-6.9417,-6.9113,-6.9113,-6.8842,-6.8673,-6.8673,-6.8436,-6.8267,-6.8267,-6.8267,-6.8267,-6.8267,-6.8267,-6.8064,-6.7523,-6.7523,-6.7286,-6.6812,-6.6812,-6.6677,-6.6406,-6.6406,-6.6271,-6.6034,-6.6034,-6.6034,-3.9892,0.0,0.0,0.0,0.0,0.0,0.0,-6.002,-6.0972,-6.1592,-6.222,-6.262,-6.262,-6.3628,-6.4457,-6.4457,-6.4457,-6.4457,-6.4457,-6.4457,-6.4273,-6.3723,-6.3649,-6.3429,-6.2853,-6.278,-6.278,-6.278,-6.278,-6.278,-6.278,-6.278,-6.278,-6.278,-6.278,-6.3099,-6.3649,-6.4751,-6.5595,-6.6109,-6.7173,-6.7687,-6.7724,-6.8531,-6.9339,-7.011,-7.066,-7.1505,-7.2357,-7.0404,-6.9259,-6.852,-6.7117,-6.6241,-6.5858,-6.6421,-6.6683,-6.6812,-6.6812,-6.6812,-6.6948,-6.7658,-6.8098,-6.8538,-6.9789,-7.0364,-7.0669,-7.1176,-7.1312,-7.1312,-7.1312,-7.1312,-7.1312,-7.1312,-7.1312,-7.1312,-7.1312,-7.1312,-7.1312,-7.1312,-7.1312,-7.1312,-7.1312,-7.0906,-7.0567,-7.0567,-7.0161,-6.9857,-6.9857,-6.962,-6.9451,-6.9451,-6.9248,-6.9113,-6.9113,-6.9113,-6.9113,-6.9113,-6.9113,-6.8876,-6.8335,-6.8301,-6.8064,-6.759,-6.732,-6.7184,-6.7184,-6.6948,-6.6812,-6.6812,-6.6812,-6.6812,0.0,0.0,0.0,0.0,0.0,0.0,-5.7475,0.0,-5.6838,-5.988,-6.1329,-6.2135,-6.2247,-6.2516,-6.2732,-6.2768,-6.2805,-6.278,-6.278,-6.278,-6.278,-6.278,-6.278,-6.278,-6.278,-6.278,-6.278,-6.278,-6.278,-6.278,-6.278,-6.278,-6.278,-6.278,-6.278,-6.278,-6.2842,-6.4494,-6.5301,-6.5375,-6.6953,-6.7687,-6.7724,-6.8568,-6.9376,-7.011,-7.011,-7.1027,-7.2422,-7.1578,-7.0237,-6.8682,-6.7741,-6.6777,-6.5887,-6.584,-6.6211,-6.6812,-6.6812,-6.6812,-6.6948,-6.7692,-6.847,-6.9282,-6.9992,-7.0737,-7.1312,-7.1312,-7.1312,-7.1312,-7.1312,-7.1312,-7.1312,-7.1312,-7.1312,-7.1312,-7.1312,-7.1312,-7.1312,-7.1312,-7.1312,-7.1312,-7.1312,-7.1312,-7.1312,-7.1312,-7.1312,-7.1312,-7.1312,-7.0669,-7.0229,-7.0229,-6.9586,-6.918,-6.918,-6.918,-6.918,-6.918,-6.918,-6.9147,-6.9147,-6.9147,-6.9113,-6.9113,-6.8335,-6.7929,-6.7929,-6.7184,-6.6812,-6.6812,-6.6812,-6.6812,-3.7892,0.0,0.0,0.0,0.0,0.0,0.0,0.0,-5.2072,-5.6866,-5.7342,-5.7823,-6.0885,-6.1223,-6.1371,-6.2271,-6.2632,-6.278,-6.278,-6.278,-6.278,-6.278,-6.278,-6.278,-6.278,-6.278,-6.278,-6.278,-6.278,-6.278,-6.278,-6.278,-6.278,-6.278,-6.278,-6.3099,-6.3723,-6.4787,-6.5595,-6.6182,-6.721,-6.7687,-6.7724,-6.9119,-6.9889,-7.011,-7.0734,-7.1248,-7.1541,-7.0146,-6.8917,-6.8017,-6.8958,-6.7906,-6.6145,-6.7917,-6.7812,-6.6812,-6.6812,-6.7151,-6.7726,-6.8504,-6.9282,-7.0026,-7.077,-7.1142,-7.1312,-7.1312,-7.1312,-7.1312,-7.1312,-7.1312,-7.1312,-7.1312,-7.1312,-7.1312,-7.1312,-7.1312,-7.1312,-7.1312,-7.1312,-7.1312,-7.1312,-7.1312,-7.1312,-7.1312,-7.1312,-7.1312,-7.1312,-7.1142,-7.1007,-7.1007,-7.0838,-7.0703,-7.0703,-7.0703,-7.0703,-7.0703,-7.0703,-7.0466,-6.9925,-6.9891,-6.962,-6.9113,-6.8876,-6.8774,-6.8774,-6.7455,-6.6812,-6.6812,-6.6812,-6.6812,-3.8969,-4.0008,-4.1747,-4.2439,0.0,0.0,-4.7432,-4.8199,-4.9396,-5.4742,-5.5907,-5.6774,-5.9645,-6.0329,-6.0752,-6.1474,-6.2029,-6.247,-6.2745,-6.278,-6.278,-6.278,-6.278,-6.278,-6.278,-6.278,-6.278,-6.278,-6.278,-6.278,-6.278,-6.278,-6.278,-6.278,-6.278,-6.3209,-6.409,-6.4897,-6.5705,-6.6512,-6.732,-6.7687,-6.7724,-6.9376,-6.9926,-6.9633,-7.044,-7.0624,-7.022,-6.8935,-6.8503,-6.8684,-6.8845,-6.8121,-6.7118,-6.8151,-6.7782,-6.6846,-6.7151,-6.7557,-6.8098,-6.918,-6.9857,-7.0331,-7.1075,-7.1312,-7.1312,-7.1312,-7.1312,-7.1379,-7.1684,-7.1751,-7.1853,-7.2157,-7.2225,-7.2225,-7.2225,-7.2225,-7.2056,-7.1447,-7.1312,-7.1312,-7.1312,-7.1312,-7.1312,-7.1312,-7.1312,-7.1312,-7.1312,-7.1312,-7.1312,-7.1312,-7.1312,-7.1312,-7.1312,-7.1312,-7.1312,-7.1312,-7.1312,-7.1109,-7.0669,-7.0669,-7.0466,-7.0026,-6.9722,-6.9417,-6.9113,-6.8199,-6.776,-6.776,-6.776,-6.759,-4.0354,-4.1393,-4.3431,-4.4825,-4.2516,0.0,-4.798,-4.7817,-4.7692,-5.2469,-5.4854,-5.6473,-5.772,-5.8889,-5.9678,-5.9807,-6.0619,-6.1558,-6.2461,-6.2684,-6.2733,-6.2658,-6.2743,-6.278,-6.278,-6.278,-6.278,-6.278,-6.278,-6.278,-6.278,-6.278,-6.278,-6.278,-6.289,-6.3356,-6.42,-6.5044,-6.5852,-6.6623,-6.7357,-6.7687,-6.7724,-6.9265,-6.9596,-6.8935,-6.9669,-6.9559,-6.8862,-6.8017,-6.8513,-6.9673,-6.8073,-6.7832,-6.8221,-6.7301,-6.6862,-6.6914,-6.7658,-6.7963,-6.8267,-6.9722,-7.0263,-7.0432,-7.1109,-7.1312,-7.1312,-7.1312,-7.1312,-7.1481,-7.2225,-7.2394,-7.2597,-7.3308,-7.3477,-7.3477,-7.3477,-7.3477,-7.3105,-7.1819,-7.1548,-7.1548,-7.1447,-7.1515,-7.1515,-7.1345,-7.1379,-7.1413,-7.1312,-7.1312,-7.1312,-7.1312,-7.1312,-7.1312,-7.1312,-7.1312,-7.1312,-7.1312,-7.1312,-7.1312,-7.1312,-7.1312,-7.1312,-7.1312,-7.0669,-6.9992,-6.935,-6.918,-6.9113,-6.9113,-6.9113,-6.8707,-4.2508,-4.2701,-4.3008,-4.2624,-4.2931,0.0,-4.1785,-4.2162,-4.3546,-4.6228,-4.7105,-4.8465,-5.2043,-5.315,-5.3833,-5.4866,-5.6582,-5.8633,-6.1081,-6.1997,-6.2285,-6.1887,-6.2401,-6.278,-6.278,-6.278,-6.278,-6.278,-6.278,-6.278,-6.278,-6.278,-6.278,-6.278,-6.3466,-6.4237,-6.5081,-6.5852,-6.6659,-6.7467,-6.7614,-6.7687,-6.7724,-6.8715,-6.9045,-6.8898,-6.9082,-6.9045,-6.8862,-6.8017,-6.7806,-6.8066,-6.8341,-6.7969,-6.7339,-6.7752,-6.742,-6.6914,-6.7658,-6.8335,-6.9011,-6.9891,-7.0601,-7.1109,-7.1278,-7.1312,-7.1312,-7.1312,-7.1312,-7.1481,-7.2225,-7.2394,-7.2597,-7.3308,-7.3477,-7.3477,-7.3477,-7.3477,-7.3409,-7.3105,-7.3071,-7.2868,-7.2293,-7.2665,-7.2665,-7.1481,-7.1819,-7.1988,-7.1379,-7.1312,-7.1312,-7.1312,-7.1312,-7.1312,-7.1312,-7.1312,-7.1312,-7.1312,-7.1312,-7.1312,-7.1312,-7.1312,-7.1312,-7.1312,-7.1176,-7.1007,-7.0872,-6.9688,-6.9113,-6.9113,-6.9113,-6.9011,-4.4162,-4.4008,-4.4355,-4.4355,-4.3701,0.0,0.0,-4.2124,-4.2574,-4.5331,-4.5569,-4.6143,-4.91,-5.0174,-5.0964,-5.2023,-5.4473,-5.6662,-5.7901,-6.0167,-6.153,-6.1042,-6.1374,-6.1777,-6.2181,-6.2218,-6.2365,-6.2743,-6.278,-6.278,-6.278,-6.278,-6.278,-6.278,-6.3209,-6.4053,-6.5301,-6.5705,-6.6512,-6.7687,-6.7687,-6.7687,-6.7724,-6.8531,-6.8678,-6.8311,-6.8752,-6.8678,-6.8247,-6.7412,-6.718,-6.7439,-6.7832,-6.7835,-6.7588,-6.753,-6.7202,-6.6981,-6.8098,-6.8774,-6.9282,-7.0398,-7.1007,-7.1312,-7.1312,-7.1312,-7.1312,-7.1312,-7.1582,-7.2022,-7.2766,-7.3206,-7.368,-7.4424,-7.4593,-7.4593,-7.4593,-7.4593,-7.4593,-7.4593,-7.4593,-7.4255,-7.3138,-7.324,-7.324,-7.2496,-7.2699,-7.2665,-7.1954,-7.1853,-7.1718,-7.1345,-7.1312,-7.1312,-7.1312,-7.1312,-7.1312,-7.1312,-7.1312,-7.1312,-7.1312,-7.1312,-7.1312,-7.1312,-7.1312,-7.1312,-7.1312,-7.0567,-7.0195,-7.0195,-7.0195,-6.9992,-4.6355,-4.6278,-4.7009,-4.674,-4.5201,-4.3855,0.0,0.0,0.0,-4.5201,-4.524,-4.5316,-4.6855,-4.7586,-4.8202,-4.9096,-5.1933,-5.3903,-5.3582,-5.6794,-5.9214,-5.9366,-5.9752,-6.0281,-6.0847,-6.075,-6.1153,-6.2254,-6.2071,-6.2108,-6.2548,-6.2732,-6.278,-6.278,-6.311,-6.3918,-6.5301,-6.5632,-6.6402,-6.7687,-6.7687,-6.7687,-6.7724,-6.8385,-6.8311,-6.7724,-6.8385,-6.8311,-6.7633,-6.6765,-6.6777,-6.7268,-6.7094,-6.7396,-6.7866,-6.7078,-6.6914,-6.7218,-6.8605,-6.918,-6.9519,-7.0872,-7.1312,-7.1312,-7.1312,-7.1413,-7.1515,-7.1515,-7.2056,-7.2766,-7.351,-7.4153,-7.4796,-7.5506,-7.5709,-7.5709,-7.5709,-7.5709,-7.5709,-7.5709,-7.5709,-7.527,-7.3916,-7.3815,-7.3815,-7.3544,-7.3612,-7.3375,-7.2496,-7.2394,-7.2124,-7.1379,-7.1312,-7.1379,-7.1515,-7.1515,-7.1582,-7.1718,-7.1616,-7.1515,-7.1515,-7.1379,-7.1312,-7.1312,-7.1312,-7.1312,-7.1312,-7.1312,-7.1312,-7.1312,-7.1312,-7.0973,-5.0471,-5.1125,-5.1279,-4.6855,-4.8279,-4.8885,-4.1662,0.0,-4.347,-4.1631,0.0,-4.2547,-4.3508,0.0,0.0,-4.3816,-4.6163,-4.7971,-4.8222,-5.062,-5.315,-5.534,-5.7509,-5.8714,-5.841,-5.7776,-5.829,-6.0493,-5.9355,-5.9465,-6.163,-6.2401,-6.278,-6.278,-6.4237,-6.5118,-6.5301,-6.6696,-6.7504,-6.7687,-6.7687,-6.7687,-6.7687,-6.7797,-6.7797,-6.7714,-6.7797,-6.776,-6.7633,-6.6765,-6.6777,-6.7199,-6.638,-6.6401,-6.6946,-6.6854,-6.7218,-6.7895,-6.8808,-6.9519,-7.0195,-7.1041,-7.1312,-7.1312,-7.1312,-7.1751,-7.2293,-7.2293,-7.28,-7.3544,-7.4289,-7.4559,-7.4796,-7.5506,-7.5709,-7.5709,-7.5709,-7.5709,-7.5709,-7.5709,-7.5709,-7.5439,-7.4627,-7.5033,-7.4999,-7.368,-7.4052,-7.3984,-7.2597,-7.2394,-7.2124,-7.1379,-7.1312,-7.1582,-7.2225,-7.2293,-7.2563,-7.3206,-7.2631,-7.2293,-7.2293,-7.165,-7.1312,-7.1312,-7.1312,-7.1312,-7.1312,-7.1312,-7.1312,-7.1312,-7.1312,-7.1278,-5.1289,-5.1548,-5.1702,-4.8586,-4.8394,-4.7817,-4.3239,-4.2547,-4.2701,-4.2124,0.0,0.0,0.0,0.0,0.0,0.0,-4.447,-4.6002,-4.5668,-4.7371,-4.9733,-5.2508,-5.2865,-5.3528,-5.5067,-5.5757,-5.6895,-5.8841,-5.796,-5.8364,-6.0786,-6.1667,-6.2328,-6.2805,-6.398,-6.4824,-6.5301,-6.6439,-6.7247,-6.7687,-6.7687,-6.7687,-6.7687,-6.7687,-6.7687,-6.7687,-6.7174,-6.6939,-6.6889,-6.586,-6.5864,-6.645,-6.5989,-6.6201,-6.6812,-6.6812,-6.7286,-6.803,-6.8808,-6.9586,-7.0297,-7.1075,-7.1312,-7.1312,-7.1312,-7.1819,-7.2394,-7.2394,-7.324,-7.4221,-7.4525,-7.4931,-7.5337,-7.5642,-7.5709,-7.5709,-7.5709,-7.5709,-7.5709,-7.5709,-7.5709,-7.5608,-7.5303,-7.5506,-7.5473,-7.4864,-7.5033,-7.4864,-7.3815,-7.368,-7.3409,-7.2665,-7.2563,-7.2699,-7.3003,-7.3037,-7.3172,-7.3477,-7.3206,-7.3037,-7.3037,-7.2732,-7.2563,-7.2563,-7.2157,-7.1954,-7.1954,-7.1515,-7.1312,-7.1312,-7.1312,-7.1312,-5.3136,-5.3203,-5.3192,-4.9856,-4.8317,-4.6894,-4.4239,-4.3201,-4.3008,-4.3662,-4.3124,0.0,0.0,0.0,-4.1662,0.0,0.0,-4.4624,-4.3739,-4.4509,-4.6194,-4.9092,-4.9002,-4.9603,-5.1961,-5.2858,-5.4216,-5.6528,-5.5721,-5.6492,-5.9575,-6.0713,-6.163,-6.2438,-6.3723,-6.4714,-6.5301,-6.6329,-6.71,-6.7687,-6.7687,-6.7687,-6.7687,-6.7687,-6.7687,-6.766,-6.6794,-6.6404,-6.6319,-6.5233,-6.5241,-6.5887,-6.5765,-6.6136,-6.6812,-6.6812,-6.7421,-6.8301,-6.891,-6.9722,-7.0601,-7.1142,-7.1312,-7.1345,-7.1548,-7.2124,-7.2732,-7.2935,-7.3916,-7.4897,-7.4897,-7.5303,-7.5709,-7.5709,-7.5709,-7.5709,-7.5709,-7.5709,-7.5709,-7.5709,-7.5709,-7.5709,-7.5709,-7.5709,-7.5709,-7.5709,-7.5709,-7.5439,-7.4695,-7.4627,-7.4322,-7.3578,-7.3477,-7.3578,-7.3781,-7.3781,-7.3781,-7.3781,-7.3781,-7.3713,-7.351,-7.3477,-7.3477,-7.3477,-7.2969,-7.2699,-7.2699,-7.2157,-7.1819,-7.1616,-7.1413,-7.1312,-5.7484,-5.8011,-5.7473,-5.001,-4.874,-4.8009,-4.3008,-4.3739,-4.5479,-4.5518,-4.6778,-4.7625,-4.6885,-4.5316,-4.3932,0.0,0.0,0.0,0.0,-4.12,-4.1694,-4.441,-4.6871,-4.8692,-4.961,-4.8306,-4.9021,-5.3057,-5.1903,-5.3078,-5.7813,-5.9575,-6.0823,-6.1594,-6.398,-6.5264,-6.5301,-6.688,-6.765,-6.7687,-6.7687,-6.7687,-6.7687,-6.7687,-6.7687,-6.766,-6.6794,-6.6404,-6.6319,-6.5233,-6.5241,-6.5887,-6.5765,-6.6136,-6.6812,-6.6812,-6.776,-6.9079,-6.9079,-7.006,-7.1278,-7.1312,-7.1312,-7.1447,-7.2157,-7.2868,-7.3612,-7.4322,-7.51,-7.5676,-7.5676,-7.5676,-7.5709,-7.5709,-7.5709,-7.5709,-7.5709,-7.5709,-7.5709,-7.5709,-7.5709,-7.5709,-7.5709,-7.5709,-7.5709,-7.5709,-7.5709,-7.5439,-7.4695,-7.4627,-7.4322,-7.3578,-7.3477,-7.3781,-7.4525,-7.4559,-7.4559,-7.4559,-7.4559,-7.4255,-7.351,-7.3477,-7.3477,-7.3477,-7.3477,-7.3443,-7.3443,-7.3443,-7.3037,-7.236,-7.165,-7.1312,-5.9742,-5.9935,-5.905,-5.3664,-5.1702,-4.9856,-4.5355,-4.5855,-4.7086,-4.6586,-4.7778,-4.8702,-4.7855,-4.6317,0.0,0.0,0.0,0.0,0.0,-3.8791,-3.8733,-4.0683,-4.3409,-4.5223,-4.5534,-4.6507,-4.8103,-5.0618,-5.0802,-5.2454,-5.6198,-5.8437,-5.9979,-6.0786,-6.3723,-6.5301,-6.5301,-6.688,-6.7687,-6.7687,-6.7687,-6.7687,-6.7687,-6.7687,-6.7687,-6.7633,-6.612,-6.549,-6.54,-6.4885,-6.4829,-6.513,-6.6057,-6.6576,-6.6812,-6.6812,-6.7793,-6.9248,-7.0229,-7.0906,-7.1312,-7.1312,-7.1312,-7.1447,-7.2191,-7.2902,-7.3646,-7.439,-7.5134,-7.5709,-7.5709,-7.5709,-7.5709,-7.5709,-7.5709,-7.5709,-7.5709,-7.5709,-7.5709,-7.5709,-7.5709,-7.5709,-7.5709,-7.5709,-7.5709,-7.5709,-7.5709,-7.5608,-7.5371,-7.5337,-7.5236,-7.4965,-7.4965,-7.5067,-7.5303,-7.5337,-7.5337,-7.5337,-7.5337,-7.5236,-7.4965,-7.4965,-7.4965,-7.4965,-7.4492,-7.4221,-7.4221,-7.3713,-7.3341,-7.3105,-7.2868,-7.2225,-6.1396,-6.1473,-6.0666,-5.6434,-5.4549,-5.2664,-4.874,-4.9394,-5.0587,-4.9779,-5.0471,-5.1202,-5.1241,-4.8894,-4.6713,0.0,0.0,0.0,0.0,-3.7818,-3.7754,-3.9074,-4.1249,-4.2983,-4.3828,-4.4305,-4.57,-4.8489,-4.8416,-4.9994,-5.4106,-5.6895,-5.8854,-5.9942,-6.3466,-6.5301,-6.5301,-6.688,-6.7687,-6.7687,-6.7687,-6.7687,-6.7687,-6.7687,-6.7515,-6.7174,-6.5649,-6.4974,-6.4918,-6.4718,-6.4749,-6.5121,-6.6339,-6.6812,-6.6846,-6.7117,-6.8166,-6.9654,-7.0906,-7.1312,-7.1312,-7.1312,-7.1481,-7.1853,-7.2563,-7.3308,-7.4052,-7.4796,-7.5337,-7.5709,-7.5709,-7.5709,-7.5709,-7.5709,-7.5709,-7.5709,-7.5709,-7.5709,-7.5709,-7.5709,-7.5709,-7.5709,-7.5709,-7.5709,-7.5709,-7.5709,-7.5709,-7.5709,-7.5709,-7.5709,-7.5709,-7.5709,-7.5709,-7.5709,-7.5709,-7.5709,-7.5709,-7.5709,-7.5709,-7.5709,-7.5709,-7.5709,-7.5709,-7.5709,-7.5236,-7.4999,-7.4999,-7.4492,-7.4153,-7.3883,-7.3883,-7.324]},{"header":{"parameterUnit":"m.s-1","parameterCategory":1,"la1":30.6,"la2":29.2853,"lo1":-89.7004,"lo2":-87.6739,"dy":0.0162,"dx":0.0183,"nx":112,"ny":82,"refTime":"2026-02-25T12:00:00:Z","depth":0,"parameterNumber":3,"parameterNumberName":"V-component_of_WINDS"},"data":[0.0,0.0,0.0,0.0,0.0,0.0,0.0,0.0,0.0,0.0,0.0,0.0,0.0,0.0,0.0,0.0,0.0,0.0,0.0,0.0,0.0,0.0,0.0,0.0,0.0,0.0,0.0,0.0,0.0,0.0,0.0,0.0,0.0,0.0,0.0,0.0,0.0,0.0,0.0,0.0,0.0,0.0,0.0,0.0,0.0,0.0,0.0,0.0,0.0,0.0,0.0,0.0,0.0,0.0,0.0,0.0,0.0,0.0,0.0,0.0,0.0,0.0,0.0,0.0,0.0,0.0,0.0,0.0,0.0,0.0,0.0,0.0,0.0,0.0,0.0,0.0,0.0,0.0,0.0,0.0,0.0,0.0,0.0,0.0,0.0,0.0,0.0,0.0,0.0,0.0,-1.8838,-2.0134,-2.2325,-2.3728,-2.3768,-2.3647,-2.2365,-1.9604,0.0,0.0,0.0,0.0,0.0,0.0,0.0,0.0,0.0,0.0,0.0,0.0,0.0,0.0,0.0,0.0,0.0,0.0,0.0,0.0,0.0,0.0,0.0,0.0,0.0,0.0,0.0,0.0,0.0,0.0,0.0,0.0,0.0,0.0,0.0,0.0,0.0,0.0,0.0,0.0,0.0,0.0,0.0,0.0,0.0,0.0,0.0,0.0,0.0,0.0,0.0,0.0,0.0,0.0,0.0,0.0,0.0,0.0,0.0,0.0,0.0,0.0,0.0,0.0,0.0,0.0,0.0,0.0,0.0,0.0,0.0,0.0,0.0,0.0,0.0,0.0,0.0,0.0,0.0,0.0,0.0,0.0,0.0,0.0,0.0,0.0,0.0,0.0,0.0,0.0,0.0,0.0,0.0,0.0,0.0,0.0,0.0,0.0,0.0,0.0,0.0,0.0,0.0,0.0,-1.8918,-2.2058,-2.2993,-2.35,-2.3754,-2.306,-2.1697,-1.9564,0.0,0.0,0.0,0.0,0.0,0.0,0.0,0.0,0.0,0.0,0.0,0.0,0.0,0.0,0.0,0.0,0.0,0.0,0.0,0.0,0.0,0.0,0.0,0.0,0.0,0.0,0.0,0.0,0.0,0.0,0.0,0.0,0.0,0.0,0.0,0.0,0.0,0.0,0.0,0.0,0.0,0.0,0.0,0.0,0.0,0.0,0.0,0.0,0.0,0.0,0.0,0.0,0.0,0.0,0.0,0.0,0.0,0.0,0.0,0.0,0.0,0.0,0.0,0.0,0.0,0.0,0.0,0.0,0.0,0.0,0.0,0.0,0.0,0.0,0.0,0.0,0.0,0.0,0.0,0.0,0.0,0.0,0.0,0.0,0.0,0.0,0.0,0.0,0.0,0.0,0.0,0.0,0.0,0.0,0.0,0.0,0.0,0.0,0.0,0.0,0.0,0.0,0.0,-1.8104,-1.9599,-2.2325,-2.3046,-2.3313,-2.3273,-2.2752,-2.147,-1.9265,-1.8277,0.0,0.0,0.0,0.0,0.0,0.0,0.0,0.0,0.0,0.0,0.0,0.0,0.0,0.0,0.0,0.0,0.0,0.0,0.0,0.0,0.0,0.0,0.0,0.0,0.0,0.0,0.0,0.0,0.0,0.0,0.0,0.0,0.0,0.0,0.0,0.0,0.0,0.0,0.0,0.0,0.0,0.0,0.0,0.0,0.0,0.0,0.0,0.0,0.0,0.0,0.0,0.0,0.0,0.0,0.0,0.0,0.0,0.0,0.0,0.0,0.0,0.0,0.0,0.0,0.0,0.0,0.0,0.0,0.0,0.0,0.0,0.0,0.0,0.0,0.0,0.0,0.0,0.0,0.0,0.0,0.0,0.0,0.0,0.0,0.0,0.0,0.0,0.0,0.0,0.0,0.0,0.0,0.0,0.0,0.0,0.0,0.0,0.0,0.0,0.0,0.0,0.0,-1.9439,-2.0454,-2.2231,-2.2899,-2.3113,-2.2954,-2.2271,-2.1056,-1.9052,-1.7488,0.0,0.0,0.0,0.0,0.0,0.0,0.0,0.0,0.0,0.0,0.0,0.0,0.0,0.0,0.0,0.0,0.0,0.0,0.0,0.0,0.0,0.0,0.0,0.0,0.0,0.0,0.0,0.0,0.0,0.0,0.0,0.0,0.0,0.0,0.0,0.0,0.0,0.0,0.0,0.0,0.0,0.0,0.0,0.0,0.0,0.0,0.0,0.0,0.0,0.0,0.0,0.0,0.0,0.0,0.0,0.0,0.0,0.0,0.0,0.0,0.0,0.0,0.0,0.0,0.0,0.0,0.0,0.0,0.0,0.0,0.0,0.0,0.0,0.0,0.0,0.0,0.0,0.0,0.0,0.0,0.0,0.0,0.0,0.0,0.0,0.0,0.0,0.0,0.0,0.0,0.0,0.0,0.0,0.0,0.0,0.0,0.0,0.0,0.0,0.0,0.0,0.0,-1.9626,-2.1349,-2.2311,-2.2699,-2.2886,-2.2928,-2.1336,-1.9973,-1.8985,-1.6526,0.0,0.0,0.0,0.0,0.0,0.0,0.0,0.0,0.0,0.0,0.0,0.0,0.0,0.0,0.0,0.0,0.0,0.0,0.0,0.0,0.0,0.0,0.0,0.0,0.0,0.0,0.0,0.0,0.0,0.0,0.0,0.0,0.0,0.0,0.0,0.0,0.0,0.0,0.0,0.0,0.0,0.0,0.0,0.0,0.0,0.0,0.0,0.0,0.0,0.0,0.0,0.0,0.0,0.0,0.0,0.0,0.0,0.0,0.0,0.0,0.0,0.0,0.0,0.0,0.0,0.0,0.0,0.0,0.0,0.0,0.0,0.0,0.0,0.0,0.0,0.0,0.0,0.0,0.0,0.0,0.0,0.0,0.0,0.0,0.0,0.0,0.0,0.0,0.0,0.0,0.0,0.0,0.0,0.0,0.0,0.0,0.0,0.0,0.0,0.0,0.0,0.0,-1.9332,-2.0975,-2.2031,-2.2405,-2.2512,-2.2338,-2.1376,-2.008,-1.8464,0.0,0.0,0.0,0.0,0.0,0.0,0.0,0.0,0.0,0.0,0.0,0.0,0.0,0.0,0.0,0.0,0.0,0.0,0.0,0.0,0.0,0.0,0.0,0.0,0.0,0.0,0.0,0.0,0.0,0.0,0.0,0.0,0.0,0.0,0.0,0.0,0.0,0.0,0.0,0.0,0.0,0.0,0.0,0.0,0.0,0.0,0.0,0.0,0.0,0.0,0.0,0.0,0.0,0.0,0.0,0.0,0.0,0.0,0.0,0.0,0.0,0.0,0.0,0.0,0.0,0.0,0.0,0.0,0.0,0.0,0.0,0.0,0.0,0.0,0.0,0.0,0.0,0.0,0.0,0.0,0.0,0.0,0.0,0.0,0.0,0.0,0.0,0.0,0.0,0.0,0.0,0.0,0.0,0.0,0.0,0.0,0.0,0.0,0.0,0.0,0.0,0.0,-1.7368,-1.9292,-2.0895,-2.1884,-2.2325,-2.2405,-2.2017,-2.1189,-1.988,-1.7996,0.0,0.0,0.0,0.0,0.0,0.0,0.0,0.0,0.0,0.0,0.0,0.0,0.0,0.0,0.0,0.0,0.0,0.0,0.0,0.0,0.0,0.0,0.0,0.0,0.0,0.0,0.0,0.0,0.0,0.0,0.0,0.0,0.0,0.0,0.0,0.0,0.0,0.0,0.0,0.0,0.0,0.0,0.0,0.0,0.0,0.0,0.0,0.0,0.0,0.0,0.0,0.0,0.0,0.0,0.0,0.0,0.0,0.0,0.0,0.0,0.0,0.0,0.0,0.0,0.0,0.0,0.0,0.0,0.0,0.0,0.0,0.0,0.0,0.0,0.0,0.0,0.0,0.0,0.0,0.0,0.0,0.0,0.0,0.0,0.0,0.0,0.0,0.0,0.0,0.0,0.0,0.0,0.0,0.0,0.0,0.0,0.0,0.0,0.0,0.0,0.0,0.0,-1.7395,-1.9653,-2.1336,-2.1924,-2.2512,-2.2619,-2.2031,-2.0655,-1.9172,0.0,0.0,0.0,0.0,0.0,0.0,0.0,0.0,0.0,0.0,0.0,0.0,0.0,0.0,0.0,0.0,0.0,0.0,0.0,0.0,0.0,0.0,0.0,0.0,0.0,0.0,0.0,0.0,0.0,0.0,0.0,0.0,0.0,0.0,0.0,0.0,0.0,0.0,0.0,0.0,0.0,0.0,0.0,0.0,0.0,0.0,0.0,0.0,0.0,0.0,0.0,0.0,0.0,0.0,0.0,0.0,0.0,0.0,0.0,0.0,0.0,0.0,0.0,0.0,0.0,0.0,0.0,0.0,0.0,0.0,0.0,0.0,0.0,0.0,0.0,0.0,0.0,0.0,0.0,0.0,0.0,0.0,0.0,0.0,0.0,0.0,0.0,0.0,0.0,0.0,0.0,0.0,0.0,0.0,0.0,0.0,0.0,0.0,0.0,0.0,0.0,0.0,0.0,-1.7662,-1.996,-2.1643,-2.2231,-2.2445,-2.2392,-2.2017,-2.1015,-1.9519,-1.746,0.0,0.0,0.0,0.0,0.0,0.0,0.0,0.0,0.0,0.0,0.0,0.0,0.0,0.0,0.0,0.0,0.0,0.0,0.0,0.0,0.0,0.0,0.0,0.0,0.0,0.0,0.0,0.0,0.0,0.0,0.0,0.0,0.0,0.0,0.0,0.0,0.0,0.0,0.0,0.0,0.0,0.0,0.0,0.0,0.0,0.0,0.0,0.0,0.0,0.0,0.0,0.0,0.0,0.0,0.0,0.0,0.0,0.0,0.0,0.0,0.0,0.0,0.0,0.0,0.0,0.0,0.0,0.0,0.0,0.0,0.0,0.0,0.0,0.0,0.0,0.0,0.0,0.0,0.0,0.0,0.0,0.0,0.0,0.0,0.0,0.0,0.0,0.0,0.0,0.0,0.0,0.0,0.0,0.0,0.0,0.0,0.0,0.0,0.0,0.0,0.0,0.0,-1.7756,-1.9987,-2.1643,-2.2338,-2.2525,-2.2432,-2.2017,-2.1283,-1.984,-1.7527,0.0,0.0,0.0,0.0,0.0,0.0,0.0,0.0,0.0,0.0,0.0,0.0,0.0,0.0,0.0,0.0,0.0,0.0,0.0,0.0,0.0,0.0,0.0,0.0,0.0,0.0,0.0,0.0,0.0,0.0,0.0,0.0,0.0,0.0,0.0,0.0,0.0,0.0,0.0,0.0,0.0,0.0,0.0,0.0,0.0,0.0,0.0,0.0,0.0,0.0,0.0,0.0,0.0,0.0,0.0,0.0,0.0,0.0,0.0,0.0,0.0,0.0,0.0,0.0,0.0,0.0,0.0,0.0,0.0,0.0,0.0,0.0,0.0,0.0,0.0,0.0,0.0,0.0,0.0,0.0,0.0,0.0,0.0,0.0,0.0,0.0,0.0,0.0,0.0,0.0,0.0,0.0,0.0,0.0,0.0,0.0,0.0,0.0,0.0,0.0,0.0,0.0,-1.7756,-1.9826,-2.1443,-2.2325,-2.2659,-2.2592,-2.2031,-2.1416,-2.008,-1.7769,0.0,0.0,0.0,0.0,0.0,0.0,0.0,0.0,0.0,0.0,0.0,0.0,0.0,0.0,0.0,0.0,0.0,0.0,0.0,0.0,0.0,0.0,0.0,0.0,0.0,0.0,0.0,0.0,0.0,0.0,0.0,0.0,0.0,0.0,0.0,0.0,0.0,0.0,0.0,0.0,0.0,0.0,0.0,0.0,0.0,0.0,0.0,0.0,0.0,0.0,0.0,0.0,0.0,0.0,0.0,0.0,0.0,0.0,0.0,0.0,-2.0367,-1.9611,0.0,0.0,0.0,0.0,0.0,0.0,0.0,0.0,0.0,0.0,0.0,0.0,0.0,0.0,0.0,0.0,0.0,0.0,0.0,0.0,0.0,0.0,0.0,0.0,0.0,0.0,0.0,0.0,0.0,0.0,0.0,0.0,0.0,0.0,0.0,0.0,0.0,0.0,0.0,0.0,-1.7716,-1.984,-2.1443,-2.2325,-2.2472,-2.2365,-2.2017,-2.1229,-1.996,-1.8009,-1.6286,0.0,0.0,0.0,0.0,0.0,0.0,0.0,0.0,0.0,0.0,0.0,0.0,0.0,0.0,0.0,0.0,0.0,0.0,0.0,0.0,0.0,0.0,0.0,0.0,0.0,0.0,0.0,0.0,0.0,0.0,0.0,0.0,0.0,0.0,0.0,0.0,0.0,0.0,0.0,0.0,0.0,0.0,0.0,0.0,0.0,0.0,0.0,0.0,0.0,0.0,0.0,0.0,0.0,0.0,0.0,0.0,0.0,0.0,0.0,-2.2432,-2.1643,0.0,0.0,0.0,0.0,0.0,0.0,0.0,0.0,0.0,0.0,0.0,0.0,0.0,0.0,0.0,0.0,0.0,0.0,0.0,0.0,0.0,0.0,0.0,0.0,0.0,0.0,0.0,0.0,0.0,0.0,0.0,0.0,0.0,0.0,0.0,0.0,0.0,0.0,0.0,0.0,-1.7969,-1.98,-2.1243,-2.2111,-2.2205,-2.2098,-2.1804,-2.1109,-2.004,-1.8502,-1.6927,0.0,0.0,0.0,0.0,0.0,0.0,0.0,0.0,0.0,0.0,0.0,0.0,0.0,0.0,0.0,0.0,0.0,0.0,0.0,0.0,0.0,0.0,0.0,0.0,0.0,0.0,0.0,0.0,0.0,0.0,0.0,0.0,0.0,0.0,0.0,0.0,0.0,0.0,0.0,0.0,0.0,0.0,0.0,0.0,0.0,0.0,0.0,0.0,0.0,0.0,0.0,0.0,0.0,-2.2831,-2.3947,-2.5611,-2.5611,-2.5651,-2.5625,-2.4396,-2.3741,-2.3474,-2.2392,0.0,0.0,0.0,0.0,0.0,0.0,0.0,0.0,0.0,0.0,0.0,0.0,0.0,0.0,0.0,0.0,0.0,0.0,0.0,0.0,0.0,0.0,-1.9145,-1.9332,-1.9746,-1.9546,-1.7488,0.0,0.0,0.0,0.0,0.0,0.0,0.0,0.0,0.0,0.0,0.0,-1.8196,-1.9773,-2.0989,-2.1817,-2.1911,-2.1817,-2.1641,-2.0962,-2.016,-1.9145,-1.7675,-1.6273,0.0,0.0,0.0,0.0,0.0,0.0,0.0,0.0,0.0,0.0,0.0,0.0,0.0,0.0,0.0,0.0,0.0,0.0,0.0,0.0,0.0,0.0,0.0,0.0,0.0,0.0,0.0,0.0,0.0,0.0,0.0,0.0,-1.1111,-1.0847,0.0,0.0,0.0,0.0,0.0,0.0,0.0,0.0,0.0,0.0,0.0,0.0,0.0,-1.7945,-1.8355,-2.352,-2.6108,-2.6096,-2.7165,-2.7755,-2.7819,-2.7819,-2.7883,-2.8136,-2.7936,0.0,-2.4409,-2.3754,0.0,0.0,0.0,0.0,0.0,0.0,0.0,0.0,0.0,0.0,0.0,0.0,0.0,0.0,0.0,0.0,0.0,0.0,0.0,0.0,0.0,0.0,-2.147,-2.132,-2.1333,-2.1159,-2.0267,-1.8277,-1.642,-1.5584,-1.4852,-1.4082,0.0,0.0,0.0,0.0,0.0,0.0,-1.825,-1.9773,-2.0922,-2.1601,-2.1681,-2.1655,-2.1614,-2.0775,-2.012,-1.9706,-1.829,-1.7154,-1.6446,-1.4843,0.0,0.0,0.0,0.0,0.0,0.0,0.0,0.0,0.0,0.0,0.0,0.0,0.0,0.0,0.0,0.0,0.0,0.0,0.0,0.0,0.0,0.0,0.0,0.0,0.0,0.0,0.0,0.0,0.0,-1.0744,-1.128,-1.0914,-1.1226,-1.1118,0.0,0.0,0.0,0.0,0.0,0.0,0.0,0.0,0.0,-1.2474,-1.7125,-1.9789,-2.0089,-2.524,-2.7776,-2.7829,-2.835,-2.8617,-2.8644,-2.8644,-2.8724,-2.8858,-2.9032,-2.815,-2.652,-2.5438,-2.3955,-2.2231,0.0,0.0,0.0,0.0,-2.0214,-2.0374,-2.1496,-2.159,-2.1149,-2.0797,0.0,0.0,0.0,0.0,0.0,0.0,0.0,-1.8704,-1.9666,-2.0695,-2.159,-2.1951,-2.2044,-2.1924,-2.1496,-2.0241,-1.8704,-1.7114,-1.65,-1.5645,-1.3733,-1.3614,0.0,0.0,0.0,-1.6901,-1.8531,-1.9586,-2.0414,-2.1065,-2.0909,-2.0815,-2.0815,-2.0307,-1.9867,-1.9573,-1.8637,-1.7822,-1.7221,-1.5992,-1.4794,0.0,0.0,0.0,0.0,0.0,0.0,0.0,0.0,0.0,0.0,0.0,0.0,0.0,0.0,0.0,0.0,0.0,0.0,0.0,0.0,0.0,0.0,0.0,0.0,0.0,0.0,0.0,0.0,-1.105,-1.1592,-1.115,-1.1708,-1.1694,0.0,0.0,0.0,0.0,0.0,0.0,-1.2203,-1.2488,-1.2901,-1.3498,-1.8318,-2.103,-2.1297,-2.6093,-2.8564,-2.8724,-2.8724,-2.8831,-2.9045,-2.9045,-2.9045,-2.9045,-2.9272,-2.8951,-2.8248,-2.6921,-2.5411,-2.3781,-2.2752,-2.1977,-2.1523,-2.203,-2.2191,-2.2392,-2.3728,-2.3821,-2.322,-2.2552,-2.159,-2.0347,-1.864,0.0,0.0,0.0,0.0,-1.9359,-2.0668,-2.1229,-2.163,-2.2352,-2.2539,-2.2432,-2.2071,-2.159,-2.0628,-1.8651,-1.8076,-1.7248,-1.5078,-1.4892,0.0,-1.499,-1.6086,-1.7435,-1.8851,-1.9479,-2.0,-2.0508,-2.0361,-2.0167,-2.0167,-1.996,-1.9679,-1.9444,-1.8811,-1.825,-1.7716,-1.6927,-1.5885,-1.4563,0.0,0.0,0.0,0.0,0.0,0.0,0.0,0.0,0.0,0.0,0.0,0.0,0.0,0.0,0.0,0.0,0.0,0.0,0.0,0.0,0.0,0.0,0.0,0.0,0.0,0.0,0.0,0.0,0.0,-1.1857,-1.2691,0.0,0.0,0.0,0.0,-1.1972,-1.2393,-1.284,-1.3295,-1.3471,-1.3831,-1.4428,-1.9211,-2.1883,-2.2041,-2.6952,-2.9285,-2.9018,-2.9018,-2.9032,-2.9045,-2.9045,-2.9045,-2.9045,-2.9058,-2.8885,-2.8537,-2.7883,-2.6734,-2.5344,-2.4716,-2.4128,-2.3621,-2.3647,-2.3661,-2.3714,-2.4075,-2.3821,-2.346,-2.4235,-2.3313,-2.1724,-2.0788,-1.998,0.0,0.0,-2.0334,-2.0775,-2.1683,-2.2138,-2.2432,-2.2766,-2.2846,-2.2686,-2.2111,-2.175,-2.1306,-2.0281,-1.9426,-1.8624,-1.7916,0.0,-1.678,-1.7328,-1.7475,-1.7969,-1.9243,-1.9613,-1.992,-2.0167,-2.0241,-2.0167,-2.0167,-1.996,-1.9679,-1.9444,-1.8811,-1.8343,-1.7982,-1.7435,-1.6673,-1.5718,-1.4266,0.0,0.0,0.0,0.0,0.0,0.0,0.0,0.0,0.0,0.0,0.0,0.0,0.0,0.0,0.0,0.0,0.0,0.0,0.0,0.0,0.0,0.0,0.0,0.0,0.0,0.0,0.0,0.0,-1.2433,-1.3254,0.0,-1.2698,-1.2664,-1.28,-1.3051,-1.3302,-1.3682,-1.4231,-1.4217,-1.4387,-1.4794,-1.9446,-2.1937,-2.2,-2.6596,-2.8871,-2.8764,-2.8564,-2.8457,-2.8457,-2.8457,-2.8457,-2.847,-2.8671,-2.8484,-2.8016,-2.7989,-2.7335,-2.6319,-2.5919,-2.5411,-2.489,-2.489,-2.501,-2.5273,-2.5291,-2.5064,-2.4636,-2.3995,-2.31,-2.2138,-2.1443,-2.1149,-2.1096,-2.1309,-2.1577,-2.1911,-2.2418,-2.2632,-2.2726,-2.2832,-2.2928,-2.2699,-2.2111,-2.1897,-2.163,-2.0935,-2.0241,-1.9399,-1.8182,-1.825,-1.817,-1.7474,-1.7956,-1.8664,-1.935,-1.9452,-1.9639,-1.992,-1.9786,-1.9599,-1.9412,-1.9292,-1.9118,-1.8824,-1.8424,-1.8102,-1.7995,-1.7649,-1.7021,-1.6126,-1.5231,-1.3814,0.0,0.0,0.0,0.0,0.0,0.0,0.0,0.0,0.0,0.0,0.0,0.0,0.0,0.0,0.0,0.0,0.0,0.0,0.0,0.0,0.0,0.0,0.0,0.0,0.0,-1.2074,-1.2956,-1.2956,-1.3749,-1.4082,-1.3526,-1.3526,-1.3654,-1.3905,-1.4014,-1.4265,-1.4713,-1.459,-1.4631,-1.4889,-1.8682,-2.0622,-2.0533,-2.5161,-2.741,-2.7307,-2.7891,-2.8181,-2.7989,-2.7989,-2.7936,-2.7939,-2.807,-2.7923,-2.7562,-2.7762,-2.7442,-2.68,-2.6613,-2.6239,-2.5812,-2.5812,-2.5932,-2.6079,-2.5879,-2.5678,-2.5304,-2.4035,-2.3354,-2.2926,-2.2445,-2.2499,-2.2565,-2.2458,-2.2579,-2.2752,-2.2846,-2.2928,-2.2928,-2.2928,-2.2928,-2.2699,-2.2111,-2.1991,-2.1804,-2.1229,-2.0722,-2.008,-1.9105,-1.9172,-1.9122,-1.8238,-1.8544,-1.9025,-1.939,-1.943,-1.9497,-1.9639,-1.9479,-1.9239,-1.8945,-1.8838,-1.8651,-1.8357,-1.7969,-1.7702,-1.7543,-1.7301,-1.678,-1.5992,-1.5204,-1.3881,-1.2011,0.0,0.0,0.0,0.0,0.0,0.0,0.0,0.0,0.0,0.0,0.0,0.0,0.0,0.0,0.0,0.0,0.0,0.0,0.0,0.0,0.0,0.0,0.0,-1.1606,-1.2664,-1.3424,-1.3444,-1.4224,-1.4584,-1.4163,-1.4245,-1.438,-1.4516,-1.4516,-1.4577,-1.4733,-1.459,-1.4577,-1.4726,-1.6973,-1.8203,-1.8122,-2.277,-2.5012,-2.485,-2.7084,-2.7976,-2.7682,-2.7682,-2.7535,-2.7268,-2.7268,-2.7268,-2.7255,-2.7255,-2.7081,-2.6814,-2.6814,-2.664,-2.6386,-2.6386,-2.6386,-2.6306,-2.5718,-2.5518,-2.5371,-2.4502,-2.4222,-2.4168,-2.3875,-2.3781,-2.3728,-2.342,-2.334,-2.326,-2.2953,-2.2941,-2.2928,-2.2928,-2.2928,-2.2699,-2.2111,-2.1991,-2.1804,-2.1229,-2.0882,-2.0681,-2.0668,-1.996,-1.9479,-1.9746,-1.9305,0.0,-1.939,-1.943,-1.943,-1.943,-1.943,-1.9239,-1.8931,-1.8651,-1.8357,-1.8036,-1.7514,-1.7058,-1.6777,-1.6482,-1.6005,-1.5418,-1.4199,-1.3213,-1.2368,0.0,0.0,0.0,0.0,0.0,0.0,0.0,0.0,0.0,0.0,0.0,0.0,0.0,0.0,0.0,0.0,0.0,0.0,0.0,0.0,0.0,-1.1294,-1.2047,-1.2237,-1.3105,-1.3926,-1.4475,-1.4848,-1.5099,-1.5201,-1.495,-1.4801,-1.4841,-1.4638,-1.4577,-1.4733,-1.4496,-1.4428,-1.457,-1.6711,-1.8707,-2.0269,-2.3312,-2.5519,-2.6884,-2.7566,-2.7669,-2.7388,-2.7388,-2.7348,-2.7268,-2.7268,-2.7148,-2.6947,-2.6947,-2.6774,-2.6533,-2.6734,-2.664,-2.6386,-2.6386,-2.6386,-2.6306,-2.5718,-2.5518,-2.5398,-2.473,-2.4516,-2.4462,-2.4168,-2.4088,-2.4022,-2.3728,-2.3487,-2.33,-2.322,-2.3033,-2.2928,-2.2928,-2.2928,-2.2699,-2.2111,-2.1991,-2.1804,-2.1229,-2.1042,-2.0855,-2.0428,-2.016,-1.988,-1.9533,-1.9345,-1.9279,-1.9417,-1.943,-1.943,-1.943,-1.943,-1.9158,-1.8651,-1.8544,-1.855,-1.872,-1.753,-1.7278,-1.8311,-1.7021,-1.6099,-1.5712,-1.4306,-1.3761,0.0,0.0,0.0,0.0,0.0,0.0,0.0,0.0,0.0,0.0,0.0,0.0,0.0,0.0,0.0,0.0,0.0,0.0,0.0,0.0,0.0,0.0,-1.2162,-1.2969,-1.3295,-1.379,-1.4353,-1.4984,-1.5133,-1.5255,-1.5432,-1.5099,-1.4848,-1.478,-1.4557,-1.4462,-1.455,-1.4394,-1.434,-1.4421,-1.6601,-1.8453,-1.9749,-2.2942,-2.5047,-2.6254,-2.7149,-2.7362,-2.7081,-2.7081,-2.7014,-2.6894,-2.6894,-2.68,-2.664,-2.664,-2.6547,-2.6413,0.0,0.0,0.0,0.0,-2.6319,-2.6146,-2.5678,-2.5438,-2.5251,-2.4783,-2.4636,-2.4609,-2.4436,-2.4382,-2.4329,-2.4035,-2.3741,-2.3487,-2.3367,-2.31,-2.2928,-2.2928,-2.2928,-2.2699,-2.2111,-2.1991,-2.1804,-2.1229,-2.1109,0.0,-2.0494,-2.0307,-2.012,-1.9786,-1.9519,-1.943,-1.943,-1.943,-1.943,-1.943,-1.943,-1.9172,-1.8718,-1.845,0.0,0.0,0.0,-1.6959,-1.7619,-1.6402,0.0,0.0,0.0,0.0,0.0,-1.5564,0.0,0.0,-1.3428,-1.3509,0.0,0.0,0.0,0.0,0.0,0.0,0.0,0.0,0.0,0.0,0.0,0.0,0.0,0.0,0.0,0.0,-1.2996,-1.3878,-1.4455,-1.455,-1.4726,-1.516,-1.5181,-1.5167,-1.5181,-1.4896,-1.4658,-1.4523,-1.438,-1.4299,-1.4299,-1.4299,0.0,0.0,0.0,-1.8008,-1.8505,-2.2278,-2.4268,-2.4544,-2.6337,-2.7054,-2.6774,-2.6774,-2.664,-2.6386,-2.6386,-2.6386,-2.6386,-2.6386,-2.6386,-2.6386,-2.6386,-2.6386,-2.6386,-2.6386,-2.6199,-2.5919,-2.5611,0.0,0.0,-2.473,-2.4636,-2.4636,-2.4636,-2.4636,-2.4569,-2.4289,-2.3995,-2.3701,-2.3407,-2.31,-2.2928,-2.2928,-2.2928,-2.2699,-2.2111,-2.1991,-2.1804,-2.1229,-2.1109,-2.1092,-2.101,-2.0577,-2.0167,-2.0187,-1.9883,-1.9591,-1.943,-1.9707,-1.9764,-1.943,-1.9533,0.0,-1.8945,-1.8355,-1.8063,-1.8158,-1.7414,-1.6635,-1.5899,-1.5444,-1.5389,-1.5716,-1.6899,-1.7888,-1.8673,-1.9556,-2.0217,-2.0564,-1.5835,-1.5281,0.0,0.0,0.0,0.0,0.0,0.0,0.0,0.0,0.0,0.0,0.0,0.0,0.0,0.0,0.0,-1.2332,-1.3302,-1.415,-1.4631,-1.4801,-1.5004,-1.533,-1.516,-1.5059,-1.5174,-1.4801,-1.4543,-1.4516,-1.438,-1.4299,-1.4299,-1.4299,-1.5168,-1.7071,-1.7588,-1.9501,-2.2925,-2.381,-2.4936,-2.6326,-2.6692,0.0,-2.6466,-2.6466,-2.644,-2.6386,-2.6386,-2.6386,-2.6386,-2.6386,-2.6386,-2.6386,-2.6386,-2.6386,-2.6386,-2.6386,-2.6199,-2.5919,-2.5611,-2.5317,-2.5037,-2.473,-2.4636,-2.4636,-2.4636,-2.4636,0.0,-2.4289,-2.3995,-2.3701,-2.3407,-2.31,-2.2928,-2.2928,-2.2928,-2.2699,-2.2111,-2.1991,-2.1804,-2.1229,-2.1109,-2.1524,-2.2817,-2.1483,-2.0147,-1.992,-2.0596,-2.0759,-1.9533,-2.1487,-2.204,-1.9649,-2.0486,-2.0573,-1.9001,-1.8611,-1.8618,-1.9098,-1.8753,-1.7832,-1.6254,-1.6589,-1.7056,-1.7746,-1.7983,-1.9018,-2.0887,-2.0428,-2.1211,-2.3055,-1.9952,-1.9353,0.0,0.0,0.0,0.0,0.0,0.0,0.0,0.0,0.0,0.0,0.0,-1.0521,-1.0975,0.0,-1.2474,-1.3071,-1.3804,-1.4373,-1.459,-1.4828,-1.5025,-1.5174,-1.5059,-1.4936,-1.4855,-1.4645,-1.4482,-1.4414,-1.434,-1.4299,-1.4299,-1.4231,-1.5221,-1.7446,-1.8637,-2.0752,-2.3948,-2.4992,-2.5942,-2.6827,-2.668,-2.6533,-2.6386,-2.6386,-2.6386,-2.6386,-2.6386,-2.6386,-2.6386,-2.6386,-2.6386,-2.6386,-2.6386,-2.6386,-2.6373,-2.6226,-2.5985,-2.5692,-2.5398,-2.5104,-2.4836,-2.469,-2.4636,-2.4636,-2.4636,-2.4636,-2.4569,-2.4289,-2.3995,-2.3701,-2.3407,-2.31,-2.2928,-2.2928,-2.2928,-2.2699,-2.2111,-2.1991,-2.1804,-2.1229,-2.179,-2.2654,-2.345,-2.3216,-2.2527,-2.1401,-2.2088,-2.2153,-2.0702,-2.1813,-2.2153,-2.0644,-2.1145,-2.0915,-1.9273,-1.8744,-1.8496,-1.8489,-1.8269,-1.7719,-1.6777,-1.7538,-1.8188,-1.8754,-2.0103,-2.1401,-2.2604,-2.2851,-2.3578,-2.4719,-2.342,-2.2982,0.0,0.0,0.0,0.0,0.0,0.0,0.0,0.0,-1.0086,-1.0534,-1.0887,-1.1335,-1.206,-1.2583,-1.3112,-1.3736,-1.4217,-1.4509,-1.4509,-1.4746,-1.4916,-1.4882,-1.4882,-1.478,-1.4536,-1.4462,-1.438,-1.4265,-1.4224,-1.4386,-1.4819,-1.4785,-1.5902,-1.8452,-2.0308,-2.2211,-2.4339,-2.6031,-2.676,-2.6653,-2.6413,-2.6279,-2.6213,-2.6213,-2.6253,-2.6306,-2.636,-2.6386,-2.6386,-2.6386,-2.6386,-2.6386,-2.6386,-2.636,-2.6279,-2.6039,-2.5732,-2.5398,-2.5157,-2.489,-2.4636,-2.4636,-2.4636,-2.4636,-2.4636,-2.4636,-2.4569,-2.4222,-2.3955,-2.3688,-2.3327,-2.3046,-2.2928,-2.2928,-2.2928,-2.2835,-2.2561,-2.2504,-2.2377,-2.209,-2.3139,-2.4178,-2.4486,-2.5342,-2.5383,-2.3405,-2.3852,-2.3792,-2.2209,-2.2307,-2.2363,-2.2081,-2.204,-2.1514,-2.0287,-1.9388,-1.8673,-1.8165,-1.7603,-1.7286,-1.7286,-1.8297,-1.9119,-1.9679,-2.212,-2.3621,-2.4097,-2.5167,-2.5693,-2.5693,-2.5693,-2.5547,-0.9469,-0.932,-0.9442,-0.9686,-0.9761,-1.0086,0.0,0.0,-1.1321,-1.1769,-1.2203,-1.2535,-1.2637,-1.3132,-1.36,-1.3804,-1.4217,-1.4509,-1.4509,-1.4658,-1.4713,-1.4577,-1.4563,-1.455,-1.4516,-1.4272,-1.4116,-1.4095,-1.3973,-1.4743,-1.6694,-1.6754,-1.8678,-2.2954,-2.3347,-2.4386,-2.6464,-2.668,-2.656,-2.6052,-2.6026,-2.5865,-2.5611,-2.5611,-2.5758,-2.609,-2.6279,-2.6386,-2.6386,-2.6386,-2.6386,-2.6386,-2.6386,-2.6226,-2.6077,-2.605,-2.5611,-2.5117,-2.509,-2.489,-2.4636,-2.4636,-2.4636,-2.4636,-2.4636,-2.4636,-2.4516,-2.3968,-2.3794,-2.3634,-2.306,-2.2886,-2.2928,-2.2928,-2.2928,-2.3093,-2.3978,-2.4157,-2.44,-2.5258,-2.5619,-2.6167,-2.7632,-2.7671,-2.6871,-2.4961,-2.5668,-2.5663,-2.3815,-2.4765,-2.5041,-2.371,-2.3543,-2.3357,-2.2993,-2.1425,-2.0288,-2.0038,-1.8468,-1.7542,-1.7542,-1.883,-2.0087,-2.1391,-2.2915,-2.4258,-2.5479,-2.5645,-2.5693,-2.5693,-2.5693,-2.5654,-1.0378,-1.0161,0.0,0.0,-1.0799,-1.1158,-1.1816,-1.1938,-1.202,-1.2379,-1.2671,-1.2915,-1.3091,-1.3464,-1.3797,-1.3953,-1.4278,-1.4482,-1.4401,-1.4441,-1.4428,-1.4272,-1.4177,-1.4156,-1.4245,-1.4143,-1.4034,-1.3946,-1.3878,-1.4771,-1.6968,-1.7028,-1.9042,-2.3435,-2.3458,-2.4392,-2.6573,-2.64,-2.6199,-2.6037,-2.5785,-2.5638,-2.5518,-2.5518,-2.5585,-2.5718,-2.6012,-2.6132,-2.6132,-2.6132,-2.6239,-2.6373,-2.6199,-2.5959,-2.5692,-2.5692,-2.5438,-2.505,-2.4877,-2.4743,-2.4636,-2.4636,-2.4636,-2.4636,-2.4636,-2.4636,-2.4556,-2.4142,-2.3901,-2.3674,-2.3247,-2.2993,-2.2928,-2.2928,-2.2928,-2.3283,-2.454,-2.4615,-2.4781,-2.6104,-2.6925,-2.7632,-2.8289,-2.9087,-2.9254,-2.8152,-2.7958,-2.7382,-2.5702,-2.586,-2.5882,-2.5206,-2.4322,-2.406,-2.4611,-2.2439,-2.0783,-2.031,-1.9526,-1.8945,-1.8774,-2.0845,-2.2265,-2.2868,-2.4196,-2.5118,-2.5693,-2.5693,-2.5693,-2.5693,-2.5693,-2.5693,-1.0604,0.0,0.0,-1.1131,-1.1626,-1.2067,-1.2264,-1.2427,-1.2603,-1.2861,-1.2969,-1.3098,-1.3356,-1.3573,-1.3783,-1.3973,-1.4224,-1.4367,-1.4306,-1.4265,-1.4183,-1.4027,-1.3871,-1.381,-1.3878,-1.3926,-1.3905,-1.379,-1.4245,-1.5555,-1.7732,-1.8339,-2.0303,-2.415,-2.4049,-2.4723,-2.6266,-2.6066,-2.5956,-2.5718,-2.5491,-2.5344,-2.5277,-2.5358,-2.5438,-2.5531,-2.5825,-2.5999,-2.6079,-2.6079,-2.6146,-2.6253,-2.6117,-2.5732,-2.5398,-2.5398,-2.5211,-2.493,-2.4716,-2.4636,-2.4636,-2.4636,-2.4636,-2.4636,-2.4636,-2.4636,-2.4569,-2.4289,-2.4048,-2.3808,-2.342,-2.3153,-2.2966,-2.2954,-2.3256,-2.4043,-2.5429,-2.5872,-2.6391,-2.7683,-2.8666,-2.9227,-2.9116,-3.0079,-3.0781,-3.043,-2.9746,-2.8793,-2.7475,-2.6975,-2.6554,-2.6155,-2.5426,-2.5375,-2.6291,-2.3561,-2.176,-2.174,-2.0741,-2.0174,-2.0348,-2.2485,-2.3683,-2.3683,-2.502,-2.5693,-2.5693,-2.5693,-2.5693,-2.5693,-2.5693,-2.5693,0.0,0.0,-1.1179,-1.1341,-1.1938,-1.2562,-1.2861,-1.3044,-1.3193,-1.3349,-1.3268,-1.3214,-1.337,-1.341,-1.3512,-1.3797,-1.398,-1.4136,-1.4278,-1.417,-1.4021,-1.3865,-1.3722,-1.358,-1.3437,-1.3553,-1.3641,-1.3634,-1.5376,-1.7483,-1.9684,-2.1775,-2.3964,-2.6241,-2.6307,-2.6174,-2.605,-2.6037,-2.5678,-2.5104,-2.5104,-2.4943,-2.4676,-2.4957,-2.5251,-2.5531,-2.5825,-2.6119,-2.6373,-2.6373,-2.6213,-2.605,-2.6037,-2.5598,-2.509,-2.509,-2.4903,-2.4649,-2.4562,-2.4636,-2.4636,-2.4636,-2.4636,-2.4636,-2.4636,-2.4636,-2.4569,-2.4289,-2.4195,-2.4062,-2.3474,-2.3313,-2.3233,-2.2939,-2.4181,-2.5814,-2.7117,-2.8776,-3.0273,-3.118,-3.1385,-3.1308,-3.0898,-3.0879,-3.0879,-3.0879,-3.0469,-2.9863,-2.8969,-2.8501,-2.7672,-2.6264,-2.733,-2.8174,-2.8208,-2.5199,-2.3928,-2.5361,-2.2054,-2.0755,-2.2152,-2.3178,-2.3683,-2.3683,-2.502,-2.5693,-2.5693,-2.5693,-2.5693,-2.5693,-2.5693,-2.5693,0.0,0.0,-1.1714,-1.2169,-1.2617,-1.3003,-1.3207,-1.3288,-1.3308,-1.3261,-1.3051,-1.2861,-1.2813,-1.2888,-1.3024,-1.3227,-1.3627,-1.3973,-1.4129,-1.4102,-1.398,-1.3729,-1.3566,-1.3383,-1.3132,-1.3336,-1.3478,-1.3478,-1.5381,-1.7547,-1.9745,-2.1925,-2.4038,-2.6106,-2.6106,-2.5959,-2.5665,-2.5464,-2.5277,-2.5077,-2.4877,-2.473,-2.4649,-2.4943,-2.5024,-2.4943,-2.5251,-2.5424,-2.5518,-2.5518,-2.5571,-2.5638,-2.5451,-2.5251,-2.5064,-2.4863,-2.4716,-2.4636,-2.4636,-2.4636,-2.4636,-2.4636,-2.4636,-2.4636,-2.4636,-2.4636,-2.4609,-2.4516,-2.4356,-2.4115,-2.3728,-2.3474,-2.3525,-2.4402,-2.5046,-2.6275,-2.9107,-2.9992,-3.0552,-3.1747,-3.1719,-3.1387,-3.0957,-3.0898,-3.0898,-3.0898,-3.0254,-2.957,-2.9004,-2.8555,-2.8121,-2.7618,-2.8014,-2.8301,-2.8301,-2.6371,-2.5289,-2.5575,-2.4332,-2.3771,-2.4104,-2.4974,-2.5488,-2.5488,-2.5634,-2.5693,-2.5693,-2.5693,-2.5693,-2.5693,-2.5693,-2.5693,-1.1348,-1.1843,-1.2284,-1.2834,-1.3152,-1.3363,-1.3458,-1.3397,-1.3261,-1.3057,-1.2739,-1.2427,-1.2223,-1.2223,-1.2372,-1.2739,-1.3207,-1.3654,-1.4021,-1.4021,-1.3899,-1.3654,-1.3444,-1.3247,-1.3057,-1.3159,-1.3589,-1.437,-1.654,-1.8732,-2.0761,-2.2931,-2.4655,-2.5812,-2.5798,-2.5651,-2.5358,-2.517,-2.5024,-2.4917,-2.473,-2.4636,-2.4649,-2.4836,-2.4877,-2.481,-2.4997,-2.5144,-2.5237,-2.5237,-2.5277,-2.5344,-2.5157,-2.501,-2.4903,-2.4703,-2.4636,-2.4636,-2.4636,-2.4636,-2.4636,-2.4636,-2.4636,-2.4636,-2.4636,-2.4636,-2.4636,-2.4636,-2.4502,-2.4289,-2.3995,-2.3701,-2.3814,-2.531,-2.6063,-2.7238,-3.0189,-3.1102,-3.1584,-3.2277,-3.2051,-3.1621,-3.1191,-3.0996,-3.0898,-3.0898,-3.0273,-2.9648,-2.9199,-2.8789,-2.8457,-2.832,-2.8301,-2.8301,-2.8301,-2.6933,-2.6209,-2.6561,-2.5861,-2.5554,-2.5945,-2.6359,-2.6602,-2.6602,-2.6348,-2.6142,-2.6142,-2.6142,-2.6142,-2.6142,-2.6142,-2.6142,-1.1748,-1.2311,-1.2874,-1.3315,-1.3526,-1.3627,-1.362,-1.3376,-1.3064,-1.2759,-1.2325,-1.1904,0.0,0.0,-1.1599,-1.2338,-1.2745,-1.3227,-1.3946,-1.3933,-1.379,-1.3634,-1.3363,-1.318,-1.3166,-1.3051,-1.3982,-1.6368,-1.8636,-2.067,-2.2449,-2.4737,-2.5798,-2.5504,-2.5491,-2.5344,-2.5064,-2.5064,-2.4917,-2.4636,-2.4636,-2.4636,-2.4636,-2.4636,-2.4796,-2.5064,-2.5064,-2.5211,-2.5464,-2.5464,-2.5304,-2.5064,-2.5064,-2.489,-2.4636,-2.4636,-2.4636,-2.4636,-2.4636,-2.4636,-2.4636,-2.4636,-2.4636,-2.4636,-2.4636,-2.4636,-2.4636,-2.4636,-2.4636,-2.4569,-2.4421,-2.4125,-2.4312,-2.5894,-2.7359,-2.8821,-3.0578,-3.2237,-3.3301,-3.2871,-3.2441,-3.2012,-3.1582,-3.1172,-3.0898,-3.0898,-3.0508,-3.0078,-2.9648,-2.9219,-2.8789,-2.8379,-2.832,-2.832,-2.8301,-2.6987,-2.6825,-2.8228,-2.6579,-2.6197,-2.7695,-2.7285,-2.7051,-2.7051,-2.7031,-2.7012,-2.7012,-2.7012,-2.7012,-2.7012,-2.7012,-2.7012,-1.2291,-1.2854,-1.3308,-1.3648,-1.3682,-1.36,-1.3485,-1.3139,-1.2725,-1.2318,-1.1606,-1.1002,0.0,0.0,0.0,-1.1742,-1.2562,0.0,-1.3682,-1.3899,0.0,-1.3505,-1.339,-1.3254,-1.3037,-1.3078,-1.4731,-1.8535,-1.9155,-1.9689,-2.0268,-2.368,-2.5491,-2.5197,-2.5197,-2.505,-2.4756,-2.4756,-2.4716,-2.4636,-2.4636,-2.4636,-2.4636,-2.4636,-2.4676,-2.4756,-2.4756,-2.4796,-2.4863,-2.4863,-2.481,-2.4756,-2.4756,-2.4703,-2.4636,-2.4636,-2.4636,-2.4636,-2.4636,-2.4636,-2.4636,-2.4636,-2.4636,-2.4636,-2.4636,-2.4636,-2.4636,-2.4636,-2.4636,-2.485,-2.6013,-2.5981,-2.6484,-2.9328,-3.0079,-3.0578,-3.2365,-3.3082,-3.3301,-3.2871,-3.2187,-3.1641,-3.1543,-3.1172,-3.0898,-3.0898,-3.0801,-3.0547,-3.0098,-2.9668,-2.9238,-2.8809,-2.8769,-2.8633,-2.832,-2.796,-2.7887,-2.8301,-2.7844,-2.7733,-2.8125,-2.7715,-2.75,-2.75,-2.7187,-2.7012,-2.7012,-2.7012,-2.7012,-2.7012,-2.7012,-2.7012,-1.2813,-1.3302,-1.3634,-1.3797,-1.3736,-1.3519,-1.3098,-1.2657,-1.2135,-1.143,-1.0772,0.0,-0.9958,-1.0134,-1.0548,0.0,0.0,0.0,-1.3458,-1.3729,-1.3783,0.0,-1.3444,-1.3336,-1.3173,-1.3166,-1.4645,-1.8096,-1.8946,-2.0179,-2.2018,-2.4137,-2.5184,-2.489,-2.489,-2.481,-2.4636,-2.4636,-2.4636,-2.4636,-2.4636,-2.4636,-2.4636,-2.4636,-2.4636,-2.4636,-2.4636,-2.4636,-2.4636,-2.4636,-2.4636,-2.4636,-2.4636,-2.4636,-2.4636,-2.4636,-2.4636,-2.4636,-2.4636,-2.4636,-2.4636,-2.4636,-2.4636,-2.4636,-2.4636,-2.4636,-2.4636,-2.4636,-2.4636,-2.5024,-2.6763,-2.6777,-2.7262,-3.0825,-3.1204,-3.1304,-3.3019,-3.3418,-3.3301,-3.2871,-3.2402,-3.1953,-3.1582,-3.1328,-3.1094,-3.0918,-3.0898,-3.0801,-3.0527,-3.0117,-2.9687,-2.9258,-2.9199,-2.9023,-2.8613,-2.8574,-2.8496,-2.8301,-2.8301,-2.8301,-2.8301,-2.8066,-2.793,-2.793,-2.7695,-2.7578,-2.7578,-2.7578,-2.7578,-2.7578,-2.7578,-2.7578,-1.3275,-1.3648,-1.3871,-1.3871,-1.3736,-1.3403,-1.2644,-1.2081,-1.143,-1.0426,0.0,-0.9557,-0.9191,-0.9476,-1.0025,-1.0752,0.0,-1.2522,-1.3268,-1.3505,-1.36,-1.36,-1.3485,-1.3403,-1.3403,-1.3281,-1.4304,-1.6884,-1.8532,-2.1088,-2.4892,-2.5046,-2.4903,-2.4649,-2.4636,-2.4636,-2.4636,-2.4636,-2.4636,-2.4636,-2.4636,-2.4636,-2.4636,-2.4636,-2.4636,-2.4636,-2.4636,-2.4636,-2.4636,-2.4636,-2.4636,-2.4636,-2.4636,-2.4636,-2.4636,-2.4636,-2.4636,-2.4636,-2.4636,-2.4636,-2.4636,-2.4636,-2.4636,-2.4636,-2.4636,-2.4636,-2.4636,-2.4918,-2.4991,-2.5492,-2.7707,-2.7737,-2.8079,-3.1513,-3.1786,-3.1653,-3.3179,-3.3457,-3.332,-3.2949,-3.2832,-3.2559,-3.1816,-3.1641,-3.1465,-3.1035,-3.0976,-3.0957,-3.0898,-3.0527,-3.0117,-2.9707,-2.9648,-2.9473,-2.9043,-2.9004,-2.8848,-2.8476,-2.8398,-2.8379,-2.8379,-2.832,-2.8301,-2.8301,-2.8301,-2.8301,-2.8301,-2.8301,-2.8301,-2.8301,-2.8301,-2.8301,-1.3492,-1.3804,-1.4034,-1.4034,-1.3736,-1.3247,-1.2494,-1.1694,0.0,0.0,-0.9367,-0.892,-0.8967,-0.9239,-0.9781,-1.0718,0.0,-1.2359,-1.3105,-1.3342,-1.3444,0.0,-1.3417,-1.3403,-1.3403,-1.3376,-1.4998,-1.9014,-1.9195,-2.021,-2.2698,-2.4008,-2.469,-2.4636,-2.4636,-2.4636,-2.4636,-2.4636,-2.4636,-2.4636,-2.4636,-2.4636,-2.4636,-2.4636,-2.4636,-2.4636,-2.4636,-2.4636,-2.4636,-2.4636,-2.4636,-2.4636,-2.4636,-2.4636,-2.4636,-2.4636,-2.4636,-2.4636,-2.4636,-2.4636,-2.4636,-2.4636,-2.4636,-2.4636,-2.4636,-2.4636,-2.4918,-2.6575,-2.6997,-2.778,-3.1333,-3.1843,-3.1989,-3.4231,-3.4131,-3.3624,-3.3901,-3.3672,-3.3398,-3.332,-3.3027,-3.2754,-3.2598,-3.2285,-3.1914,-3.1465,-3.1406,-3.1289,-3.0937,-3.082,-3.0586,-3.0137,-3.0098,-2.9922,-2.9492,-2.9453,-2.9434,-2.9355,-2.9004,-2.8809,-2.8809,-2.8476,-2.8301,-2.8301,-2.8301,-2.8301,-2.8301,-2.8301,-2.8301,-2.8301,-2.8301,-2.8301,-1.3634,-1.3899,-1.4055,-1.3973,-1.3559,-1.2895,-1.183,0.0,0.0,0.0,0.0,-0.8479,-0.842,0.0,0.0,0.0,0.0,0.0,0.0,-1.2725,0.0,-1.3356,-1.3403,-1.3403,-1.3403,-1.4375,-1.641,-1.9664,-2.0443,-2.1667,-2.3868,-2.4344,-2.4636,-2.4636,-2.4636,-2.4636,-2.4636,-2.4636,-2.4636,-2.4636,-2.4636,-2.4636,-2.4636,-2.4636,-2.4636,-2.4649,-2.4796,-2.4783,-2.4649,-2.4796,-2.4783,-2.4636,-2.4636,-2.4636,-2.4636,-2.4636,-2.4636,-2.4636,-2.4636,-2.4636,-2.4636,-2.4636,-2.4636,-2.4636,-2.4636,-2.4636,-2.4991,-2.6925,-2.7505,-2.8357,-3.2176,-3.2863,-3.2984,-3.4969,-3.4883,-3.4336,-3.4121,-3.3906,-3.3691,-3.3457,-3.3262,-3.3047,-3.2832,-3.2637,-3.2344,-3.1914,-3.1855,-3.1699,-3.1269,-3.1211,-3.1055,-3.0605,-3.0547,-3.0371,-2.9941,-2.9902,-2.9805,-2.9646,-2.9375,-2.9258,-2.9258,-2.9062,-2.8965,-2.8965,-2.8965,-2.8965,-2.8965,-2.8965,-2.8965,-2.8945,-2.873,-2.8613,-1.3729,-1.398,-1.4075,-1.3885,-1.337,-1.2569,-1.1177,-1.0368,0.0,0.0,-0.8241,-0.8194,-0.8106,0.0,0.0,0.0,0.0,0.0,0.0,0.0,-1.2556,0.0,-1.3383,0.0,-1.4052,-1.5597,-1.7529,-1.9674,-2.1323,-2.3129,-2.5179,-2.489,-2.4636,-2.4636,-2.4636,-2.4636,-2.4636,-2.4636,-2.4636,-2.4636,-2.4636,-2.4636,-2.4636,-2.4636,-2.4676,-2.4743,-2.4917,-2.489,-2.4743,-2.4917,-2.485,-2.4636,-2.4636,-2.4636,-2.4636,-2.4636,-2.4636,-2.4636,-2.4636,-2.4636,-2.4636,-2.4636,-2.4636,-2.4636,-2.4636,-2.4918,-2.5639,-2.7563,-2.8429,-2.9488,-3.2892,-3.3505,-3.3589,-3.5056,-3.5117,-3.4726,-3.4297,-3.4219,-3.4101,-3.3769,-3.3613,-3.3457,-3.3125,-3.2988,-3.2793,-3.2363,-3.2305,-3.2148,-3.1719,-3.166,-3.1523,-3.1191,-3.0996,-3.0742,-3.0371,-3.0351,-3.0215,-2.9883,-2.9766,-2.9707,-2.9707,-2.9665,-2.9626,-2.9626,-2.9626,-2.9626,-2.9626,-2.9626,-2.9626,-2.957,-2.9219,-2.9062,-1.3756,-1.4055,-1.4211,-1.3912,-1.3288,-1.2433,-1.1157,0.0,0.0,-0.8459,-0.816,-0.8099,-0.8228,0.0,0.0,0.0,0.0,0.0,0.0,0.0,0.0,-1.3119,0.0,0.0,-1.6082,-1.6483,-1.7467,-1.9534,-2.1135,-2.2839,-2.4581,-2.4663,-2.4636,-2.4636,-2.4636,-2.4636,-2.4636,-2.4636,-2.4636,-2.4636,-2.4636,-2.4636,-2.4636,-2.4636,-2.4783,-2.5024,-2.4783,-2.481,-2.5024,-2.4783,-2.4663,-2.4636,-2.4636,-2.4636,-2.4636,-2.4636,-2.4636,-2.4636,-2.4636,-2.4636,-2.4636,-2.4636,-2.4636,-2.4636,-2.4636,-2.5859,-2.7635,-2.9544,-3.1316,-3.317,-3.5226,-3.5704,-3.5656,-3.5421,-3.5351,-3.5195,-3.4746,-3.4648,-3.4629,-3.459,-3.4277,-3.4004,-3.3965,-3.3633,-3.3223,-3.2793,-3.2734,-3.2578,-3.2168,-3.2109,-3.209,-3.2051,-3.1348,-3.0879,-3.084,-3.082,-3.082,-3.0762,-3.0371,-3.0137,-3.0137,-2.9766,-2.9626,-2.9626,-2.9626,-2.9626,-2.9626,-2.9626,-2.9626,-2.9626,-2.9587,-2.9567,-1.3559,-1.3933,-1.4109,-1.3892,-1.3214,-1.2277,-1.1084,0.0,-0.9218,-0.8316,-0.8029,-0.8008,-0.8119,-0.818,0.0,0.0,0.0,0.0,0.0,0.0,0.0,-1.4337,-1.4712,-1.5855,-1.8316,-1.9735,-2.1333,-2.3339,-2.3678,-2.4171,-2.4829,-2.473,-2.4636,-2.4636,-2.4636,-2.4636,-2.4636,-2.481,-2.481,-2.4562,-2.4823,-2.4903,-2.4903,-2.4903,-2.5064,-2.5331,-2.5211,-2.5237,-2.5317,-2.5024,-2.4903,-2.489,-2.4703,-2.4636,-2.4636,-2.4636,-2.4636,-2.4636,-2.4636,-2.4636,-2.477,-2.6005,-2.6357,-2.6357,-2.6357,-2.7707,-2.9615,-3.1527,-3.2595,-3.3605,-3.5519,-3.6016,-3.5976,-3.5801,-3.5762,-3.5644,-3.5215,-3.5117,-3.5039,-3.4746,-3.457,-3.4453,-3.4453,-3.4101,-3.375,-3.3594,-3.334,-3.3027,-3.2598,-3.2539,-3.2441,-3.2268,-3.1855,-3.166,-3.166,-3.1426,-3.1269,-3.1269,-3.0859,-3.0605,-3.0605,-3.0449,-3.0371,-3.0371,-3.0371,-3.0371,-3.0371,-3.0371,-3.0371,-3.0351,-3.0078,-2.9941,-1.3275,-1.3715,-1.3905,-1.3749,-1.3071,-1.2128,0.0,0.0,-0.9123,-0.8177,-0.7988,-0.7988,-0.7988,-0.7988,-0.8069,0.0,0.0,0.0,0.0,0.0,0.0,0.0,0.0,-1.6254,-1.8481,-2.0671,-2.2791,-2.4919,-2.4546,-2.4261,-2.4352,-2.4697,-2.485,-2.477,-2.477,-2.481,-2.489,-2.5104,-2.5064,-2.477,-2.4983,-2.5077,-2.5077,-2.5077,-2.5237,-2.5504,-2.5424,-2.5438,-2.5478,-2.5104,-2.4997,-2.505,-2.4756,-2.4636,-2.4636,-2.4636,-2.4636,-2.4636,-2.4636,-2.4991,-2.5712,-2.707,-2.8285,-2.9202,-2.9202,-3.0113,-3.1456,-3.2804,-3.3586,-3.4314,-3.5655,-3.6016,-3.6016,-3.6016,-3.6016,-3.5937,-3.5644,-3.5586,-3.5488,-3.5156,-3.498,-3.4902,-3.4902,-3.4551,-3.4258,-3.4258,-3.3887,-3.3516,-3.3203,-3.3066,-3.2871,-3.2578,-3.2539,-3.2441,-3.2187,-3.1894,-3.1719,-3.1719,-3.1426,-3.1269,-3.1269,-3.1269,-3.1269,-3.1269,-3.1152,-3.1074,-3.1074,-3.0957,-3.0898,-3.0879,-3.0547,-3.041,-1.2935,-1.3403,-1.36,-1.3444,-1.284,-1.1979,0.0,-0.9917,-0.9123,-0.8177,-0.7988,-0.7988,-0.7988,-0.7988,-0.8092,0.0,0.0,0.0,0.0,0.0,0.0,0.0,-1.3221,-1.4792,-1.5735,-1.7902,-2.0273,-2.2729,-2.2348,-2.2171,-2.2508,-2.4406,-2.5371,-2.5077,-2.5077,-2.5211,-2.5504,-2.5504,-2.5358,-2.5077,-2.5077,-2.5077,-2.5077,-2.5077,-2.5237,-2.5504,-2.5211,-2.5251,-2.5464,-2.4877,-2.481,-2.505,-2.4756,-2.4636,-2.4636,-2.4636,-2.4636,-2.4636,-2.4636,-2.5859,-2.7505,-2.7505,-3.0058,-3.317,-3.317,-3.317,-3.317,-3.317,-3.4521,-3.5947,-3.6016,-3.6016,-3.6016,-3.6016,-3.6016,-3.6016,-3.6016,-3.6016,-3.6016,-3.6016,-3.5664,-3.5391,-3.5391,-3.5,-3.4687,-3.4687,-3.4336,-3.4062,-3.4062,-3.3691,-3.3418,-3.3418,-3.3418,-3.3066,-3.2307,-3.2229,-3.2168,-3.2168,-3.2209,-3.2209,-3.2209,-3.2209,-3.2209,-3.2209,-3.1738,-3.1504,-3.1504,-3.1094,-3.0898,-3.0898,-3.0879,-3.0879,-1.164,-1.2094,-1.2338,-1.2088,-1.1694,-1.1111,-1.0114,-0.9544,-0.9001,-0.815,-0.7988,-0.7988,-0.7988,-0.7988,-0.8143,-0.8648,0.0,0.0,0.0,0.0,0.0,-1.3207,-1.7429,-2.0395,-2.0716,-2.2647,-2.3617,-2.3079,-2.3888,-2.4559,-2.4843,-2.5304,-2.5464,-2.5384,-2.5371,-2.5424,-2.5518,-2.5718,-2.5665,-2.5384,-2.5585,-2.5755,-2.5755,-2.5755,-2.5838,-2.6079,-2.5585,-2.5545,-2.5758,-2.4957,-2.481,-2.505,-2.4756,-2.4636,-2.4636,-2.4636,-2.4636,-2.477,-2.6137,-2.6997,-2.7924,-3.0555,-3.2176,-3.3448,-3.4727,-3.5089,-3.5089,-3.5089,-3.5519,-3.6016,-3.6016,-3.6016,-3.6016,-3.6016,-3.6016,-3.6016,-3.6016,-3.6016,-3.6016,-3.6016,-3.5918,-3.582,-3.582,-3.5469,-3.5176,-3.5176,-3.4785,-3.4492,-3.4492,-3.4375,-3.4297,-3.4297,-3.4043,-3.3633,-3.3066,-3.2754,-3.2598,-3.2598,-3.2324,-3.2229,-3.2229,-3.2229,-3.2229,-3.2229,-3.2031,-3.1953,-3.1953,-3.1836,-3.1758,-3.1758,-3.1758,-3.1601,-1.0711,-1.1199,-1.145,-1.1274,-1.0962,-1.0493,-0.97,-0.9245,-0.8804,-0.8116,-0.7988,-0.7988,-0.7988,-0.8435,-0.8708,-0.8593,0.0,0.0,0.0,0.0,0.0,-1.6108,-1.796,-2.0203,-2.3544,-2.3695,-2.3739,-2.4338,-2.5153,-2.5812,-2.6106,-2.5945,-2.5838,-2.5838,-2.5732,-2.5732,-2.5838,-2.6026,-2.5972,-2.5678,-2.5865,-2.6037,-2.6037,-2.6037,-2.6052,-2.6199,-2.5718,-2.5611,0.0,-2.4957,-2.481,-2.505,-2.4756,-2.4636,-2.4636,-2.4636,-2.5065,-2.5859,-2.707,-2.8429,-3.0058,-3.2455,-3.3674,-3.4452,-3.5655,-3.6016,-3.6016,-3.6016,-3.6016,-3.6016,-3.6016,-3.6016,-3.6016,-3.6016,-3.6016,-3.6016,-3.6016,-3.6016,-3.6016,-3.6016,-3.6016,-3.6016,-3.6016,-3.5801,-3.5625,-3.5625,-3.5254,-3.4961,-3.4961,-3.4805,-3.4707,-3.4707,-3.4473,-3.4199,-3.3926,-3.3359,-3.3027,-3.3027,-3.2793,-3.2637,-3.2637,-3.2637,-3.2637,-3.2637,-3.248,-3.2402,-3.2402,-3.2246,-3.2229,-3.2229,-3.2229,-3.2012,0.0,-1.0568,-1.0732,-1.0712,-1.0466,-1.0019,-0.9435,-0.8988,0.0,-0.8076,-0.7988,-0.7995,-0.8015,-0.9137,-0.9583,-0.8306,0.0,0.0,0.0,-1.1331,-1.4471,-1.922,-1.572,-1.5946,-2.3959,-2.1871,-2.1749,-2.5872,-2.6054,-2.6106,-2.6373,-2.6373,-2.636,-2.636,-2.6079,-2.6079,-2.6386,-2.6386,-2.6253,-2.6063,-2.6063,-2.6063,-2.6063,-2.6063,-2.6063,-2.605,-2.5678,-2.5531,-2.5464,-2.4903,-2.4823,-2.5024,-2.4743,-2.4636,-2.4636,-2.4784,-2.5932,-2.7578,-2.778,-3.0201,-3.324,-3.3378,-3.459,-3.6016,-3.6016,-3.6016,-3.6016,-3.6016,-3.6016,-3.6016,-3.6016,-3.6016,-3.6016,-3.6016,-3.6016,-3.6016,-3.6016,-3.6016,-3.6016,-3.6016,-3.6016,-3.6016,-3.6016,-3.6016,-3.6016,-3.6016,-3.5684,-3.543,-3.543,-3.5059,-3.4785,-3.4785,-3.4766,-3.4746,-3.4746,-3.3984,-3.3516,-3.3516,-3.3496,-3.3476,-3.3476,-3.3437,-3.3418,-3.3418,-3.3047,-3.2832,-3.2832,-3.2441,-3.2266,-3.2266,-3.2266,-3.2246,-0.8716,0.0,-0.9296,-0.9117,-0.9069,-0.8981,0.0,-0.8533,0.0,0.0,0.0,0.0,0.0,0.0,0.0,-0.9015,0.0,-1.11,-1.1585,-1.292,-1.4569,-1.6721,-1.7536,-1.8818,-2.0931,-2.3305,-2.4527,-2.3939,-2.5358,-2.6319,-2.6386,-2.6186,-2.6052,-2.6052,-2.5772,-2.5865,-2.6386,-2.6386,-2.636,-2.6293,-2.6293,-2.6293,-2.6293,-2.6293,-2.6293,-2.6266,-2.5985,-2.5718,-2.5478,-2.513,-2.489,-2.473,-2.4663,-2.4636,-2.4784,-2.6284,-2.707,-2.7924,-3.0839,-3.2455,-3.3448,-3.4883,-3.5655,-3.6016,-3.6016,-3.6016,-3.6016,-3.6016,-3.6016,-3.6016,-3.6016,-3.6016,-3.6016,-3.6016,-3.6016,-3.6016,-3.6016,-3.6016,-3.6016,-3.6016,-3.6016,-3.6016,-3.6016,-3.6016,-3.6016,-3.6016,-3.5937,-3.5879,-3.5879,-3.5781,-3.5703,-3.5703,-3.543,-3.5234,-3.5234,-3.4726,-3.4394,-3.4394,-3.4101,-3.3926,-3.3926,-3.3594,-3.3418,-3.3418,-3.332,-3.3281,-3.3281,-3.3184,-3.3125,-3.3125,-3.3125,-3.2949,-0.8167,-0.8547,-0.8844,-0.873,-0.8703,-0.8669,0.0,0.0,0.0,0.0,0.0,0.0,0.0,0.0,0.0,0.0,-1.1266,-1.3088,-1.5299,-1.5721,-1.655,-1.8402,-1.93,-2.0134,-2.1259,-2.3472,-2.484,-2.4602,-2.574,-2.6333,-2.6199,-2.6039,-2.5892,-2.5758,-2.5598,-2.5665,-2.5985,-2.5985,-2.5985,-2.5985,-2.6119,-2.6186,-2.6199,-2.6333,-2.6319,-2.6172,-2.5879,-2.5585,-2.5291,-2.4997,-2.4783,-2.4636,-2.4636,-2.5139,-2.6078,-2.7143,-2.8629,-3.0414,-3.2455,-3.3743,-3.4659,-3.5655,-3.6016,-3.6016,-3.6016,-3.6016,-3.6016,-3.6016,-3.6016,-3.6016,-3.6016,-3.6016,-3.6016,-3.6016,-3.6016,-3.6016,-3.6016,-3.6016,-3.6016,-3.6016,-3.6016,-3.6016,-3.6016,-3.6016,-3.6016,-3.6016,-3.6016,-3.6016,-3.6016,-3.6016,-3.6016,-3.6016,-3.582,-3.5684,-3.5684,-3.5449,-3.5137,-3.4726,-3.4492,-3.4355,-3.4355,-3.4141,-3.4004,-3.4004,-3.3828,-3.3711,-3.3711,-3.3516,-3.3418,-3.3418,-3.3418,-3.3301,-0.8069,-0.8494,-0.8892,-0.8777,-0.8737,-0.8662,0.0,0.0,0.0,0.0,0.0,0.0,0.0,0.0,0.0,0.0,-1.2597,-1.5188,-1.8265,-1.8454,-1.8937,-2.0757,-2.0551,-2.0974,-2.2877,-2.338,-2.4338,-2.6162,-2.6319,-2.6199,-2.5905,-2.5852,-2.5705,-2.5451,-2.5398,-2.5371,-2.5371,-2.5464,-2.5518,-2.5518,-2.5772,-2.5892,-2.5892,-2.6146,-2.6119,-2.5879,-2.5625,-2.5344,-2.5064,-2.481,-2.4676,-2.4636,-2.4636,-2.5786,-2.7505,-2.7852,-3.0184,-3.324,-3.3517,-3.4659,-3.6016,-3.6016,-3.6016,-3.6016,-3.6016,-3.6016,-3.6016,-3.6016,-3.6016,-3.6016,-3.6016,-3.6016,-3.6016,-3.6016,-3.6016,-3.6016,-3.6016,-3.6016,-3.6016,-3.6016,-3.6016,-3.6016,-3.6016,-3.6016,-3.6016,-3.6016,-3.6016,-3.6016,-3.6016,-3.6016,-3.6035,-3.6113,-3.6055,-3.6055,-3.6113,-3.6055,-3.5703,-3.4941,-3.4844,-3.4766,-3.4707,-3.4707,-3.4707,-3.4707,-3.4355,-3.416,-3.416,-3.3789,-3.3613,-3.3613,-3.3613,-3.3613,-0.8506,-0.8859,-0.8967,-0.8285,-0.835,-0.8452,0.0,0.0,0.0,0.0,0.0,0.0,0.0,0.0,-1.0425,0.0,-1.3249,-1.5864,-1.5459,-1.856,-1.9962,-1.749,-2.0415,-2.2693,-2.306,-2.4761,-2.5964,-2.6039,-2.6026,-2.5892,-2.5598,-2.5344,-2.5197,-2.5144,-2.4903,-2.477,-2.477,-2.5264,-2.5518,-2.5518,-2.5558,-2.5585,-2.5585,-2.5625,-2.5625,-2.5585,-2.5531,-2.5344,-2.5077,-2.5037,-2.4863,-2.4636,-2.4636,-2.5786,-2.7707,-2.9258,-3.1316,-3.3448,-3.5021,-3.5743,-3.6016,-3.6016,-3.6016,-3.6016,-3.6016,-3.6016,-3.6016,-3.6016,-3.6016,-3.6016,-3.6016,-3.6016,-3.6016,-3.6016,-3.6016,-3.6016,-3.6016,-3.6016,-3.6016,-3.6016,-3.6016,-3.6016,-3.6016,-3.6016,-3.6016,-3.6016,-3.6016,-3.6016,-3.6016,-3.6016,-3.6152,-3.6523,-3.623,-3.6172,-3.6543,-3.623,-3.5957,-3.582,-3.5488,-3.5117,-3.4726,-3.4707,-3.4707,-3.4707,-3.4629,-3.4609,-3.4609,-3.4531,-3.4492,-3.4492,-3.4492,-3.4492,-0.8238,-0.8567,-0.873,-0.8465,-0.875,-0.9035,0.0,0.0,0.0,0.0,0.0,0.0,0.0,0.0,-1.1851,-1.3189,-1.7054,-1.9903,-1.9847,-2.1858,-2.2505,-2.0058,-2.2817,-2.443,-2.322,-2.4952,-2.6106,-2.605,-2.5812,-2.5585,-2.5291,-2.5157,-2.501,-2.485,-2.4703,-2.4636,-2.4636,-2.4903,-2.5037,-2.5037,-2.5197,-2.5277,-2.5291,-2.5438,-2.5424,-2.5291,-2.5451,-2.5344,-2.5077,-2.5077,-2.4997,-2.4863,-2.4703,-2.6415,-2.9401,-3.2316,-3.3951,-3.4815,-3.5743,-3.6016,-3.6016,-3.6016,-3.6016,-3.6016,-3.6016,-3.6016,-3.6016,-3.6016,-3.6016,-3.6016,-3.6016,-3.6016,-3.6016,-3.6016,-3.6016,-3.6016,-3.6016,-3.6016,-3.6016,-3.6016,-3.6016,-3.6016,-3.6016,-3.6016,-3.6016,-3.6016,-3.6016,-3.6016,-3.6016,-3.6016,-3.6191,-3.6621,-3.6484,-3.6445,-3.666,-3.6484,-3.6269,-3.6035,-3.584,-3.5644,-3.543,-3.541,-3.541,-3.541,-3.5195,-3.5078,-3.5078,-3.4824,-3.4707,-3.4707,-3.4707,-3.4707,-0.8177,-0.8391,-0.8581,0.0,0.0,0.0,0.0,0.0,0.0,0.0,0.0,0.0,0.0,-1.2812,-1.3447,-1.6894,-2.0,-2.2325,-2.3564,-2.4657,-2.4687,-2.2957,-2.4952,-2.5714,-2.3946,-2.5126,-2.597,-2.5758,-2.5545,-2.5291,-2.4997,-2.497,-2.4877,-2.4649,-2.4636,-2.4636,-2.4636,-2.4636,-2.4636,-2.4562,-2.4863,-2.497,-2.4983,-2.5211,-2.5184,-2.4997,-2.5291,-2.5291,-2.5077,-2.5077,-2.5077,-2.505,-2.4756,-2.691,-3.0734,-3.459,-3.6016,-3.6016,-3.6016,-3.6016,-3.6016,-3.6016,-3.6016,-3.6035,-3.6152,-3.6172,-3.6191,-3.6289,-3.6328,-3.6269,-3.6074,-3.6016,-3.6016,-3.6016,-3.6016,-3.6016,-3.6016,-3.6016,-3.6016,-3.6016,-3.6016,-3.6016,-3.6016,-3.6016,-3.6016,-3.6016,-3.6016,-3.6016,-3.6016,-3.6016,-3.6191,-3.6621,-3.6582,-3.6523,-3.6523,-3.6523,-3.6367,-3.6035,-3.6016,-3.6016,-3.6016,-3.6016,-3.6016,-3.6016,-3.5703,-3.5547,-3.5547,-3.5176,-3.5,-3.5,-3.5,-3.5,-0.8743,-0.8784,-0.8764,-0.9105,0.0,0.0,0.0,0.0,0.0,0.0,0.0,0.0,0.0,-1.2995,-1.4879,-1.9347,-1.9503,-1.9844,-2.2135,-2.443,-2.5205,-2.3321,-2.5079,-2.6201,-2.5856,-2.5894,-2.5809,-2.5184,-2.5117,-2.4983,-2.469,-2.4676,-2.4589,-2.4636,-2.4636,-2.4636,-2.4636,-2.4636,-2.4636,-2.4636,-2.4589,-2.4676,-2.4676,-2.469,-2.469,-2.469,-2.4983,-2.5104,-2.5077,-2.5077,-2.5077,-2.505,-2.4756,-2.691,-3.0734,-3.459,-3.6016,-3.6016,-3.6016,-3.6016,-3.6016,-3.6016,-3.6016,-3.6094,-3.6504,-3.6621,-3.6699,-3.709,-3.7207,-3.7031,-3.623,-3.6016,-3.6016,-3.6016,-3.6016,-3.6016,-3.6016,-3.6016,-3.6016,-3.6016,-3.6016,-3.6016,-3.6016,-3.6016,-3.6016,-3.6016,-3.6016,-3.6016,-3.6016,-3.6016,-3.6191,-3.6621,-3.6309,-3.6074,-3.6074,-3.6074,-3.6055,-3.6016,-3.6016,-3.6016,-3.6016,-3.6016,-3.6016,-3.6016,-3.5996,-3.5976,-3.5976,-3.5937,-3.5918,-3.5918,-3.5918,-3.5918,-0.8492,-0.8615,-0.8784,0.0,0.0,0.0,0.0,0.0,0.0,0.0,-1.2177,0.0,0.0,0.0,-1.9366,-2.0262,-2.1811,-2.3313,-2.415,-2.5452,-2.5938,-2.5238,-2.5741,-2.6079,-2.605,-2.5625,-2.5317,-2.5104,-2.4917,-2.4756,-2.4649,-2.4636,-2.4636,-2.4636,-2.4636,-2.4636,-2.4636,-2.4636,-2.4636,-2.4636,-2.4636,-2.4636,-2.4636,-2.4636,-2.4636,-2.4663,-2.5144,-2.5344,-2.5344,-2.5344,-2.5451,-2.5878,-2.7703,-2.9952,-3.2455,-3.5021,-3.6016,-3.6016,-3.6016,-3.6016,-3.6074,-3.6328,-3.6426,-3.6504,-3.6934,-3.7051,-3.709,-3.7246,-3.7305,-3.7226,-3.6894,-3.6816,-3.6816,-3.6816,-3.6816,-3.6816,-3.6816,-3.6816,-3.6816,-3.6816,-3.6816,-3.6816,-3.6816,-3.6816,-3.6719,-3.6465,-3.6426,-3.6328,-3.6055,-3.6016,-3.6191,-3.6621,-3.6758,-3.6699,-3.6445,-3.6426,-3.6309,-3.6035,-3.6016,-3.6016,-3.6016,-3.6016,-3.6016,-3.6016,-3.6016,-3.6016,-3.6016,-3.6016,-3.6016,-3.6016,-3.6016,-3.6016,-0.8519,-0.881,-0.9336,0.0,0.0,0.0,0.0,0.0,0.0,0.0,-1.399,-1.494,-1.6177,0.0,-2.1602,-2.1669,-2.3302,-2.4867,-2.5681,-2.6132,-2.636,-2.6266,-2.6079,-2.5956,-2.5692,-2.5317,-2.5037,-2.4943,-2.4756,-2.4636,-2.4636,-2.4636,-2.4636,-2.4636,-2.4636,-2.4636,-2.4636,-2.4636,-2.4636,-2.4636,-2.4636,-2.4636,-2.4636,-2.4636,-2.4636,-2.4589,-2.5251,-2.5518,-2.5518,-2.5611,-2.609,-2.7115,-2.9786,-3.1922,-3.363,-3.5505,-3.6133,-3.6016,-3.6016,-3.6113,-3.6269,-3.6582,-3.6758,-3.6953,-3.7363,-3.75,-3.7519,-3.7656,-3.7695,-3.7695,-3.7695,-3.75,-3.7305,-3.7305,-3.7305,-3.7305,-3.7305,-3.7305,-3.7305,-3.7305,-3.7305,-3.7305,-3.7305,-3.7305,-3.7207,-3.6914,-3.6875,-3.6758,-3.6465,-3.6309,-3.6289,-3.6445,-3.6719,-3.6777,-3.6484,-3.6465,-3.6348,-3.6035,-3.6016,-3.6016,-3.6016,-3.6016,-3.6094,-3.623,-3.623,-3.6289,-3.6426,-3.6289,-3.623,-3.623,-3.623,-3.623,-0.8977,-0.9448,0.0,0.0,0.0,0.0,0.0,0.0,0.0,0.0,0.0,-1.6836,-1.6967,-1.8519,-2.0754,-2.3688,-2.3242,-2.341,-2.6056,-2.6373,-2.6279,-2.6063,-2.6023,-2.5795,-2.513,-2.5077,-2.4957,-2.4589,-2.4636,-2.4636,-2.4636,-2.4636,-2.4636,-2.4636,-2.4636,-2.4636,-2.4636,-2.4636,-2.4636,-2.4636,-2.4636,-2.4636,-2.4636,-2.4636,-2.4636,-2.4589,-2.5251,-2.5518,-2.5531,-2.5838,-2.7066,-2.8746,-3.0349,-3.2165,-3.403,-3.5997,-3.6387,-3.6016,-3.6035,-3.6309,-3.668,-3.668,-3.6973,-3.7383,-3.7812,-3.793,-3.8027,-3.8457,-3.8574,-3.8574,-3.8574,-3.7949,-3.7305,-3.7305,-3.7305,-3.7305,-3.7305,-3.7305,-3.7305,-3.7305,-3.7305,-3.7305,-3.7305,-3.7305,-3.7305,-3.7305,-3.7305,-3.7305,-3.7305,-3.6934,-3.6504,-3.6074,-3.6035,-3.6016,-3.6016,-3.6016,-3.6016,-3.6016,-3.6016,-3.6016,-3.6016,-3.6016,-3.623,-3.666,-3.668,-3.6875,-3.7285,-3.6875,-3.668,-3.668,-3.668,-3.668,-0.8567,0.0,0.0,0.0,0.0,0.0,0.0,0.0,0.0,0.0,-1.44,-1.6157,-1.7419,-1.9257,-2.1318,-2.3516,-2.4179,-2.4568,-2.5361,-2.5638,-2.5745,-2.5651,-2.5464,-2.5264,-2.5104,-2.489,-2.473,-2.4649,-2.4636,-2.4636,-2.4636,-2.4636,-2.4636,-2.4636,-2.4636,-2.4636,-2.4636,-2.4636,-2.4636,-2.4636,-2.4636,-2.4636,-2.4636,-2.4636,-2.4636,-2.4589,-2.5251,-2.5518,-2.5558,-2.6052,-2.7172,-2.8612,-3.0476,-3.2172,-3.387,-3.5601,-3.6133,-3.6055,-3.6367,-3.6562,-3.6758,-3.7363,-3.7637,-3.7812,-3.8262,-3.8379,-3.8418,-3.8535,-3.8574,-3.8574,-3.8574,-3.8398,-3.8203,-3.8203,-3.8203,-3.8203,-3.8203,-3.8203,-3.8203,-3.8203,-3.8203,-3.8203,-3.8203,-3.8203,-3.8086,-3.7773,-3.7734,-3.7637,-3.7344,-3.6934,-3.6621,-3.6484,-3.6484,-3.6348,-3.6035,-3.6309,-3.6348,-3.6035,-3.6016,-3.6016,-3.6016,-3.6309,-3.6387,-3.6211,-3.6816,-3.7031,-3.6855,-3.7031,-3.7109,-3.7109,-3.7109,-3.7109,-0.9671,0.0,0.0,0.0,0.0,0.0,0.0,0.0,0.0,0.0,-1.5043,-1.6902,-1.7947,-1.9702,-2.1715,-2.3753,-2.397,-2.4186,-2.5162,-2.5398,-2.5464,-2.5358,-2.5184,-2.5037,-2.4917,-2.4743,-2.4636,-2.4636,-2.4636,-2.4636,-2.4636,-2.4636,-2.4636,-2.4636,-2.4636,-2.4636,-2.4636,-2.4636,-2.4636,-2.4636,-2.4636,-2.4636,-2.4636,-2.4636,-2.4703,-2.485,-2.5438,-2.5758,-2.5879,-2.6119,-2.7748,-3.0122,-3.116,-3.3006,-3.5205,-3.6186,-3.6426,-3.6309,-3.6582,-3.6894,-3.7246,-3.7754,-3.8047,-3.8223,-3.8496,-3.8574,-3.8574,-3.8574,-3.8574,-3.8574,-3.8574,-3.8574,-3.8574,-3.8574,-3.8574,-3.8574,-3.8574,-3.8574,-3.8574,-3.8574,-3.8574,-3.8574,-3.8574,-3.8574,-3.8476,-3.8223,-3.8184,-3.8027,-3.7598,-3.7324,-3.7109,-3.6934,-3.6914,-3.6738,-3.6309,-3.6523,-3.6484,-3.6055,-3.6016,-3.6016,-3.6016,-3.6269,-3.6445,-3.6523,-3.7031,-3.7344,-3.7422,-3.75,-3.7539,-3.7539,-3.7539,-3.7539,0.0,0.0,0.0,0.0,0.0,0.0,0.0,-1.4553,-1.3346,-1.3665,0.0,-1.8416,-1.8386,-1.965,-2.1502,-2.3918,-2.3017,-2.2797,-2.508,-2.5438,-2.5331,-2.5077,-2.5037,-2.493,-2.4663,-2.4636,-2.4636,-2.4636,-2.4636,-2.4636,-2.4636,-2.4636,-2.4636,-2.4636,-2.4636,-2.4636,-2.4636,-2.4636,-2.4636,-2.4636,-2.4636,-2.4636,-2.4636,-2.4636,-2.481,-2.5144,-2.5718,-2.6119,-2.6373,-2.6327,-2.8655,-3.2228,-3.2243,-3.4175,-3.7074,-3.7176,-3.6992,-3.668,-3.6719,-3.7246,-3.793,-3.7969,-3.8242,-3.8574,-3.8574,-3.8574,-3.8574,-3.8574,-3.8574,-3.8574,-3.8574,-3.8574,-3.8574,-3.8574,-3.8574,-3.8574,-3.8574,-3.8574,-3.8574,-3.8574,-3.8574,-3.8574,-3.8574,-3.8574,-3.8574,-3.8574,-3.8574,-3.8437,-3.8027,-3.7949,-3.7773,-3.7402,-3.7324,-3.7148,-3.6758,-3.6719,-3.6562,-3.6152,-3.6133,-3.6113,-3.6074,-3.6074,-3.6426,-3.7168,-3.7305,-3.7715,-3.8457,-3.8144,-3.7988,-3.7988,-3.7988,-3.7988,0.0,0.0,0.0,0.0,0.0,0.0,0.0,0.0,-1.5327,-1.582,-1.6444,-1.6845,-1.6608,-1.6778,-1.8113,-2.17,-2.1948,-2.2382,-2.4512,-2.4823,-2.4796,-2.4743,-2.473,-2.4703,-2.4649,-2.4636,-2.4636,-2.4636,-2.4636,-2.4636,-2.4636,-2.4636,-2.4636,-2.4636,-2.4636,-2.4636,-2.4636,-2.4636,-2.4636,-2.4636,-2.4636,-2.4636,-2.4636,-2.4636,-2.4917,-2.5438,-2.5798,-2.6119,-2.6544,-2.8082,-2.9234,-3.033,-3.3214,-3.454,-3.5023,-3.6335,-3.6758,-3.6719,-3.7051,-3.75,-3.7988,-3.832,-3.8496,-3.8574,-3.8574,-3.8574,-3.8574,-3.8574,-3.8574,-3.8574,-3.8574,-3.8574,-3.8574,-3.8574,-3.8574,-3.8574,-3.8574,-3.8574,-3.8574,-3.8574,-3.8574,-3.8574,-3.8574,-3.8574,-3.8574,-3.8574,-3.8574,-3.8535,-3.8437,-3.8144,-3.7891,-3.7793,-3.75,-3.7266,-3.7168,-3.7168,-3.7129,-3.7031,-3.7031,-3.6875,-3.6543,-3.6523,-3.6465,-3.6289,-3.7285,-3.7715,-3.7578,-3.8164,-3.8437,-3.8437,-3.8437,-3.8437,0.0,0.0,0.0,0.0,0.0,0.0,0.0,0.0,-1.7171,-1.655,-1.6309,-1.6191,-1.5917,-1.5886,-1.7143,-2.0962,-2.0767,-2.1216,-2.4179,-2.4636,-2.4636,-2.4636,-2.4636,-2.4636,-2.4636,-2.4636,-2.4636,-2.4636,-2.4636,-2.4636,-2.4636,-2.4636,-2.4636,-2.4636,-2.4636,-2.4636,-2.4636,-2.4636,-2.4636,-2.4636,-2.4636,-2.4636,-2.4649,-2.493,-2.5224,-2.5545,-2.5972,-2.6789,-2.7905,-2.8743,-3.036,-3.2515,-3.4253,-3.5193,-3.5811,-3.6913,-3.7148,-3.7031,-3.7461,-3.7871,-3.8281,-3.8496,-3.8574,-3.8574,-3.8574,-3.8574,-3.8574,-3.8574,-3.8574,-3.8613,-3.8828,-3.8887,-3.8926,-3.916,-3.8887,-3.8574,-3.8574,-3.8574,-3.8574,-3.8574,-3.8574,-3.8574,-3.8574,-3.8574,-3.8574,-3.8574,-3.8574,-3.8574,-3.8574,-3.8379,-3.8242,-3.8242,-3.8047,-3.7832,-3.7617,-3.7598,-3.7519,-3.7305,-3.7305,-3.7207,-3.6973,-3.6973,-3.6777,-3.6348,-3.7187,-3.7519,-3.7305,-3.7949,-3.8164,-3.7969,-3.7969,-3.8066,0.0,0.0,0.0,0.0,0.0,0.0,0.0,0.0,-1.7971,-1.6442,-1.6109,-1.6083,-1.5852,-1.5871,-1.7174,-2.0951,-2.023,-2.0391,-2.4105,-2.4636,-2.4636,-2.4636,-2.4596,-2.4556,-2.4556,-2.4516,-2.4502,-2.4556,-2.4556,-2.4583,-2.4636,-2.4636,-2.4636,-2.4636,-2.4636,-2.4636,-2.4636,-2.4636,-2.4636,-2.4636,-2.4636,-2.4636,-2.4649,-2.5197,-2.5464,-2.5545,-2.6079,-2.7342,-2.889,-2.9303,-3.162,-3.5014,-3.5375,-3.6243,-3.7344,-3.7773,-3.7656,-3.7363,-3.7773,-3.8203,-3.8574,-3.8574,-3.8574,-3.8574,-3.8574,-3.8574,-3.8594,-3.8652,-3.8691,-3.8789,-3.9199,-3.9316,-3.9414,-3.9805,-3.9336,-3.8809,-3.8809,-3.8809,-3.8809,-3.8809,-3.873,-3.8652,-3.8594,-3.8574,-3.8574,-3.8574,-3.8574,-3.8574,-3.8574,-3.8574,-3.8574,-3.8574,-3.8574,-3.8418,-3.8066,-3.8027,-3.7891,-3.7539,-3.7519,-3.748,-3.7402,-3.7402,-3.7207,-3.6777,-3.7187,-3.7363,-3.7305,-3.7715,-3.7715,-3.7305,-3.7305,-3.748,0.0,0.0,0.0,0.0,0.0,0.0,0.0,0.0,-1.5888,0.0,-1.582,-1.6008,-1.5827,-1.5692,-1.6855,-2.0916,-2.1365,-2.1975,-2.4253,-2.4636,-2.4636,-2.4636,-2.4409,-2.4262,-2.4262,-2.4035,-2.3995,-2.4249,-2.4262,-2.4369,-2.4623,-2.4636,-2.4636,-2.4636,-2.4636,-2.4636,-2.4636,-2.4636,-2.4636,-2.4636,-2.4636,-2.4636,-2.4649,-2.4983,-2.5277,-2.5531,-2.5865,-2.6302,-2.7069,-3.0546,-3.238,-3.3247,-3.6755,-3.7773,-3.7344,-3.7773,-3.7656,-3.7363,-3.7773,-3.8203,-3.8574,-3.8574,-3.8574,-3.8574,-3.8574,-3.8574,-3.8652,-3.9004,-3.9121,-3.9219,-3.9687,-3.9805,-3.9824,-3.9883,-3.9805,-3.9726,-3.9726,-3.9726,-3.9726,-3.9726,-3.9394,-3.9004,-3.8633,-3.8574,-3.8574,-3.8574,-3.8574,-3.8574,-3.8574,-3.8574,-3.8574,-3.8574,-3.8574,-3.8555,-3.8496,-3.8496,-3.8457,-3.8398,-3.8398,-3.8242,-3.7851,-3.7832,-3.7637,-3.7226,-3.7617,-3.7656,-3.7305,-3.7715,-3.7715,-3.7305,-3.7305,-3.7324,0.0,0.0,0.0,0.0,0.0,0.0,0.0,0.0,-1.5452,-1.6489,-1.6861,-1.6699,-1.5778,-1.651,-1.8194,-2.1141,-2.1601,-2.2285,-2.4327,-2.4636,-2.4569,-2.4409,-2.4289,-2.4142,-2.3981,-2.3848,-2.3821,-2.3955,-2.3968,-2.4022,-2.4142,-2.4155,-2.4155,-2.4155,-2.4155,-2.4155,-2.4155,-2.4315,-2.4476,-2.4636,-2.4636,-2.4636,-2.4562,-2.477,-2.5077,-2.5531,-2.5825,-2.6809,-2.8267,-3.0763,-3.2709,-3.4399,-3.666,-3.7559,-3.7676,-3.7851,-3.7812,-3.7715,-3.8144,-3.8418,-3.8574,-3.8574,-3.8574,-3.8613,-3.8848,-3.8926,-3.9023,-3.9473,-3.959,-3.9687,-4.0137,-4.0254,-4.0312,-4.0547,-4.0605,-4.0605,-4.0605,-4.0234,-3.9902,-3.9902,-3.9726,-3.9531,-3.9336,-3.9101,-3.8926,-3.8926,-3.873,-3.8574,-3.8574,-3.8574,-3.8574,-3.8574,-3.8574,-3.8574,-3.8574,-3.8574,-3.8574,-3.8574,-3.8574,-3.8496,-3.8301,-3.8281,-3.8203,-3.8008,-3.7949,-3.7715,-3.7305,-3.7715,-3.7715,-3.7305,-3.7305,-3.7422,0.0,0.0,0.0,0.0,0.0,0.0,0.0,0.0,-1.5363,-1.7311,-1.8134,-1.8163,-1.6992,-1.8101,-1.983,-2.1858,-2.2153,-2.2682,-2.4189,-2.4422,-2.4342,-2.4115,-2.4022,-2.3888,-2.3674,-2.3581,-2.3581,-2.3647,-2.3661,-2.3688,-2.3768,-2.3768,-2.3768,-2.3768,-2.3768,-2.3768,-2.3768,-2.4062,-2.4315,-2.4529,-2.4596,-2.4636,-2.4636,-2.4636,-2.4957,-2.5518,-2.5745,-2.6959,-2.872,-3.0169,-3.2226,-3.467,-3.5796,-3.6862,-3.7773,-3.7891,-3.793,-3.7988,-3.8418,-3.8574,-3.8574,-3.8574,-3.8652,-3.8789,-3.9101,-3.9277,-3.9473,-3.9922,-4.0059,-4.0156,-4.0586,-4.0684,-4.0781,-4.1094,-4.1172,-4.1172,-4.1172,-4.0684,-4.0195,-4.0078,-4.0059,-4.0019,-3.9922,-3.9609,-3.9375,-3.9375,-3.9121,-3.8906,-3.8906,-3.8809,-3.873,-3.873,-3.8633,-3.8574,-3.8574,-3.8574,-3.8574,-3.8574,-3.8574,-3.8574,-3.8574,-3.8574,-3.8574,-3.8574,-3.8262,-3.7891,-3.7461,-3.7773,-3.7715,-3.7305,-3.7305,-3.7461,0.0,0.0,0.0,0.0,0.0,0.0,0.0,0.0,-1.5287,-1.7282,-1.9224,-2.0549,-2.0428,-2.05,-2.1234,-2.3366,-2.3665,-2.3736,-2.3821,-2.3808,-2.3808,-2.3794,-2.3541,-2.3367,-2.3354,-2.3086,-2.3033,-2.3327,-2.3354,-2.3474,-2.3754,-2.3768,-2.3768,-2.3768,-2.3768,-2.3768,-2.3768,-2.4062,-2.4209,-2.4222,-2.4502,-2.4636,-2.4636,-2.4636,-2.4957,-2.5518,-2.5531,-2.5929,-2.6689,-2.8642,-3.0512,-3.2201,-3.4224,-3.5933,-3.7383,-3.7773,-3.793,-3.7988,-3.8418,-3.8574,-3.8574,-3.8574,-3.8848,-3.918,-3.9199,-3.9512,-3.9941,-4.0371,-4.0488,-4.0586,-4.1035,-4.1133,-4.1152,-4.1172,-4.1172,-4.1172,-4.1172,-4.1133,-4.0976,-4.0566,-4.0488,-4.0371,-3.9961,-3.9883,-3.9863,-3.9863,-3.9844,-3.9824,-3.9824,-3.9434,-3.916,-3.916,-3.8809,-3.8574,-3.8574,-3.8574,-3.8574,-3.8574,-3.8574,-3.8574,-3.8574,-3.8574,-3.8574,-3.8574,-3.8555,-3.832,-3.7891,-3.791,-3.7715,-3.7305,-3.7305,-3.7305,0.0,0.0,0.0,0.0,0.0,0.0,0.0,-1.4987,-1.6687,-1.8648,-2.0704,-2.2109,-2.2109,-2.2415,-2.2957,-2.3696,-2.3768,-2.3768,-2.3768,-2.3768,-2.3701,-2.3514,-2.3394,-2.3247,-2.3046,-2.2926,-2.2913,-2.302,-2.3033,-2.3073,-2.3249,-2.3193,-2.3193,-2.3193,-2.3193,-2.3287,-2.3487,-2.3781,-2.4022,-2.4209,-2.4502,-2.4636,-2.4649,-2.4836,-2.5144,-2.5518,-2.5718,-2.6026,-2.6517,-2.8096,-2.9926,-3.1836,-3.2166,-3.4469,-3.7572,-3.6375,-3.6963,-3.8359,-3.8516,-3.8574,-3.8613,-3.8887,-3.9082,-3.9297,-3.9883,-4.0176,-4.0391,-4.082,-4.0937,-4.0976,-4.1133,-4.1172,-4.1172,-4.1172,-4.1172,-4.1172,-4.1172,-4.1172,-4.1133,-4.0976,-4.0937,-4.0898,-4.0742,-4.0488,-4.0293,-4.0293,-4.0078,-3.9902,-3.9902,-3.9746,-3.9648,-3.9648,-3.9512,-3.9414,-3.9414,-3.9414,-3.9414,-3.9414,-3.9414,-3.9297,-3.8984,-3.8984,-3.8848,-3.8574,-3.8574,-3.8496,-3.834,-3.834,-3.8262,-3.8125,-3.8125,-3.8125,-0.7034,0.0,0.0,0.0,0.0,0.0,0.0,-1.4548,-1.6195,-1.8317,-2.0367,-2.1868,-2.1868,-2.2766,-2.346,-2.346,-2.346,-2.346,-2.346,-2.346,-2.3394,-2.3193,-2.3166,-2.3086,-2.2954,-2.2928,-2.2928,-2.2928,-2.2928,-2.2928,-2.2928,-2.2928,-2.2928,-2.2928,-2.2928,-2.2966,-2.3166,-2.3567,-2.3875,-2.4062,-2.4449,-2.4636,-2.4649,-2.4943,-2.5237,-2.5518,-2.5718,-2.6026,-2.6425,-2.729,-2.8777,-3.0687,-3.0942,-3.3388,-3.6694,-3.6158,-3.7058,-3.8574,-3.8574,-3.8574,-3.8652,-3.9062,-3.9316,-3.957,-4.0293,-4.0625,-4.0801,-4.1094,-4.1172,-4.1172,-4.1172,-4.1172,-4.1172,-4.1172,-4.1172,-4.1172,-4.1172,-4.1172,-4.1172,-4.1172,-4.1172,-4.1172,-4.1172,-4.0937,-4.0742,-4.0742,-4.0508,-4.0332,-4.0332,-4.0195,-4.0098,-4.0098,-3.998,-3.9902,-3.9902,-3.9902,-3.9902,-3.9902,-3.9902,-3.9766,-3.9453,-3.9434,-3.9297,-3.9023,-3.8867,-3.8789,-3.8789,-3.8652,-3.8574,-3.8574,-3.8574,-3.8574,0.0,0.0,0.0,0.0,0.0,0.0,-1.2545,0.0,-1.358,-1.6045,-1.8239,-1.974,-1.9776,-2.145,-2.2832,-2.2846,-2.2859,-2.2928,-2.2928,-2.2928,-2.2928,-2.2928,-2.2928,-2.2928,-2.2928,-2.2928,-2.2928,-2.2928,-2.2928,-2.2928,-2.2928,-2.2928,-2.2928,-2.2928,-2.2928,-2.2928,-2.2873,-2.3474,-2.3768,-2.3794,-2.4369,-2.4636,-2.4649,-2.4957,-2.5251,-2.5518,-2.5518,-2.5852,-2.636,-2.6052,-2.6962,-2.8537,-3.0515,-3.257,-3.4756,-3.6966,-3.8131,-3.8574,-3.8574,-3.8574,-3.8652,-3.9082,-3.9531,-4.0,-4.041,-4.084,-4.1172,-4.1172,-4.1172,-4.1172,-4.1172,-4.1172,-4.1172,-4.1172,-4.1172,-4.1172,-4.1172,-4.1172,-4.1172,-4.1172,-4.1172,-4.1172,-4.1172,-4.1172,-4.1172,-4.1172,-4.1172,-4.1172,-4.1172,-4.0801,-4.0547,-4.0547,-4.0176,-3.9941,-3.9941,-3.9941,-3.9941,-3.9941,-3.9941,-3.9922,-3.9922,-3.9922,-3.9902,-3.9902,-3.9453,-3.9219,-3.9219,-3.8789,-3.8574,-3.8574,-3.8574,-3.8574,-0.6681,0.0,0.0,0.0,0.0,0.0,0.0,0.0,-1.2682,-1.537,-1.7394,-1.8858,-1.9416,-2.1006,-2.1883,-2.0835,-2.1949,-2.2928,-2.2928,-2.2928,-2.2928,-2.2928,-2.2928,-2.2928,-2.2928,-2.2928,-2.2928,-2.2928,-2.2928,-2.2928,-2.2928,-2.2928,-2.2928,-2.2928,-2.2928,-2.2966,-2.3193,-2.3581,-2.3875,-2.4088,-2.4462,-2.4636,-2.4649,-2.5157,-2.5438,-2.5518,-2.5745,-2.5932,-2.6039,-2.5531,-2.6368,-2.8,-2.7337,-3.0145,-3.4433,-3.414,-3.5962,-3.8574,-3.8574,-3.8769,-3.9101,-3.9551,-4.0,-4.043,-4.0859,-4.1074,-4.1172,-4.1172,-4.1172,-4.1172,-4.1172,-4.1172,-4.1172,-4.1172,-4.1172,-4.1172,-4.1172,-4.1172,-4.1172,-4.1172,-4.1172,-4.1172,-4.1172,-4.1172,-4.1172,-4.1172,-4.1172,-4.1172,-4.1172,-4.1074,-4.0996,-4.0996,-4.0898,-4.082,-4.082,-4.082,-4.082,-4.082,-4.082,-4.0684,-4.0371,-4.0351,-4.0195,-3.9902,-3.9766,-3.9707,-3.9707,-3.8945,-3.8574,-3.8574,-3.8574,-3.8574,-0.6871,-0.7054,-0.7314,-0.7435,0.0,0.0,-0.8364,-0.9369,-1.0725,-1.2764,-1.4719,-1.628,-1.6751,-1.8444,-1.9447,-1.8575,-1.9558,-2.0978,-2.2682,-2.2928,-2.2928,-2.2928,-2.2928,-2.2928,-2.2928,-2.2928,-2.2928,-2.2928,-2.2928,-2.2928,-2.2928,-2.2928,-2.2928,-2.2928,-2.2928,-2.3006,-2.3327,-2.3621,-2.3915,-2.4209,-2.4502,-2.4636,-2.4649,-2.5251,-2.5451,-2.5344,-2.5638,-2.5705,-2.5558,-2.509,-2.5697,-2.6969,-2.7728,-3.024,-3.3555,-3.4631,-3.6516,-3.8594,-3.8769,-3.9004,-3.9316,-3.9941,-4.0332,-4.0605,-4.1035,-4.1172,-4.1172,-4.1172,-4.1172,-4.1211,-4.1387,-4.1426,-4.1484,-4.166,-4.1699,-4.1699,-4.1699,-4.1699,-4.1601,-4.125,-4.1172,-4.1172,-4.1172,-4.1172,-4.1172,-4.1172,-4.1172,-4.1172,-4.1172,-4.1172,-4.1172,-4.1172,-4.1172,-4.1172,-4.1172,-4.1172,-4.1172,-4.1172,-4.1172,-4.1055,-4.0801,-4.0801,-4.0684,-4.043,-4.0254,-4.0078,-3.9902,-3.9375,-3.9121,-3.9121,-3.9121,-3.9023,-0.7115,-0.7299,-0.7658,-0.7853,-0.7449,0.0,-0.8406,-0.8431,-0.8463,-0.9488,-1.1347,-1.2908,-1.3061,-1.4888,-1.634,-1.6165,-1.6455,-1.8016,-2.1965,-2.2506,-2.2601,-2.2806,-2.2914,-2.2928,-2.2928,-2.2928,-2.2928,-2.2928,-2.2928,-2.2928,-2.2928,-2.2928,-2.2928,-2.2928,-2.2968,-2.306,-2.3367,-2.3674,-2.3968,-2.4249,-2.4516,-2.4636,-2.4649,-2.5211,-2.5331,-2.509,-2.5358,-2.5317,-2.5064,-2.4756,-2.5106,-2.6136,-2.9864,-3.1721,-3.2814,-3.6827,-3.8409,-3.8633,-3.9062,-3.9238,-3.9414,-4.0254,-4.0566,-4.0664,-4.1055,-4.1172,-4.1172,-4.1172,-4.1172,-4.1269,-4.1699,-4.1797,-4.1914,-4.2324,-4.2422,-4.2422,-4.2422,-4.2422,-4.2207,-4.1465,-4.1308,-4.1308,-4.125,-4.1289,-4.1289,-4.1191,-4.1211,-4.123,-4.1172,-4.1172,-4.1172,-4.1172,-4.1172,-4.1172,-4.1172,-4.1172,-4.1172,-4.1172,-4.1172,-4.1172,-4.1172,-4.1172,-4.1172,-4.1172,-4.0801,-4.041,-4.0039,-3.9941,-3.9902,-3.9902,-3.9902,-3.9668,-0.7495,-0.7529,-0.7584,-0.7516,-0.757,0.0,-0.7321,-0.7434,-0.812,-1.0037,-1.0767,-1.1301,-1.1955,-1.3684,-1.4613,-1.3426,-1.4765,-1.6882,-1.9699,-2.0294,-2.0916,-2.2296,-2.2712,-2.2928,-2.2928,-2.2928,-2.2928,-2.2928,-2.2928,-2.2928,-2.2928,-2.2928,-2.2928,-2.2928,-2.31,-2.338,-2.3688,-2.3968,-2.4262,-2.4556,-2.4609,-2.4636,-2.4649,-2.501,-2.513,-2.5077,-2.5144,-2.513,-2.5064,-2.4756,-2.5774,-2.7673,-2.8745,-3.1334,-3.4589,-3.5741,-3.7179,-3.8633,-3.9062,-3.9453,-3.9844,-4.0351,-4.0762,-4.1055,-4.1152,-4.1172,-4.1172,-4.1172,-4.1172,-4.1269,-4.1699,-4.1797,-4.1914,-4.2324,-4.2422,-4.2422,-4.2422,-4.2422,-4.2383,-4.2207,-4.2187,-4.207,-4.1738,-4.1953,-4.1953,-4.1269,-4.1465,-4.1562,-4.1211,-4.1172,-4.1172,-4.1172,-4.1172,-4.1172,-4.1172,-4.1172,-4.1172,-4.1172,-4.1172,-4.1172,-4.1172,-4.1172,-4.1172,-4.1172,-4.1094,-4.0996,-4.0918,-4.0234,-3.9902,-3.9902,-3.9902,-3.9844,-0.7787,-0.776,-0.7821,-0.7821,-0.7706,0.0,0.0,-0.7428,-0.7795,-0.9171,-0.9375,-0.9493,-1.0045,-1.1008,-1.1415,-1.0762,-1.1827,-1.3473,-1.5582,-1.8037,-2.0215,-2.1992,-2.2338,-2.2485,-2.2632,-2.2645,-2.2699,-2.2914,-2.2928,-2.2928,-2.2928,-2.2928,-2.2928,-2.2928,-2.3006,-2.3313,-2.3768,-2.3915,-2.4209,-2.4636,-2.4636,-2.4636,-2.4649,-2.4943,-2.4997,-2.4863,-2.5024,-2.4997,-2.4924,-2.5709,-2.757,-2.985,-3.0024,-3.2265,-3.5466,-3.6571,-3.7731,-3.8672,-3.9316,-3.9707,-4.0,-4.0644,-4.0996,-4.1172,-4.1172,-4.1172,-4.1172,-4.1172,-4.1328,-4.1582,-4.2012,-4.2266,-4.2539,-4.2969,-4.3066,-4.3066,-4.3066,-4.3066,-4.3066,-4.3066,-4.3066,-4.2871,-4.2226,-4.2285,-4.2285,-4.1855,-4.1973,-4.1953,-4.1543,-4.1484,-4.1406,-4.1191,-4.1172,-4.1172,-4.1172,-4.1172,-4.1172,-4.1172,-4.1172,-4.1172,-4.1172,-4.1172,-4.1172,-4.1172,-4.1172,-4.1172,-4.1172,-4.0742,-4.0527,-4.0527,-4.0527,-4.041,-0.8174,-0.816,-0.8289,-0.8241,-0.797,-0.7733,0.0,0.0,0.0,-0.797,-0.7977,-0.7991,-0.8262,-0.8391,-0.8499,-0.8602,-0.9157,-1.0112,-1.1879,-1.5484,-1.8741,-2.0877,-2.1306,-2.1569,-2.2071,-2.2111,-2.2258,-2.2659,-2.2592,-2.2605,-2.2766,-2.2832,-2.2928,-2.2928,-2.3048,-2.3343,-2.3768,-2.3888,-2.4168,-2.4636,-2.4636,-2.4636,-2.4649,-2.489,-2.4863,-2.4649,-2.489,-2.4863,-2.4784,-2.6721,-2.9122,-3.1636,-3.2002,-3.3786,-3.6275,-3.7951,-3.8633,-3.8809,-3.9609,-3.9941,-4.0137,-4.0918,-4.1172,-4.1172,-4.1172,-4.123,-4.1289,-4.1289,-4.1601,-4.2012,-4.2441,-4.2812,-4.3183,-4.3594,-4.3711,-4.3711,-4.3711,-4.3711,-4.3711,-4.3711,-4.3711,-4.3457,-4.2676,-4.2617,-4.2617,-4.2461,-4.25,-4.2363,-4.1855,-4.1797,-4.1641,-4.1211,-4.1172,-4.1211,-4.1289,-4.1289,-4.1328,-4.1406,-4.1348,-4.1289,-4.1289,-4.1211,-4.1172,-4.1172,-4.1172,-4.1172,-4.1172,-4.1172,-4.1172,-4.1172,-4.1172,-4.0976,-0.8899,-0.9015,-0.9042,-0.8262,-0.8513,-0.8675,-0.7346,0.0,-0.7665,-0.7294,0.0,-0.7502,-0.7672,0.0,0.0,-0.7726,-0.814,-0.9108,-1.0967,-1.2036,-1.3993,-1.7648,-1.8686,-1.9646,-2.1115,-2.1029,-2.1216,-2.2017,-2.1603,-2.1643,-2.2432,-2.2712,-2.2928,-2.2928,-2.338,-2.3701,-2.3768,-2.4275,-2.4569,-2.4636,-2.4636,-2.4636,-2.4636,-2.4676,-2.4676,-2.4562,-2.4676,-2.4663,-2.4784,-2.6721,-2.9122,-3.1783,-3.3458,-3.5866,-3.8263,-3.8501,-3.8809,-3.9199,-3.9726,-4.0137,-4.0527,-4.1016,-4.1172,-4.1172,-4.1172,-4.1426,-4.1738,-4.1738,-4.2031,-4.2461,-4.2891,-4.3047,-4.3183,-4.3594,-4.3711,-4.3711,-4.3711,-4.3711,-4.3711,-4.3711,-4.3711,-4.3555,-4.3086,-4.332,-4.3301,-4.2539,-4.2754,-4.2715,-4.1914,-4.1797,-4.1641,-4.1211,-4.1172,-4.1328,-4.1699,-4.1738,-4.1894,-4.2266,-4.1933,-4.1738,-4.1738,-4.1367,-4.1172,-4.1172,-4.1172,-4.1172,-4.1172,-4.1172,-4.1172,-4.1172,-4.1172,-4.1152,-0.8986,-0.9089,-0.9117,-0.8567,-0.8533,-0.8431,-0.7624,-0.7502,-0.7529,-0.7428,0.0,0.0,0.0,0.0,0.0,0.0,-0.7841,-0.837,-0.9084,-0.953,-1.1539,-1.6367,-1.705,-1.791,-1.9907,-2.0294,-2.0708,-2.1416,-2.1096,-2.1243,-2.2124,-2.2445,-2.2686,-2.2859,-2.3287,-2.3594,-2.3768,-2.4182,-2.4476,-2.4636,-2.4636,-2.4636,-2.4636,-2.4636,-2.4636,-2.4636,-2.5786,-2.6284,-2.6517,-2.9841,-3.2035,-3.3494,-3.5643,-3.736,-3.8574,-3.8574,-3.8848,-3.9277,-3.9726,-4.0176,-4.0586,-4.1035,-4.1172,-4.1172,-4.1172,-4.1465,-4.1797,-4.1797,-4.2285,-4.2851,-4.3027,-4.3262,-4.3496,-4.3672,-4.3711,-4.3711,-4.3711,-4.3711,-4.3711,-4.3711,-4.3711,-4.3652,-4.3476,-4.3594,-4.3574,-4.3223,-4.332,-4.3223,-4.2617,-4.2539,-4.2383,-4.1953,-4.1894,-4.1973,-4.2148,-4.2168,-4.2246,-4.2422,-4.2266,-4.2168,-4.2168,-4.1992,-4.1894,-4.1894,-4.166,-4.1543,-4.1543,-4.1289,-4.1172,-4.1172,-4.1172,-4.1172,-0.931,-0.9381,-0.9439,-0.8791,-0.852,-0.8269,-0.7801,-0.7617,-0.7584,-0.7699,-0.7604,0.0,0.0,0.0,-0.7346,0.0,0.0,-0.7868,-0.7712,-0.7848,-0.9819,-1.4716,-1.5922,-1.708,-1.8848,-1.9239,-1.9733,-2.0575,-2.0281,-2.0561,-2.1683,-2.2098,-2.2432,-2.2726,-2.3193,-2.3554,-2.3768,-2.4142,-2.4422,-2.4636,-2.4636,-2.4636,-2.4636,-2.4636,-2.4636,-2.471,-2.6648,-2.7505,-2.781,-3.2081,-3.4053,-3.4756,-3.7019,-3.8184,-3.8574,-3.8574,-3.8926,-3.9434,-3.9785,-4.0254,-4.0762,-4.1074,-4.1172,-4.1191,-4.1308,-4.1641,-4.1992,-4.2109,-4.2676,-4.3242,-4.3242,-4.3476,-4.3711,-4.3711,-4.3711,-4.3711,-4.3711,-4.3711,-4.3711,-4.3711,-4.3711,-4.3711,-4.3711,-4.3711,-4.3711,-4.3711,-4.3711,-4.3555,-4.3125,-4.3086,-4.291,-4.248,-4.2422,-4.248,-4.2598,-4.2598,-4.2598,-4.2598,-4.2598,-4.2558,-4.2441,-4.2422,-4.2422,-4.2422,-4.2129,-4.1973,-4.1973,-4.166,-4.1465,-4.1348,-4.123,-4.1172,-1.0071,-1.0229,-1.0134,-0.8818,-0.8594,-0.8465,-0.7584,-0.7712,-0.7968,-0.7975,-0.8248,-0.8397,-0.832,-0.7991,-0.7746,0.0,0.0,0.0,0.0,-0.7265,-0.8435,-1.19,-1.5399,-1.7662,-1.7995,-1.7582,-1.7903,-1.9377,-1.8891,-1.9319,-2.1042,-2.1683,-2.2138,-2.2418,-2.3287,-2.3754,-2.3768,-2.4342,-2.4623,-2.4636,-2.4636,-2.4636,-2.4636,-2.4636,-2.4636,-2.471,-2.6648,-2.7505,-2.781,-3.2081,-3.4053,-3.4756,-3.7019,-3.8184,-3.8574,-3.8574,-3.9121,-3.9883,-3.9883,-4.0449,-4.1152,-4.1172,-4.1172,-4.125,-4.166,-4.207,-4.25,-4.291,-4.3359,-4.3691,-4.3691,-4.3691,-4.3711,-4.3711,-4.3711,-4.3711,-4.3711,-4.3711,-4.3711,-4.3711,-4.3711,-4.3711,-4.3711,-4.3711,-4.3711,-4.3711,-4.3711,-4.3555,-4.3125,-4.3086,-4.291,-4.248,-4.2422,-4.2598,-4.3027,-4.3047,-4.3047,-4.3047,-4.3047,-4.2871,-4.2441,-4.2422,-4.2422,-4.2422,-4.2422,-4.2402,-4.2402,-4.2402,-4.2168,-4.1777,-4.1367,-4.1172,-1.0534,-1.0568,-1.0412,-0.9462,-0.9117,-0.8791,-0.7997,-0.8085,-0.8303,-0.8214,-0.8425,-0.8587,-0.8438,-0.8167,0.0,0.0,0.0,0.0,0.0,-0.9268,-1.0742,-1.2293,-1.4788,-1.646,-1.6517,-1.6927,-1.7568,-1.8424,-1.849,-1.9092,-2.0454,-2.1269,-2.183,-2.2124,-2.3193,-2.3768,-2.3768,-2.4342,-2.4636,-2.4636,-2.4636,-2.4636,-2.4636,-2.4636,-2.4636,-2.4784,-2.7981,-2.9329,-2.9718,-3.4228,-3.6213,-3.6475,-3.785,-3.8437,-3.8574,-3.8574,-3.9141,-3.998,-4.0547,-4.0937,-4.1172,-4.1172,-4.1172,-4.125,-4.168,-4.209,-4.2519,-4.2949,-4.3379,-4.3711,-4.3711,-4.3711,-4.3711,-4.3711,-4.3711,-4.3711,-4.3711,-4.3711,-4.3711,-4.3711,-4.3711,-4.3711,-4.3711,-4.3711,-4.3711,-4.3711,-4.3711,-4.3652,-4.3516,-4.3496,-4.3437,-4.3281,-4.3281,-4.334,-4.3476,-4.3496,-4.3496,-4.3496,-4.3496,-4.3437,-4.3281,-4.3281,-4.3281,-4.3281,-4.3008,-4.2851,-4.2851,-4.2558,-4.2344,-4.2207,-4.207,-4.1699,-1.0826,-1.0839,-1.0697,-0.9951,-0.9618,-0.9286,-0.8594,-0.871,-0.892,-0.8777,-0.8899,-0.9028,-0.9035,-0.8621,-0.8394,0.0,0.0,0.0,0.0,-0.978,-1.1453,-1.1946,-1.4103,-1.5645,-1.5952,-1.6126,-1.6633,-1.7649,-1.7622,-1.8196,-1.9693,-2.0708,-2.1494,-2.1817,-2.31,-2.3768,-2.3768,-2.4342,-2.4636,-2.4636,-2.4636,-2.4636,-2.4636,-2.4636,-2.4991,-2.5786,-2.8972,-3.073,-3.1838,-3.5689,-3.7383,-3.7598,-3.8301,-3.8574,-3.8594,-3.875,-3.9355,-4.0215,-4.0937,-4.1172,-4.1172,-4.1172,-4.1269,-4.1484,-4.1894,-4.2324,-4.2754,-4.3183,-4.3496,-4.3711,-4.3711,-4.3711,-4.3711,-4.3711,-4.3711,-4.3711,-4.3711,-4.3711,-4.3711,-4.3711,-4.3711,-4.3711,-4.3711,-4.3711,-4.3711,-4.3711,-4.3711,-4.3711,-4.3711,-4.3711,-4.3711,-4.3711,-4.3711,-4.3711,-4.3711,-4.3711,-4.3711,-4.3711,-4.3711,-4.3711,-4.3711,-4.3711,-4.3711,-4.3711,-4.3437,-4.3301,-4.3301,-4.3008,-4.2812,-4.2656,-4.2656,-4.2285]}]]